GFSGBSN_sfc_thetae_000.txt.gz
Theta_e
315 315 315 315 315 315 315 315 315 315 315 315 315 315 316 316 316 317 317 318 318 317 318 319 320 320 312 302 305 313 344 353 343 326 314 309 307 307 307 308 309 307 309 319 323 319 322
315 315 315 314 315 315 314 315 315 315 315 315 315 316 316 316 316 316 318 317 317 316 318 319 320 320 307 299 312 313 325 334 325 315 311 310 309 312 310 309 306 309 316 319 320 319 321
315 315 315 314 314 314 314 314 314 314 314 314 315 315 315 316 315 316 316 316 315 316 318 320 319 320 310 305 313 316 313 318 316 313 309 311 311 309 308 307 310 318 313 317 317 319 324
315 315 315 315 314 314 314 314 314 314 315 315 315 315 314 314 315 315 315 315 314 317 322 320 321 314 303 316 316 320 315 309 310 310 311 311 311 307 307 310 314 311 312 308 315 319 324
315 315 314 314 314 315 315 314 314 314 315 315 315 315 315 315 315 315 313 313 315 320 321 321 313 309 306 324 316 318 315 310 308 308 310 317 310 304 305 302 305 306 304 306 311 319 320
315 314 314 314 313 314 314 314 314 314 314 314 314 314 314 314 314 313 311 313 313 317 320 321 321 308 310 310 314 317 314 312 308 306 307 305 302 300 299 299 299 303 305 305 309 314 318
314 314 313 313 313 313 314 313 313 313 314 314 314 314 314 314 312 311 308 301 300 300 310 306 306 309 311 313 317 314 313 310 306 301 296 299 297 295 300 302 305 307 308 309 311 315 313
314 313 313 313 313 312 312 312 312 313 313 314 314 313 313 312 311 310 303 297 300 300 294 303 305 307 311 313 309 313 313 306 303 298 297 297 294 300 304 305 305 308 304 306 308 313 314
313 313 313 313 312 313 312 312 313 313 313 313 313 313 312 310 309 304 297 296 303 301 293 300 303 304 305 310 307 309 311 305 300 298 295 293 297 304 305 303 302 299 300 300 307 312 314
313 314 314 313 313 313 312 312 312 313 312 312 312 312 311 309 298 300 299 301 301 300 291 297 301 306 308 310 305 314 314 308 300 298 297 295 301 303 302 303 303 296 304 304 307 307 301
313 313 313 313 313 312 312 312 312 312 312 312 311 311 309 308 299 298 299 301 300 299 285 301 303 311 306 303 303 307 312 306 302 299 297 296 298 300 301 303 305 302 305 304 307 304 303
312 312 312 312 312 312 312 311 312 312 311 311 310 310 309 304 302 302 305 301 298 292 286 298 305 301 302 302 303 305 307 307 307 301 296 299 302 302 302 306 308 306 300 299 298 298 294
312 311 311 311 312 312 311 311 311 311 311 310 308 308 307 306 296 300 299 297 289 285 298 296 296 298 297 299 301 301 301 299 297 293 291 296 298 301 305 300 303 300 295 290 289 291 292
312 312 312 312 312 311 311 311 311 311 310 308 307 306 304 305 303 304 295 290 284 293 294 298 299 297 294 298 298 301 297 297 298 296 292 290 290 299 303 301 299 297 297 290 286 288 294
312 312 312 312 312 312 311 311 310 310 309 307 306 299 297 301 306 299 291 283 287 293 299 298 297 293 293 297 298 298 296 296 300 297 294 289 291 300 303 304 304 296 293 298 291 289 290
311 311 311 312 312 312 311 311 310 310 309 307 300 297 295 306 305 295 288 285 288 297 298 295 291 294 290 292 294 294 293 299 299 301 298 295 289 297 302 303 302 301 301 294 290 286 286
310 310 310 310 311 311 311 311 310 309 308 307 293 288 294 305 298 292 284 285 291 296 297 293 293 292 293 292 294 292 295 300 302 301 299 295 292 293 298 298 298 297 295 293 293 290 288
310 310 310 310 311 311 311 311 310 308 307 302 293 283 296 300 292 287 285 288 295 294 296 295 295 294 293 295 292 294 295 299 304 301 296 296 294 292 294 298 301 302 298 296 294 289 289
311 310 310 309 310 309 311 310 309 308 307 301 290 290 298 297 288 288 291 295 297 297 297 298 295 296 296 294 292 295 297 303 304 302 298 297 290 290 290 292 296 296 297 294 293 292 290
309 310 309 309 309 309 310 310 309 308 307 303 293 285 292 293 289 287 286 289 292 301 300 301 299 299 296 295 296 294 298 306 309 308 322 312 291 293 292 294 296 295 299 298 295 291 291
309 310 309 308 309 309 310 310 309 307 307 303 294 287 291 287 290 290 286 290 293 293 298 299 296 298 297 292 296 294 299 302 309 314 306 295 293 293 299 296 299 299 299 298 296 296 295
309 309 308 308 309 309 309 310 309 307 306 299 294 292 293 291 292 287 289 287 292 294 294 294 296 300 300 296 298 297 300 301 302 307 303 296 292 291 296 298 298 298 299 301 300 299 298
309 309 309 308 309 309 309 309 309 308 302 292 292 294 295 292 290 287 287 290 293 295 297 298 297 297 300 302 302 305 305 306 308 304 304 298 291 289 292 294 294 291 298 298 300 301 301
308 308 308 308 309 309 309 309 309 309 304 300 297 296 292 287 292 292 293 294 293 295 292 296 296 294 303 301 304 301 301 304 304 303 306 303 293 290 294 291 286 297 304 303 303 308 308
308 308 308 308 308 309 309 308 308 309 307 300 299 292 293 288 293 293 294 293 293 293 292 296 298 302 298 298 297 296 298 300 304 308 307 305 294 292 289 288 293 303 307 307 306 304 310
307 307 307 307 308 308 308 308 308 308 308 301 294 296 292 288 289 295 292 294 290 288 289 293 301 298 299 297 296 291 293 297 299 302 306 305 302 297 291 289 291 299 308 313 310 300 309
308 308 307 307 307 307 308 308 308 307 308 303 297 302 297 291 294 295 291 290 293 291 289 291 293 295 302 295 292 292 292 299 297 299 300 301 302 298 295 293 297 307 310 313 300 299 310
308 308 307 307 307 307 307 307 308 307 307 303 296 302 297 293 294 297 297 294 293 292 289 292 293 298 298 295 295 294 293 298 299 302 301 300 300 299 298 295 293 310 311 304 309 310 312
307 307 307 307 307 306 307 307 307 307 307 306 295 298 304 295 294 299 299 301 299 298 293 293 290 292 300 294 296 296 297 298 298 298 307 301 306 303 300 300 308 311 308 311 313 312 312

GFSGBSN_sfc_thetae_003.txt.gz
Theta_e
316 315 315 315 315 314 314 314 314 315 315 316 316 316 316 316 317 317 317 318 317 317 318 319 320 320 317 310 311 317 344 353 342 330 317 315 312 312 309 313 315 315 316 321 325 328 329
316 315 315 315 314 314 314 314 315 315 315 315 315 316 316 316 317 317 317 318 317 316 317 319 319 319 313 305 317 319 337 339 336 324 318 316 314 316 313 316 315 315 317 319 325 327 329
316 315 315 314 313 313 314 314 314 314 314 314 315 315 316 316 316 316 316 316 315 315 317 320 319 319 313 311 318 319 322 327 330 322 316 317 317 317 318 314 316 323 320 323 324 326 326
315 315 315 314 313 314 314 314 313 313 314 314 315 315 315 315 316 315 315 314 314 316 319 320 320 320 312 321 322 321 323 319 320 321 319 320 319 315 314 317 321 319 321 315 322 326 328
315 315 314 313 314 315 314 314 313 313 314 314 314 315 315 315 315 313 313 312 315 319 320 322 319 315 313 327 319 323 324 315 314 319 319 318 317 313 313 312 315 316 312 314 318 326 327
315 314 314 313 313 314 314 314 313 314 314 315 314 314 314 314 313 312 311 312 314 319 321 322 322 314 318 315 319 321 322 315 312 313 313 312 311 308 310 311 305 311 313 315 316 321 325
314 314 314 314 314 314 313 313 312 313 313 314 314 313 313 313 311 310 310 308 309 308 315 312 312 314 315 318 319 319 318 316 311 310 306 308 305 302 307 311 315 315 315 315 318 322 321
313 313 314 314 313 313 312 312 312 312 312 313 313 313 312 312 310 310 308 299 305 303 298 304 305 307 311 314 309 314 319 312 310 306 304 303 301 307 310 311 310 316 315 315 317 321 321
313 313 313 313 313 313 312 312 312 313 313 313 313 312 311 309 309 308 302 301 307 306 297 302 304 305 308 310 307 309 315 313 309 307 304 301 303 307 308 308 307 310 312 315 315 317 320
313 314 314 313 313 313 313 312 312 312 312 312 312 312 310 308 303 303 303 307 307 305 298 302 305 310 312 311 307 314 316 314 307 307 305 304 306 305 306 307 310 307 314 316 316 314 309
314 314 313 313 313 313 313 312 312 312 312 312 311 311 309 307 304 302 304 308 308 305 289 304 307 316 313 310 308 310 317 313 308 306 305 303 302 303 304 307 311 310 312 313 315 314 311
313 313 313 313 313 313 312 312 311 311 311 311 310 309 308 306 305 306 308 307 306 298 289 301 309 307 306 309 309 311 311 314 314 308 304 306 307 307 307 310 312 312 310 309 311 311 302
313 313 313 312 313 313 312 311 311 311 311 310 308 307 307 307 302 307 307 303 295 291 301 299 302 305 304 304 306 307 306 306 305 302 302 305 305 307 308 306 312 310 308 300 299 300 299
313 312 313 313 312 312 312 312 311 311 311 309 306 306 307 308 309 309 303 297 289 296 298 302 303 303 300 303 304 305 305 303 309 308 304 300 297 305 308 307 306 307 308 302 296 297 301
312 313 312 312 312 312 312 312 311 311 310 308 306 305 303 306 309 307 298 288 292 296 302 302 303 299 300 302 302 303 304 304 306 308 302 300 300 306 307 310 311 307 304 311 305 301 301
312 311 311 311 312 312 312 311 311 310 309 307 302 299 299 310 311 303 294 289 294 301 304 300 297 300 297 299 299 301 302 306 306 309 312 305 299 305 307 309 310 309 311 302 303 298 296
312 312 311 311 311 311 311 311 311 310 309 307 300 293 301 311 304 298 291 291 295 299 303 299 298 298 300 297 299 299 300 305 306 307 311 308 303 301 305 304 303 305 304 305 307 304 300
312 312 311 311 311 310 310 311 310 308 307 303 297 287 301 307 298 296 293 294 295 298 300 299 301 300 299 299 298 299 299 304 308 307 303 308 305 300 301 306 308 308 307 308 302 302 303
311 311 310 311 310 309 310 310 310 308 307 302 292 293 303 303 292 294 297 296 299 300 301 301 299 302 302 299 296 300 302 307 308 307 307 305 302 298 300 304 306 304 306 308 309 308 306
311 311 310 310 309 309 309 310 309 308 307 304 294 288 297 300 296 294 293 294 295 301 301 303 302 304 303 301 304 301 301 307 311 309 320 313 307 303 298 301 305 302 304 307 306 302 303
310 310 310 310 309 309 309 310 309 308 307 302 295 292 296 293 296 296 294 293 292 293 300 301 302 302 302 299 300 300 303 304 307 313 314 311 304 306 307 307 305 304 303 305 304 307 304
309 309 309 309 309 309 309 310 309 308 305 299 292 293 295 293 295 294 293 293 293 295 296 297 298 300 302 300 302 300 304 305 307 312 313 306 306 302 302 306 305 302 304 305 306 307 307
308 308 308 309 309 309 309 309 309 308 304 297 298 298 293 291 292 291 292 293 294 295 298 300 298 297 297 300 303 305 307 309 311 310 313 313 308 306 301 303 302 300 304 305 307 309 309
308 308 308 308 308 308 308 309 309 308 306 303 298 296 290 286 290 291 294 295 294 295 293 297 298 296 300 304 306 308 305 306 309 311 312 312 311 303 302 302 294 304 310 309 307 309 311
308 308 308 308 308 308 308 308 308 308 307 304 300 297 292 286 290 290 293 294 296 297 294 295 298 300 303 301 301 302 304 306 307 309 311 316 309 302 299 299 304 306 310 307 305 306 316
308 308 308 308 308 308 308 308 308 308 307 306 302 301 296 287 286 291 292 294 291 292 293 294 299 302 304 303 302 298 296 301 302 307 312 312 312 306 303 297 296 308 314 317 316 305 315
307 307 308 308 308 308 308 308 308 308 308 304 304 302 298 289 292 293 290 291 296 294 292 294 294 297 306 304 299 299 299 305 300 302 304 307 306 302 304 301 304 313 315 317 305 309 316
307 307 307 307 307 307 307 307 307 307 307 305 302 303 299 293 293 295 296 293 295 295 290 293 293 298 302 302 302 302 300 305 305 309 307 305 302 302 306 302 300 315 316 311 316 319 319
307 307 307 307 307 308 307 306 306 306 306 307 299 303 305 296 293 299 299 300 299 299 295 295 293 293 298 298 302 303 305 307 306 301 311 303 308 303 308 307 314 315 315 320 322 320 321

GFSGBSN_sfc_thetae_006.txt.gz
Theta_e
316 315 316 316 315 314 314 314 315 315 315 315 315 316 316 316 317 317 318 318 318 317 318 318 320 320 322 316 315 328 343 346 335 336 321 320 316 316 313 316 318 317 319 321 323 327 328
316 316 315 315 315 314 315 314 314 314 314 315 315 316 316 316 317 317 318 317 317 316 317 318 320 319 320 309 322 327 333 336 330 326 320 319 317 318 316 316 317 319 319 320 322 325 329
316 316 315 315 315 314 314 314 314 314 314 314 315 315 316 316 316 316 316 315 315 315 316 319 321 321 318 314 322 324 325 326 330 326 320 320 320 317 318 316 321 320 318 323 324 327 328
316 315 314 314 315 314 314 314 313 313 313 315 315 314 314 314 315 315 314 314 313 316 318 322 321 324 315 324 328 325 327 325 327 330 324 324 322 318 317 321 318 317 319 316 324 328 330
316 315 314 315 315 315 314 313 313 313 313 314 314 314 314 314 315 314 312 312 315 319 321 322 324 323 314 326 323 327 328 321 322 324 323 321 320 317 317 314 314 317 312 315 321 329 328
314 314 314 315 314 314 314 313 313 313 313 314 314 314 314 313 313 312 311 313 317 322 324 326 326 319 321 316 325 323 329 322 319 320 317 316 315 312 313 313 307 312 313 315 316 325 328
314 314 314 314 314 314 313 313 312 312 313 313 314 313 313 312 311 310 311 314 315 316 320 315 314 317 316 321 323 321 325 319 318 317 309 312 308 306 311 315 316 316 316 315 319 326 325
314 314 314 313 313 313 313 312 312 312 312 313 313 313 312 311 310 309 312 306 307 307 303 310 310 311 315 318 311 316 323 316 313 309 312 308 305 311 313 315 314 315 314 315 319 325 324
313 314 313 313 313 313 314 314 313 312 313 313 312 312 311 310 309 311 308 308 312 310 303 307 310 309 312 313 310 312 318 317 312 309 308 306 308 311 311 311 312 314 313 315 317 322 325
313 314 314 313 313 313 314 313 313 312 312 312 312 312 310 308 307 309 309 312 314 311 301 306 308 313 315 315 310 318 319 316 312 309 310 307 311 309 308 308 313 311 316 316 316 317 312
314 314 315 314 314 314 313 313 312 312 312 312 312 311 309 307 307 307 309 312 313 310 294 308 310 320 318 314 314 314 319 315 310 310 311 307 307 306 306 308 313 312 318 316 315 316 316
314 314 314 313 313 313 313 313 312 312 312 312 311 309 308 308 310 310 312 312 312 301 293 304 311 310 311 313 312 314 313 317 316 311 312 310 313 310 309 311 313 316 315 316 316 314 308
314 314 313 313 313 312 312 312 312 312 311 310 309 307 307 309 305 313 313 306 298 295 305 303 305 310 309 307 309 311 309 308 307 304 304 307 308 310 311 308 312 313 312 305 304 304 304
314 314 313 313 312 312 312 312 312 311 311 310 306 305 310 310 312 312 308 299 292 299 301 307 307 308 306 308 308 309 308 305 309 309 306 302 299 307 310 309 309 310 311 306 300 301 305
315 314 314 313 312 312 312 312 311 311 310 308 305 307 306 312 313 312 303 292 296 300 304 303 305 303 304 307 305 307 307 307 309 311 305 304 303 310 310 311 311 310 308 315 309 310 305
315 314 314 313 313 312 312 311 311 311 310 307 304 304 304 312 316 309 298 293 299 302 304 306 301 305 302 304 304 305 306 309 308 312 315 310 303 310 310 312 312 311 315 307 309 303 300
313 313 312 312 312 312 311 311 311 310 309 307 304 298 308 317 315 305 295 296 299 303 303 303 302 302 303 303 305 305 305 309 311 311 314 312 308 306 310 306 306 308 308 311 311 309 302
312 313 312 312 312 312 311 311 310 309 307 305 301 293 309 315 301 302 298 300 299 301 303 301 303 303 302 304 304 304 304 307 312 313 309 313 310 303 304 310 311 311 309 311 306 306 308
312 312 311 311 311 311 311 310 310 308 307 304 297 297 307 307 292 295 301 299 301 300 301 301 300 302 304 303 301 303 305 309 310 311 311 313 308 302 304 306 309 306 309 311 312 312 310
311 311 311 311 310 310 310 310 309 308 308 304 298 292 299 304 301 297 297 297 298 303 301 303 302 304 301 301 305 302 304 307 310 310 322 316 309 306 301 305 308 304 306 308 309 306 307
309 310 310 310 310 310 310 310 309 308 308 304 298 294 299 292 299 300 300 299 296 296 302 304 302 303 302 299 302 302 305 308 311 316 315 316 309 310 308 309 309 307 306 306 305 307 306
309 309 309 309 309 309 309 310 309 308 307 300 294 295 298 295 296 294 294 295 296 297 300 300 301 301 303 301 303 302 304 306 305 312 311 315 309 311 308 309 309 306 308 307 307 307 308
309 309 309 309 309 308 309 309 309 308 305 299 301 301 294 292 291 291 292 294 294 298 300 302 301 301 301 304 307 310 311 312 312 310 311 312 311 310 305 309 308 304 308 309 308 309 309
309 309 309 309 309 308 308 308 308 308 306 303 301 299 290 289 291 290 292 294 293 295 295 299 301 298 303 307 307 308 309 309 310 311 313 313 314 312 306 308 299 308 314 313 310 309 312
308 308 309 309 309 309 309 308 308 308 307 303 304 297 292 287 291 290 291 292 296 296 296 296 298 302 305 302 299 300 302 305 306 309 311 315 313 308 304 304 307 310 313 310 309 308 313
308 308 308 308 308 309 308 308 308 308 308 305 303 303 296 290 290 293 291 293 293 293 294 296 301 305 303 298 300 297 296 301 300 305 313 314 315 309 307 301 299 311 317 321 320 308 315
307 308 308 307 308 308 308 308 308 308 307 305 303 306 298 291 296 296 292 292 297 296 294 296 296 297 304 301 298 298 298 305 299 302 306 309 310 305 305 304 307 317 318 321 308 309 318
307 307 308 308 308 308 308 308 308 307 306 304 302 306 298 292 294 299 299 293 294 297 293 297 294 298 299 300 301 301 302 304 304 309 310 308 306 305 308 305 302 318 318 313 321 326 326
307 306 307 307 307 308 307 307 307 306 305 305 299 308 308 296 295 302 302 303 301 299 296 297 295 295 297 299 305 306 307 310 306 301 315 306 311 308 310 309 318 320 318 322 327 324 327

GFSGBSN_sfc_thetae_009.txt.gz
Theta_e
317 317 316 316 316 315 315 315 315 315 315 315 316 316 316 316 316 317 318 318 318 317 317 318 319 321 323 318 316 331 351 347 339 331 329 323 321 320 318 319 321 320 322 323 324 326 327
317 316 315 315 316 315 315 315 315 314 314 315 315 316 316 316 316 316 317 317 316 316 317 318 319 320 321 311 324 329 328 332 328 328 324 323 321 322 319 319 319 322 322 322 323 324 327
315 315 315 316 315 316 315 315 314 314 314 314 315 315 316 316 315 315 316 316 314 315 316 319 320 322 318 316 324 325 330 328 329 326 322 323 323 319 319 317 322 322 318 322 323 323 324
315 315 315 316 315 315 315 314 314 314 314 314 314 315 315 315 314 315 314 313 313 316 320 322 324 324 315 326 329 325 325 324 327 329 325 325 323 320 319 322 321 318 319 315 323 324 325
315 315 315 315 315 315 315 314 313 314 314 314 314 315 315 315 314 313 312 312 314 320 322 323 326 325 315 328 323 326 327 323 325 325 327 324 322 317 317 313 313 317 311 315 318 325 326
316 315 315 314 314 315 315 315 314 314 314 314 314 314 314 314 313 312 310 312 318 322 325 328 328 321 321 318 324 326 328 325 320 322 319 318 316 313 313 313 307 312 313 316 318 321 326
315 315 315 314 314 314 314 315 314 314 314 314 314 313 313 312 311 310 311 318 317 320 323 318 319 317 319 323 327 323 326 322 320 319 311 314 309 307 311 315 316 317 316 315 319 322 322
316 314 314 314 314 314 314 314 315 314 313 313 313 313 312 311 310 309 313 311 311 310 304 313 314 316 319 320 315 320 326 316 314 310 314 311 306 312 315 316 315 316 315 316 320 320 322
315 315 314 315 315 315 315 314 314 314 313 313 313 313 311 310 309 313 310 312 315 315 305 309 314 313 315 317 312 314 319 318 312 310 311 308 310 313 313 314 314 315 314 315 316 322 324
315 315 315 316 315 314 314 314 314 313 313 313 313 312 311 308 308 311 311 316 316 315 302 307 310 313 315 316 311 317 320 316 315 310 311 310 313 311 310 311 314 311 317 317 316 315 313
316 316 315 315 315 314 314 313 313 313 312 312 312 311 309 307 308 308 312 315 314 313 294 311 312 321 319 315 317 316 322 317 312 312 312 309 310 310 308 310 315 313 318 317 317 317 317
316 316 316 315 314 314 313 312 313 312 312 312 312 310 309 309 311 313 315 314 312 301 295 307 313 312 313 315 314 317 316 318 318 313 313 312 315 312 312 313 315 317 316 317 316 315 308
316 316 315 315 314 313 313 312 312 312 311 311 310 308 307 310 306 314 314 309 298 295 309 306 308 311 311 310 311 313 311 310 308 304 306 310 310 314 313 310 314 314 312 305 305 305 304
316 316 316 315 314 313 313 313 313 311 311 310 307 305 310 312 316 314 309 301 293 302 304 310 310 311 308 311 311 311 310 307 311 310 308 305 303 310 313 310 309 310 311 305 301 303 306
316 316 316 315 314 314 314 313 312 311 311 309 306 310 310 313 315 313 304 294 297 302 308 307 309 306 307 310 310 309 310 309 311 311 306 306 305 313 313 313 311 310 308 315 309 311 307
315 315 315 314 314 313 313 312 312 311 310 308 306 307 308 314 317 310 300 294 301 305 308 308 303 307 305 307 307 308 309 312 311 313 315 311 306 312 312 313 312 310 314 307 311 303 302
313 313 313 313 313 313 313 312 312 311 309 308 307 301 312 315 316 306 295 298 301 305 306 304 304 305 306 306 308 307 307 311 313 313 314 312 310 309 313 309 307 307 307 311 311 310 304
312 312 313 312 313 312 312 312 311 310 308 306 304 297 311 317 303 303 300 302 301 304 307 304 305 306 306 308 307 307 307 310 314 314 310 313 310 306 308 314 314 311 309 309 307 307 309
312 311 311 312 312 311 311 311 310 309 308 305 300 302 310 307 293 296 301 302 304 303 304 304 303 304 306 305 304 307 309 313 313 313 312 313 308 303 306 310 312 309 310 310 310 312 311
310 310 310 310 311 310 311 311 310 309 309 305 300 295 302 303 302 297 297 298 299 305 304 305 304 305 303 302 306 305 306 310 313 312 324 316 311 307 303 307 310 306 308 309 309 306 307
310 310 310 310 310 310 310 310 309 308 308 302 299 296 299 294 297 297 297 297 297 297 304 305 303 302 302 299 301 302 306 309 310 314 312 313 308 310 310 311 311 309 307 307 306 308 306
310 310 310 310 310 310 310 310 309 308 307 299 297 297 299 297 299 295 294 294 293 296 298 297 299 302 303 300 302 301 305 307 308 311 311 313 308 311 308 310 309 307 310 309 308 308 308
309 309 310 310 310 310 309 309 309 308 306 299 303 304 299 294 295 293 293 293 294 296 298 301 299 299 302 303 305 308 311 311 310 311 311 311 310 310 306 310 310 305 308 309 311 312 310
308 308 309 309 309 310 309 309 309 309 307 305 302 299 294 291 293 293 294 293 294 295 295 298 299 298 303 307 308 309 309 311 311 311 312 311 312 310 305 310 299 310 316 315 312 313 314
308 308 308 309 309 309 309 309 309 309 308 307 305 297 293 291 293 294 294 293 294 297 297 295 297 301 303 303 300 300 301 302 304 308 312 315 312 307 305 305 309 310 315 315 314 312 316
308 308 308 308 309 309 309 309 309 308 309 308 308 303 296 289 291 295 293 293 291 292 295 298 301 304 303 299 296 294 293 298 298 302 310 312 315 310 309 303 301 311 319 322 320 309 318
308 308 308 308 309 309 309 309 309 308 308 309 304 305 297 290 294 296 293 292 295 294 295 297 299 298 300 294 292 293 294 301 296 298 302 304 307 304 305 305 308 318 320 322 307 311 327
308 308 308 307 308 309 308 308 308 308 307 307 306 310 299 293 294 299 299 297 294 297 291 297 298 297 297 294 295 296 296 299 300 305 305 303 304 304 307 303 301 322 321 314 323 328 329
308 308 308 307 308 308 308 308 308 307 307 307 302 307 305 296 296 304 304 304 303 302 299 299 297 296 300 299 302 301 301 305 304 299 311 304 309 307 309 310 325 326 323 327 328 328 329

GFSGBSN_sfc_thetae_012.txt.gz
Theta_e
317 316 316 317 317 317 316 315 315 315 315 315 315 316 317 316 316 316 317 317 317 317 317 318 319 320 321 314 316 327 352 347 335 327 323 322 319 321 317 321 321 318 323 325 325 325 326
316 316 316 316 316 316 316 315 315 315 314 314 314 315 316 316 316 316 317 316 316 315 316 318 319 320 318 307 324 331 328 331 326 325 321 323 321 323 320 320 319 321 321 322 322 323 325
316 316 316 316 316 316 315 315 315 315 315 315 315 315 315 315 315 316 316 315 315 314 316 319 322 321 314 310 325 327 326 327 326 326 320 324 324 321 321 318 322 320 317 320 321 322 322
317 316 316 315 315 315 315 315 315 315 315 315 315 315 315 315 315 315 314 313 313 315 318 323 323 322 311 321 325 323 326 325 327 327 325 325 324 320 319 321 318 315 316 312 319 322 323
317 317 316 316 316 316 315 315 315 315 315 315 314 315 315 315 314 313 312 312 314 317 323 324 323 322 314 330 322 325 326 320 321 324 325 325 322 315 316 312 310 313 309 311 315 323 322
317 317 316 315 315 316 316 315 315 315 315 314 314 314 314 314 313 312 310 312 318 320 325 327 325 319 323 318 324 324 325 322 319 321 318 318 316 312 311 309 303 307 309 313 313 320 321
316 316 315 315 315 316 315 315 315 314 314 314 314 313 313 313 311 310 309 315 316 315 321 318 318 314 318 325 325 323 326 323 321 317 310 315 309 306 309 311 313 313 313 313 316 322 319
317 316 315 315 316 316 315 315 314 314 314 314 313 313 313 312 311 309 311 312 312 311 304 311 313 317 322 324 317 321 325 317 314 309 313 310 305 310 313 314 312 313 312 313 318 322 321
317 316 316 316 316 316 315 314 314 313 313 313 313 313 312 311 309 312 312 310 318 315 304 307 311 310 314 321 316 315 320 319 312 309 311 307 309 312 311 311 311 311 311 313 314 320 321
317 316 316 316 316 315 315 314 313 313 313 313 312 312 311 309 309 309 309 317 315 315 299 305 310 312 313 314 310 318 319 318 314 308 309 310 313 310 309 309 312 308 315 315 314 315 310
317 317 316 316 316 315 314 314 313 313 313 312 312 311 310 308 306 307 313 315 315 312 292 312 312 320 316 311 313 313 319 315 310 311 311 307 310 309 307 308 313 311 316 315 314 313 315
317 317 317 316 316 315 314 314 313 313 313 312 311 310 309 308 310 312 315 314 312 298 292 308 313 311 310 311 312 317 313 316 315 310 313 311 315 313 311 312 312 316 314 314 314 313 305
317 317 316 316 316 315 314 314 313 313 312 311 310 308 308 309 304 313 313 309 296 293 309 307 309 312 311 309 309 313 310 308 307 303 304 310 310 313 314 309 312 311 309 304 302 304 303
316 316 316 315 315 315 314 314 313 312 312 310 308 306 310 311 314 314 310 300 292 301 302 311 311 311 307 311 310 311 310 307 310 309 306 303 302 309 313 310 308 308 308 305 298 301 304
315 315 315 314 314 314 314 313 312 312 311 309 306 310 310 312 314 314 304 292 296 301 307 307 309 306 307 309 310 309 309 308 310 310 305 304 304 313 313 314 311 308 305 311 306 308 305
314 314 314 313 313 313 314 313 312 312 311 308 305 306 309 316 315 310 299 294 299 304 307 307 303 307 304 307 307 308 308 312 311 312 313 309 304 311 313 314 313 309 312 303 306 300 300
313 313 313 313 313 313 313 313 312 312 310 308 305 302 309 314 314 305 296 296 300 305 305 301 300 301 304 307 308 307 308 311 313 313 313 310 308 308 312 309 307 307 306 307 308 307 302
312 312 312 312 312 312 312 312 311 310 308 306 303 295 311 315 301 303 299 302 302 303 306 305 305 303 302 303 306 307 307 310 315 315 310 312 308 305 307 314 314 311 308 307 302 304 307
312 312 312 312 312 312 312 311 310 309 309 305 298 299 308 307 293 295 299 299 303 303 304 304 303 304 306 302 301 305 308 314 315 313 310 313 307 303 303 309 313 308 309 309 308 308 305
312 312 312 312 312 311 311 311 310 309 309 305 298 293 299 302 302 297 296 296 296 302 302 303 303 305 304 303 305 303 305 310 314 314 322 316 309 307 302 306 310 308 308 309 307 303 304
310 310 310 311 311 311 311 311 310 309 309 304 299 295 298 291 295 296 296 297 295 296 301 303 301 301 301 299 301 301 304 306 310 315 314 312 307 309 308 309 310 310 308 309 307 308 305
310 310 310 310 310 310 310 311 310 309 308 300 293 294 299 296 296 295 293 293 292 295 297 294 296 300 301 298 298 296 302 306 306 311 310 311 307 308 306 310 309 308 310 309 308 309 309
310 309 310 309 309 310 310 310 310 309 306 302 300 301 297 294 293 292 292 292 293 295 297 299 297 297 297 299 302 302 304 305 308 309 310 310 307 307 303 308 308 304 309 310 311 310 309
310 309 309 309 309 309 310 309 309 309 307 307 304 301 292 288 291 291 293 294 294 295 292 297 297 295 300 304 305 306 306 307 307 308 310 311 308 308 304 307 298 309 314 313 311 312 313
310 309 309 309 309 309 309 309 309 310 309 308 307 299 292 287 293 291 294 293 294 296 293 296 298 300 303 300 295 295 299 301 304 307 308 312 311 305 303 302 307 310 313 314 311 311 317
310 309 309 309 309 309 309 310 309 310 309 309 309 305 296 288 289 295 294 294 292 293 294 296 304 304 301 296 292 288 286 297 298 303 310 309 316 308 306 300 299 311 316 322 319 309 321
309 309 309 309 309 308 309 310 310 309 309 308 308 308 297 288 294 296 293 294 297 294 292 297 299 301 302 293 288 288 290 298 296 299 301 304 306 304 304 302 306 316 319 320 305 311 326
310 309 309 309 308 308 309 309 309 309 309 308 305 311 300 293 294 298 299 296 295 294 290 295 292 300 296 291 290 291 291 296 298 304 303 301 300 302 307 303 300 320 318 311 323 327 326
309 309 308 308 308 308 308 309 308 308 307 307 302 310 308 298 296 301 303 305 302 300 297 297 295 295 300 295 298 298 295 299 299 295 306 300 305 302 307 308 322 328 326 328 329 327 328

GFSGBSN_sfc_thetae_015.txt.gz
Theta_e
317 316 317 317 317 317 316 316 316 316 316 315 315 315 315 315 316 316 316 317 317 317 316 317 318 320 316 309 311 322 353 352 339 327 319 315 311 310 309 314 317 315 320 324 327 325 323
318 316 316 316 316 316 316 315 315 316 315 315 315 316 316 316 316 317 317 316 316 316 315 317 319 320 314 302 315 319 330 331 327 323 317 316 314 316 313 315 313 317 318 321 321 324 324
318 317 316 316 316 316 315 315 315 315 315 315 316 316 315 316 316 315 316 315 315 314 315 317 320 319 312 305 316 322 321 324 323 320 315 317 319 315 314 312 318 316 312 314 316 315 322
319 317 317 317 317 316 316 315 315 315 315 315 315 315 315 315 316 315 314 313 314 314 316 318 323 317 307 317 317 315 315 316 323 320 320 319 319 315 312 315 315 310 307 302 313 316 318
318 317 317 317 317 316 316 316 315 315 315 315 315 315 315 315 314 313 312 312 315 318 319 324 318 315 310 328 317 317 317 316 318 319 319 323 316 311 311 305 302 303 300 303 308 317 317
318 318 317 317 316 316 316 315 315 315 314 314 314 314 313 313 313 311 311 311 314 318 321 325 322 312 319 315 319 320 320 320 316 314 314 314 309 304 304 300 295 298 300 304 306 313 316
318 318 317 317 317 316 316 315 315 314 314 314 314 313 313 312 312 310 307 305 306 306 315 314 313 311 312 317 323 319 320 317 314 310 304 308 302 300 302 304 305 306 305 305 309 317 318
318 318 317 317 317 317 316 315 315 315 314 314 313 313 312 312 311 309 307 306 307 306 300 307 307 310 318 321 315 317 321 311 309 305 308 304 301 306 309 308 306 306 304 304 310 317 317
318 318 317 317 317 316 316 315 315 314 314 313 313 312 312 311 309 309 303 303 310 309 297 302 306 306 307 310 311 314 317 313 309 305 306 301 305 311 308 306 305 304 303 305 306 315 318
318 317 317 317 316 316 316 316 315 314 314 313 313 312 311 309 306 303 304 312 312 310 292 299 303 306 308 308 305 316 320 314 310 305 306 304 310 308 306 304 305 301 309 309 308 307 306
317 317 317 317 316 316 316 315 315 314 314 313 313 312 310 309 302 302 309 311 310 305 286 307 307 314 308 304 307 311 320 312 308 308 304 302 306 306 304 304 306 304 310 309 309 306 307
317 316 316 316 316 316 315 314 314 314 313 313 312 310 309 306 305 306 310 309 306 292 287 303 309 306 303 304 305 309 312 313 311 308 308 307 311 308 307 309 308 309 307 307 307 305 299
316 316 316 315 315 314 314 313 313 313 312 312 310 308 306 307 300 308 308 305 290 287 304 304 304 307 304 302 303 304 304 303 300 296 298 303 306 310 310 305 306 305 297 295 294 296 294
315 314 314 314 313 313 313 313 313 313 312 311 308 306 307 309 310 309 306 295 286 297 297 305 304 306 303 305 304 304 303 300 304 301 297 295 295 306 310 305 301 301 300 295 289 293 296
314 314 314 313 313 313 313 313 313 312 311 309 307 304 304 307 311 309 300 289 291 296 301 301 300 300 302 306 306 304 303 302 303 304 298 297 297 309 310 310 307 300 298 302 293 297 294
313 313 313 313 313 312 312 312 312 312 311 309 302 301 303 310 313 306 296 290 295 301 300 299 292 298 294 297 299 303 302 307 306 308 308 302 296 306 310 310 309 304 303 296 298 290 291
313 313 313 313 313 312 312 312 311 311 310 308 302 297 304 309 309 300 291 292 296 301 302 298 296 296 297 296 298 297 301 308 310 310 309 305 301 301 305 303 302 302 300 298 297 298 292
313 312 312 312 312 312 312 312 311 310 308 305 299 291 305 306 293 298 293 297 299 300 303 301 301 299 297 298 296 297 298 301 311 311 305 306 301 296 300 307 310 306 300 298 295 290 295
312 312 312 312 312 312 312 311 310 309 309 302 294 294 304 303 288 291 296 297 299 297 297 297 297 301 302 298 295 299 300 306 307 306 307 307 301 294 297 301 306 304 304 301 301 295 293
311 311 311 311 311 312 311 311 310 309 309 303 295 288 295 298 298 293 292 292 292 298 297 298 298 299 297 296 300 297 299 305 307 306 320 313 302 299 295 297 301 301 304 305 300 296 296
310 310 310 311 310 311 311 310 310 309 308 304 297 291 294 287 291 291 293 293 290 290 296 296 295 295 293 290 295 295 299 298 302 309 307 302 300 302 303 305 305 303 304 304 301 300 296
311 310 310 311 310 310 310 310 310 309 308 301 292 291 294 290 292 291 291 290 290 291 292 291 292 295 294 293 294 291 294 295 294 299 297 300 298 302 300 305 304 303 305 307 305 304 303
310 310 310 310 310 310 310 310 310 309 306 299 301 300 294 290 289 288 289 290 290 292 294 296 294 294 292 295 298 298 298 298 298 296 295 296 297 298 294 302 302 298 303 305 306 307 305
311 310 310 310 310 310 309 310 310 309 307 303 302 299 292 286 288 287 290 291 290 292 291 294 296 293 296 302 301 301 300 300 301 301 301 297 297 299 294 298 292 300 309 310 308 309 308
311 310 310 310 310 310 309 310 310 310 309 304 304 299 292 286 289 289 290 291 293 294 292 293 296 298 302 299 292 292 293 295 298 301 301 302 298 296 293 295 297 304 307 306 304 305 309
311 311 311 310 310 309 309 309 310 310 310 306 305 305 297 287 287 293 290 291 288 290 291 293 298 302 301 296 291 287 287 291 293 298 303 302 302 299 294 291 291 301 310 318 314 302 320
310 310 310 310 309 309 309 310 310 310 310 307 305 307 297 288 291 293 290 290 294 293 290 292 295 293 298 292 287 285 286 295 290 292 296 297 301 299 297 293 297 308 315 316 301 305 320
310 310 310 309 309 309 309 309 309 309 309 308 304 308 300 292 293 295 296 293 293 293 289 294 292 292 292 289 288 289 288 293 293 296 296 296 297 296 299 295 294 318 316 308 314 320 319
310 310 310 310 310 309 309 308 308 308 308 308 299 309 308 298 295 300 300 301 299 298 295 295 294 293 294 294 294 295 291 295 295 292 303 296 301 301 301 304 317 316 312 313 319 320 323

GFSGBSN_sfc_thetae_018.txt.gz
Theta_e
318 317 317 317 317 317 317 316 316 316 316 315 315 315 315 315 315 316 316 316 317 316 316 316 317 319 313 306 308 316 348 350 340 331 321 316 309 306 303 307 311 312 316 323 326 324 321
319 318 317 317 317 317 316 316 316 316 316 316 316 316 316 316 316 316 317 316 316 315 315 316 317 319 309 295 309 314 318 330 326 321 317 314 311 311 307 309 308 313 314 315 322 323 323
318 317 317 317 317 317 317 316 315 315 315 315 315 316 315 315 316 316 316 315 315 315 315 317 317 317 311 301 312 314 319 321 321 321 314 315 315 310 309 308 313 313 308 311 313 321 321
319 318 317 317 317 317 317 316 316 316 315 315 315 315 315 315 315 315 314 313 314 315 317 318 319 316 304 315 314 311 311 310 314 319 318 317 316 311 309 312 310 305 303 300 308 314 322
319 318 318 318 317 317 317 317 316 316 315 315 315 315 315 315 314 313 312 312 314 318 318 321 314 310 304 325 316 316 312 310 311 313 316 321 312 307 307 303 298 299 297 299 303 315 321
319 319 318 318 317 317 317 317 316 316 315 315 314 314 314 313 313 311 311 311 313 317 320 323 321 307 309 310 319 315 312 313 312 313 312 312 306 302 299 297 292 296 296 299 301 308 316
320 319 318 317 317 317 317 317 316 316 315 315 314 314 314 313 311 310 307 301 301 299 310 308 309 309 310 314 321 315 316 312 312 307 301 304 299 299 299 300 302 301 300 300 305 311 313
318 318 317 318 317 317 317 317 316 316 315 315 314 313 313 312 311 309 305 301 303 303 294 304 306 309 314 314 311 316 316 308 306 301 301 299 298 302 305 304 302 301 300 300 304 308 312
317 317 317 317 317 317 316 316 316 315 314 314 314 313 312 311 309 304 299 299 306 304 292 298 304 303 304 307 305 308 312 309 305 301 301 298 301 307 306 304 301 300 298 300 300 305 314
317 317 316 316 316 316 316 315 314 314 314 314 313 313 311 309 301 301 301 306 307 305 288 294 298 302 304 304 300 311 315 311 306 302 303 300 306 305 304 303 302 294 304 304 303 300 297
317 316 315 315 315 315 314 314 314 314 314 313 313 312 310 309 299 299 304 305 306 297 285 304 302 308 304 301 303 306 313 309 305 304 302 299 303 303 303 304 305 300 305 304 304 300 296
316 315 315 315 315 314 313 313 313 313 313 313 312 311 309 303 299 302 305 304 299 289 284 298 305 300 298 299 301 306 308 311 310 305 305 303 307 306 305 307 307 307 301 301 300 300 293
315 314 314 314 314 313 313 313 313 312 312 312 310 308 307 306 296 302 304 299 287 283 299 299 297 299 297 297 299 300 305 304 301 293 296 303 304 306 306 301 304 301 293 289 289 290 292
313 314 314 313 313 313 313 313 312 312 312 310 308 306 305 304 303 303 300 290 282 293 293 299 297 299 297 297 298 299 298 302 304 296 293 294 294 301 306 304 298 297 296 291 285 286 291
314 314 313 313 313 313 313 312 312 311 311 309 306 299 300 299 304 302 293 284 285 291 296 295 296 293 294 298 296 297 297 298 302 303 294 290 294 303 306 306 305 299 292 299 290 291 290
313 313 313 313 312 312 312 312 312 311 310 308 300 295 297 304 304 298 288 286 289 297 297 297 290 293 290 293 293 294 293 300 301 304 304 297 290 299 305 305 306 300 300 292 288 286 287
311 311 312 312 312 312 312 312 311 311 309 308 296 290 298 302 299 293 286 286 293 298 299 295 293 292 293 293 294 293 294 299 303 303 304 301 295 296 300 299 300 299 297 293 294 290 289
311 312 312 312 312 312 312 312 311 310 307 301 292 285 298 302 286 286 288 291 296 295 299 297 297 296 294 294 293 294 294 297 304 303 297 300 297 294 297 302 306 305 299 295 293 288 290
311 312 311 311 312 312 312 311 310 309 308 296 288 288 298 295 282 284 288 292 294 294 294 294 293 294 296 292 290 295 297 303 302 301 297 301 295 292 291 295 297 298 301 301 291 290 292
311 311 311 311 311 312 312 311 309 309 308 297 289 284 287 290 291 287 286 289 289 295 294 295 293 295 293 291 292 292 294 300 301 300 309 300 296 293 293 296 297 295 300 300 299 294 294
310 310 310 310 310 311 311 311 310 309 308 300 289 285 287 282 285 287 289 289 288 287 292 293 290 292 291 287 290 290 295 296 299 303 298 294 287 293 297 301 302 300 300 301 298 300 296
311 310 310 311 311 311 311 311 310 309 307 298 291 289 290 288 286 285 288 287 287 288 290 289 289 292 291 287 290 290 293 290 291 295 293 293 288 292 295 301 302 300 302 303 302 302 300
310 311 310 311 311 311 311 311 310 309 304 296 299 299 293 290 285 282 283 286 287 290 292 294 292 291 290 291 295 296 296 295 294 292 291 290 288 289 288 297 300 296 301 302 301 303 302
311 310 310 310 311 311 310 310 310 309 305 297 296 298 290 285 286 286 287 288 289 289 289 292 292 290 294 299 298 295 296 295 295 294 296 291 291 289 288 292 290 299 307 306 302 304 304
310 310 310 310 310 310 310 310 310 310 309 301 302 297 290 285 288 288 288 288 289 290 288 291 293 293 296 295 288 285 288 292 294 296 297 298 295 288 287 288 294 301 303 303 300 300 307
310 311 310 310 310 310 310 310 310 310 309 301 299 301 297 287 286 290 287 288 285 285 288 291 294 296 295 290 288 282 282 288 291 295 299 299 298 293 291 288 289 297 306 313 309 299 316
310 310 311 310 310 310 310 310 310 310 309 301 299 302 297 289 292 289 286 286 288 286 285 288 292 290 293 290 286 282 282 292 287 290 293 294 293 291 292 292 293 303 311 312 300 300 316
310 310 310 310 309 309 309 309 309 309 309 301 297 302 298 292 293 295 294 290 291 289 286 288 290 289 288 286 288 285 284 290 290 296 295 294 294 295 297 292 291 313 312 302 306 316 316
310 310 310 310 310 309 309 309 309 308 308 307 294 299 303 296 292 298 298 298 297 295 290 289 291 292 293 288 290 292 288 292 289 289 301 295 300 297 301 299 309 314 309 318 323 323 324

GFSGBSN_sfc_thetae_021.txt.gz
Theta_e
317 317 317 317 317 317 316 316 316 316 315 315 315 315 315 315 315 315 315 315 315 315 315 316 317 317 311 303 302 310 351 348 343 326 318 313 308 306 301 303 309 315 316 317 323 323 330
318 318 317 317 316 316 316 316 315 315 316 316 316 316 316 316 316 316 316 316 315 315 315 316 317 317 305 292 307 312 312 329 329 324 318 313 310 308 305 305 305 310 311 313 316 318 325
318 318 317 317 317 317 316 316 316 316 315 316 316 316 316 316 316 316 315 315 315 314 315 317 317 315 309 298 308 311 314 318 322 321 313 314 313 308 306 304 309 310 306 308 310 312 320
319 318 318 318 317 317 317 317 317 317 316 316 316 316 316 316 316 315 314 313 313 315 318 318 319 313 298 311 312 308 308 306 318 318 315 314 314 308 306 309 307 303 301 299 306 309 319
320 319 319 318 318 317 317 317 317 317 316 316 316 315 315 315 314 313 312 312 314 318 319 320 313 307 299 321 315 313 309 307 308 309 314 321 310 305 305 302 297 297 295 298 302 308 317
318 318 318 317 317 317 317 317 316 316 316 315 315 315 314 314 313 312 310 312 312 316 321 320 320 304 307 306 318 315 310 311 308 307 309 309 305 299 297 296 292 295 295 297 299 308 315
317 317 316 316 316 317 317 316 316 316 315 315 315 314 314 313 312 310 307 302 299 298 305 305 306 306 307 311 317 314 310 308 308 306 300 303 299 295 298 299 300 300 298 298 302 308 311
317 316 316 315 316 316 316 315 315 315 315 314 314 313 313 312 310 310 302 297 300 298 292 301 301 303 309 310 305 308 312 303 303 298 300 298 297 301 304 302 301 299 297 298 300 306 306
315 315 315 315 315 315 315 314 314 314 314 314 313 313 312 311 309 303 299 298 304 299 290 296 300 300 301 305 303 305 308 305 302 299 299 297 298 304 303 301 299 296 296 298 298 303 306
315 316 315 314 315 314 314 314 313 313 313 313 313 312 311 309 299 300 299 303 303 302 287 294 296 299 302 304 300 309 313 308 303 301 300 297 303 303 301 300 300 293 300 301 300 297 293
315 315 314 314 314 313 313 313 313 313 313 312 312 311 309 308 297 297 300 303 304 295 284 303 298 305 301 299 300 303 312 307 302 301 300 297 300 300 299 301 302 299 303 301 301 296 293
313 313 313 314 314 313 313 313 313 312 312 312 311 310 309 302 297 300 303 302 296 288 283 297 301 297 296 297 299 303 305 308 308 303 301 301 305 304 302 304 304 305 300 297 296 294 289
313 313 313 313 313 313 313 312 312 312 312 311 309 307 306 305 295 300 302 296 285 282 297 296 294 296 295 295 297 299 300 300 299 295 296 299 302 302 305 300 302 300 292 287 285 287 289
312 313 313 313 312 312 312 312 312 312 311 310 307 306 303 303 300 301 296 288 280 291 290 296 296 296 293 295 295 296 299 298 303 296 295 295 292 301 303 300 298 295 295 286 282 283 288
312 312 312 312 312 312 312 312 311 311 310 309 306 299 296 299 303 299 290 282 284 288 295 294 295 291 291 295 295 295 292 300 303 299 294 291 293 301 306 304 303 295 293 297 288 288 286
311 311 312 312 312 312 312 312 311 311 310 308 299 293 293 302 300 295 287 284 287 295 295 295 288 292 288 291 292 292 292 296 297 303 298 295 289 296 303 304 303 301 299 291 285 285 285
311 311 311 312 312 312 312 312 311 310 309 307 292 288 295 299 295 290 283 284 291 296 297 292 290 289 290 291 292 291 292 297 301 300 300 294 292 294 297 296 297 295 295 290 291 288 288
311 311 312 312 312 312 312 311 310 309 307 300 289 283 296 297 285 283 283 287 294 294 296 294 294 292 291 292 290 290 292 296 302 301 295 296 288 292 294 299 303 300 299 293 290 287 286
311 312 312 312 312 312 312 311 310 308 307 295 286 285 296 293 281 281 286 290 293 292 291 292 291 292 294 290 287 293 294 301 301 298 297 297 289 285 288 291 295 295 297 299 294 290 293
311 311 311 312 312 312 311 311 310 308 308 297 288 283 286 288 287 284 284 286 288 294 293 292 291 294 292 290 291 290 291 299 298 298 306 296 288 288 287 289 294 294 298 299 297 292 294
310 311 311 311 311 312 312 311 310 309 307 297 290 283 285 281 284 284 286 286 287 286 293 293 289 291 290 283 288 288 293 294 296 301 296 291 285 288 291 294 296 296 296 299 295 298 294
310 311 311 311 311 312 311 311 310 309 307 298 290 289 291 287 288 287 285 285 287 287 288 288 289 290 289 286 287 285 289 289 289 293 291 290 287 288 289 296 297 296 298 299 300 300 298
310 310 310 310 310 311 311 311 310 308 304 295 296 298 292 289 288 285 284 284 285 288 291 292 290 289 287 290 292 292 293 293 291 289 288 288 287 286 284 292 293 291 297 299 300 301 300
310 310 310 310 311 310 310 311 311 309 304 296 295 297 291 284 286 287 287 287 287 287 287 290 291 289 291 295 295 293 290 291 292 292 293 287 287 287 284 287 284 296 303 304 301 301 300
310 310 310 310 310 310 310 310 310 310 309 298 300 298 292 285 287 288 288 287 288 288 287 287 290 292 294 292 286 283 284 285 289 292 291 292 289 285 284 284 291 297 302 301 298 298 303
309 310 310 309 309 310 310 310 310 310 309 299 297 297 295 288 287 290 287 288 285 285 286 289 293 293 292 287 285 278 278 285 284 291 293 292 293 291 285 284 285 294 309 313 302 297 310
310 309 310 310 309 310 310 310 310 310 309 299 296 298 297 290 292 290 286 285 289 285 284 286 287 289 290 283 282 279 280 288 283 286 287 288 289 288 288 286 291 305 312 314 295 298 314
310 310 310 310 309 309 310 310 310 309 309 302 297 299 295 292 292 294 293 290 290 289 285 286 287 288 286 284 284 283 282 285 285 289 289 291 290 289 289 288 286 312 313 305 308 316 315
310 310 310 310 310 309 310 310 309 309 309 307 298 300 301 296 294 297 297 297 295 294 291 291 288 287 292 287 287 287 287 287 285 283 294 289 296 293 296 295 310 313 312 319 320 317 318

GFSGBSN_sfc_thetae_024.txt.gz
Theta_e
318 318 318 318 318 317 317 316 317 317 316 316 316 316 316 316 316 316 316 316 316 315 315 316 316 317 310 301 299 335 349 345 351 329 330 323 328 316 304 310 317 317 319 318 320 320 327
319 319 318 318 317 317 316 317 317 317 317 317 317 317 317 317 316 316 316 316 316 314 315 316 317 316 303 289 304 310 337 338 340 326 316 313 312 310 304 303 306 307 313 313 311 311 318
320 319 318 318 317 317 317 316 316 316 316 316 316 316 316 316 316 316 316 315 314 314 315 317 318 313 306 295 306 307 323 322 327 322 313 313 311 309 306 302 306 306 304 307 308 309 316
318 317 317 317 317 317 317 316 316 316 316 316 315 316 316 315 316 315 314 313 314 315 318 320 319 310 295 307 310 307 306 308 322 319 312 315 312 306 303 306 305 301 299 297 304 308 315
318 318 317 317 316 316 316 316 315 315 315 315 315 315 315 315 314 313 311 312 315 321 320 320 310 304 296 317 312 309 306 304 309 314 314 318 310 304 303 299 296 295 294 297 301 307 312
317 317 316 315 314 316 315 315 315 315 314 314 314 314 314 314 313 311 310 312 313 319 318 318 317 301 306 305 314 314 307 308 305 307 307 308 303 298 295 295 290 293 293 295 298 305 312
315 315 315 314 314 314 314 314 314 314 314 314 314 313 313 312 311 309 307 299 296 296 297 305 305 304 307 309 312 309 308 306 306 302 298 301 297 295 296 297 299 299 297 297 300 306 310
315 315 314 313 313 313 313 313 313 313 313 313 313 312 312 311 310 309 300 297 297 296 291 299 299 301 309 306 303 306 309 301 300 297 300 296 297 300 302 300 300 298 296 296 299 304 301
314 314 313 313 314 313 313 313 313 313 313 313 312 312 311 310 309 300 297 297 301 297 288 295 299 299 300 302 301 302 305 302 299 297 299 298 297 304 303 299 297 295 296 296 297 301 302
313 314 314 314 313 313 313 313 313 313 313 312 312 312 310 308 298 298 295 299 300 300 285 292 294 298 302 301 297 308 308 305 300 299 297 296 301 302 299 299 299 291 299 300 299 295 291
314 314 313 313 313 313 313 313 313 312 312 312 312 311 309 308 296 295 297 301 301 292 283 301 295 302 300 298 298 301 309 305 299 298 298 296 298 298 298 299 300 298 301 299 298 294 291
313 312 312 312 312 312 312 312 312 312 312 311 311 310 308 301 296 298 300 300 293 288 282 295 297 295 294 295 297 301 304 306 305 300 299 300 302 302 300 302 302 303 298 295 293 291 287
312 311 311 312 312 312 312 312 312 311 311 310 309 308 306 304 294 299 299 293 284 281 295 293 292 295 293 293 295 296 298 299 298 292 292 297 300 300 302 298 299 298 293 286 285 285 288
311 312 312 312 312 312 312 312 312 311 311 309 307 306 301 302 300 298 294 287 279 289 288 295 295 294 291 294 294 296 294 296 299 296 293 292 290 299 301 299 296 294 292 286 282 282 288
312 312 312 312 312 312 312 312 311 311 310 308 306 296 295 297 301 297 290 280 281 285 293 291 293 290 290 293 293 293 291 294 300 295 293 291 293 301 302 301 302 293 293 294 286 286 285
312 312 312 312 312 312 312 312 311 311 310 308 297 294 292 300 298 294 287 282 285 293 294 292 286 290 287 289 290 290 290 296 296 300 296 293 290 296 303 303 301 296 297 290 285 283 281
311 311 312 312 312 312 312 312 311 310 309 306 291 287 293 299 295 289 279 282 288 294 295 290 288 287 289 288 289 288 291 296 299 298 299 293 289 290 297 297 298 293 292 289 291 287 284
311 312 312 312 312 312 312 312 311 309 307 298 287 282 294 295 284 282 279 285 291 292 294 292 292 291 290 291 289 289 291 295 300 299 294 295 287 289 291 296 301 303 297 291 290 287 285
311 312 312 312 312 312 312 312 310 308 307 294 285 287 294 292 278 279 285 287 290 290 290 289 289 292 292 289 286 292 292 299 298 296 295 295 287 283 286 292 294 292 298 294 297 289 290
311 311 311 312 312 312 312 311 310 308 308 295 286 283 285 288 284 282 284 282 286 293 292 292 290 293 290 288 290 288 291 297 298 299 304 296 286 285 284 287 291 290 294 295 296 293 294
311 311 311 311 312 312 312 311 310 308 307 295 287 282 286 280 282 286 286 283 285 284 290 292 290 290 286 282 286 286 290 292 295 298 294 290 286 287 289 293 294 293 294 295 293 296 293
310 310 310 310 311 311 312 311 310 309 305 294 288 289 291 288 288 287 286 281 283 286 286 286 288 289 289 283 285 283 286 287 288 292 288 288 285 287 288 293 294 292 295 296 297 296 295
310 310 310 310 310 311 311 311 310 309 303 295 297 296 292 289 286 282 282 284 285 286 288 291 289 287 286 288 291 291 290 290 290 288 286 286 286 285 283 290 291 289 294 296 296 297 297
310 310 310 310 310 310 311 312 311 309 304 299 296 296 290 285 287 285 288 287 286 287 286 288 289 287 291 294 294 291 288 289 291 290 290 285 284 286 283 286 282 291 298 300 299 300 300
310 310 310 310 310 310 310 310 311 310 308 297 296 296 292 284 287 287 287 288 287 287 285 287 289 290 292 290 285 281 280 282 286 290 289 290 286 283 282 282 289 293 302 305 302 299 302
310 310 310 310 310 310 310 310 310 310 309 300 297 297 295 288 286 290 287 288 284 284 285 287 291 291 289 285 282 277 276 280 283 287 290 289 290 285 283 282 282 292 308 313 311 296 303
310 310 310 310 310 310 310 311 310 310 309 300 297 299 296 289 291 291 287 286 286 288 285 288 288 287 288 285 282 279 278 286 280 282 281 284 286 282 284 284 288 297 311 315 295 298 315
310 310 310 311 310 310 310 310 310 310 310 303 299 300 297 292 292 293 294 290 289 289 284 289 286 288 289 285 283 284 279 283 281 284 284 282 283 282 284 284 283 309 311 308 310 316 318
310 310 310 310 311 311 310 310 311 311 310 308 298 298 302 295 293 297 296 297 295 294 291 291 289 288 287 286 285 285 282 285 284 280 290 284 289 287 287 288 299 311 312 315 318 315 317

GFSGBSN_sfc_thetae_027.txt.gz
Theta_e
320 319 319 318 319 318 317 317 317 317 316 316 316 316 316 316 316 316 316 317 317 316 316 317 317 317 313 305 302 333 349 347 354 345 337 335 334 331 324 327 326 327 325 325 327 325 323
318 318 318 317 317 316 316 316 316 316 316 315 316 316 316 316 316 316 317 316 315 315 315 316 316 316 307 295 308 325 332 345 346 341 335 335 334 330 318 313 320 318 317 316 316 316 319
318 318 317 316 316 315 315 315 315 315 314 315 315 315 316 316 316 316 315 314 314 314 315 317 317 313 307 301 309 322 336 339 342 335 331 331 328 327 317 309 313 311 307 310 312 315 315
317 317 315 315 315 315 314 314 314 314 314 314 314 314 315 315 315 314 313 313 314 320 319 317 319 313 301 309 312 309 328 322 341 332 327 326 321 326 311 312 310 307 308 305 311 313 315
316 316 315 314 314 314 314 313 313 314 314 314 314 314 314 314 313 312 311 312 316 322 322 320 313 310 300 318 308 310 313 316 329 328 321 322 319 312 310 305 302 305 302 304 307 314 318
316 315 314 314 313 314 314 314 314 314 314 314 314 314 313 313 312 310 310 311 316 320 318 319 314 304 306 306 313 311 312 318 317 318 315 313 311 307 306 303 296 299 300 303 305 311 313
314 314 314 313 313 313 314 313 313 313 314 314 314 313 313 312 310 309 308 307 303 302 302 309 310 306 310 312 319 312 309 310 312 311 304 309 304 301 303 305 305 303 303 304 307 311 312
314 314 313 313 313 312 312 312 313 313 314 313 313 313 312 311 310 309 306 301 298 299 294 302 300 304 310 311 306 310 310 305 305 301 306 304 301 306 307 306 304 302 301 303 306 309 310
313 313 312 312 312 312 312 312 313 313 313 313 312 312 311 310 309 304 302 300 304 304 294 299 301 301 304 306 304 307 308 306 303 302 302 302 304 307 305 304 302 302 301 302 303 307 308
312 313 313 312 312 312 313 313 313 312 312 312 312 311 310 309 303 301 300 303 305 303 293 298 298 302 303 306 302 310 312 309 304 301 303 303 308 305 304 303 304 299 305 304 303 303 300
312 313 313 313 313 312 312 312 312 312 312 312 311 310 308 307 302 300 302 305 305 301 286 301 298 307 305 303 303 304 312 309 304 303 304 301 303 303 302 303 306 302 307 305 305 303 303
312 312 312 312 312 312 312 312 312 312 312 311 310 309 308 304 303 304 305 304 301 292 286 298 300 298 299 302 302 305 306 312 311 304 305 305 308 307 306 308 308 309 305 304 303 303 296
311 311 311 311 312 312 312 312 312 312 311 310 308 307 306 305 299 305 303 300 291 287 298 295 296 299 298 298 299 301 302 303 302 298 298 303 303 307 308 304 307 306 302 296 294 294 294
311 311 312 312 312 312 312 312 312 311 311 309 306 305 303 304 306 303 302 293 285 291 291 297 297 297 296 298 298 299 300 300 306 304 300 297 295 304 307 305 302 303 303 296 290 292 295
310 312 313 313 313 312 312 312 312 311 310 308 305 302 301 303 303 302 297 284 286 290 292 291 295 294 294 297 297 297 298 300 305 305 300 298 298 305 307 308 307 302 300 305 297 297 296
311 312 312 313 313 313 313 312 312 311 310 307 301 297 298 302 302 302 293 285 289 294 294 294 289 292 290 294 295 296 297 299 300 303 304 303 298 305 306 308 307 304 307 297 299 291 290
311 312 313 313 313 312 313 313 312 311 309 305 298 293 299 302 301 295 286 286 289 294 296 292 291 290 292 292 294 293 295 298 299 300 304 302 300 299 305 303 302 301 301 302 302 299 294
311 312 312 313 312 313 313 312 311 309 307 302 295 289 300 300 290 290 286 288 292 292 296 293 294 293 292 293 293 294 294 297 300 302 299 301 299 298 300 307 309 306 304 303 297 297 298
311 312 312 312 312 313 312 312 310 308 306 302 291 290 300 300 284 285 289 288 290 291 292 292 291 294 295 293 290 294 295 300 300 302 299 300 297 296 298 302 304 303 306 305 305 304 299
311 311 311 312 312 312 312 311 310 308 307 302 294 287 293 294 292 286 285 286 286 293 292 293 292 294 292 292 294 291 293 297 298 300 303 301 297 296 296 298 299 297 300 304 303 299 299
311 311 311 311 311 312 312 311 310 309 306 302 295 289 291 285 288 288 289 287 285 286 290 292 290 289 288 287 289 290 292 293 296 299 298 299 293 295 295 296 297 297 298 299 299 302 300
311 311 311 311 311 310 311 312 311 309 304 301 293 291 293 288 290 288 288 286 285 287 287 286 287 289 289 287 288 287 290 291 291 296 295 297 292 294 292 295 297 295 298 299 299 300 300
311 311 311 311 311 311 311 311 310 309 305 300 300 299 292 288 289 286 286 287 287 289 290 291 289 287 287 289 293 293 294 294 293 292 292 292 292 290 288 293 293 292 297 299 300 303 302
310 310 311 311 311 311 311 311 311 309 306 304 302 298 291 286 288 287 288 287 286 288 287 290 291 289 292 296 296 296 295 294 294 293 295 291 292 292 288 290 284 298 304 303 302 304 306
310 310 310 310 310 311 311 311 311 311 308 304 304 298 292 286 289 288 288 288 289 290 289 289 292 294 297 294 289 286 287 289 291 292 293 295 291 288 285 287 292 295 299 306 306 304 312
310 310 310 310 310 310 311 311 311 311 310 306 304 304 297 289 288 291 288 288 286 285 287 290 295 297 296 292 288 281 280 284 284 290 295 293 294 289 288 284 284 297 302 307 314 299 318
309 310 310 310 310 310 310 311 311 311 310 305 304 305 298 290 292 293 288 288 291 288 287 289 291 291 296 289 284 281 282 287 282 283 287 287 288 285 286 285 290 299 305 318 300 303 320
310 310 311 311 311 310 310 311 311 311 311 307 302 304 300 293 293 295 295 291 291 290 285 290 289 291 290 286 285 285 285 287 286 288 287 287 286 284 287 284 282 301 306 299 312 321 322
310 310 310 310 311 311 311 311 311 311 311 311 300 303 304 296 295 300 299 300 298 296 291 291 290 291 292 287 288 287 286 288 287 283 293 286 290 290 291 290 300 305 307 318 323 322 323

GFSGBSN_sfc_thetae_030.txt.gz
Theta_e
319 318 317 316 316 316 316 315 315 315 315 315 315 315 316 316 315 316 316 317 316 315 316 316 317 317 317 309 307 320 345 340 340 331 327 328 330 327 322 327 328 328 326 326 328 327 325
318 317 316 315 315 315 315 314 314 314 314 314 315 315 316 316 316 316 316 316 315 314 315 317 317 316 312 302 314 316 327 329 334 331 327 330 329 330 324 324 325 323 326 325 323 321 322
317 316 314 314 314 314 314 314 314 314 314 314 315 315 315 316 316 316 315 314 313 315 319 319 317 317 311 309 313 317 329 333 337 334 326 331 332 330 323 319 320 322 312 315 316 318 318
316 315 314 314 314 314 314 314 314 314 314 315 315 315 315 315 315 315 313 313 314 320 321 318 319 316 309 316 318 320 328 332 339 337 330 332 330 331 321 318 314 313 313 310 318 318 318
314 314 313 314 313 314 314 313 313 314 314 314 314 314 314 314 314 313 311 312 317 322 320 320 317 315 309 317 309 314 328 325 335 332 332 330 328 321 321 314 309 311 308 312 315 318 319
314 314 313 314 313 313 314 313 313 314 314 314 314 313 313 313 312 311 310 312 319 321 321 322 318 309 311 309 314 312 319 321 329 325 319 319 315 311 313 310 303 307 307 312 313 317 317
314 314 313 313 313 313 313 313 313 313 314 314 313 313 312 312 311 309 310 312 311 312 309 313 315 311 312 315 319 311 313 320 323 320 309 312 307 304 307 310 311 312 310 310 314 318 315
313 313 313 313 313 313 312 313 313 313 313 313 313 312 312 311 310 310 312 305 301 301 297 306 306 310 318 317 312 312 314 313 312 309 312 308 304 309 310 310 308 308 307 308 314 315 314
313 312 312 312 312 312 312 313 313 313 313 313 313 312 311 310 309 309 308 304 310 308 299 305 308 307 309 312 310 310 312 312 309 308 307 305 307 310 309 308 306 307 306 308 309 313 314
312 313 313 313 313 313 313 313 313 313 313 312 312 311 310 308 308 308 305 310 311 309 297 302 303 307 309 311 307 317 312 311 308 306 307 307 311 308 307 305 307 304 309 308 308 308 304
312 312 313 313 313 313 313 313 313 313 312 312 312 310 308 307 307 304 306 310 310 307 289 305 303 312 310 309 312 310 316 310 305 306 308 304 306 306 305 306 309 305 309 308 307 306 307
312 311 313 313 313 313 313 313 313 313 312 312 311 309 307 308 309 308 310 310 308 295 288 301 303 302 303 306 307 311 311 313 311 308 309 308 312 310 309 310 310 310 308 307 307 305 299
311 312 312 312 313 313 313 313 313 312 312 311 309 307 308 308 303 309 309 306 293 289 301 298 299 303 303 303 304 306 306 305 305 301 302 306 307 310 311 307 310 308 306 299 297 297 297
311 312 313 313 313 313 313 313 313 312 311 309 307 305 307 308 310 309 306 297 286 294 295 300 299 301 300 303 303 304 304 303 307 308 305 301 298 307 311 309 306 306 306 300 294 296 299
311 312 313 313 313 313 313 313 312 311 310 308 305 308 307 307 309 309 300 289 289 293 296 295 298 298 301 302 302 303 303 304 307 310 304 303 302 309 310 311 311 307 304 309 302 304 300
311 312 313 313 313 313 313 313 312 311 310 307 306 304 304 308 309 306 295 288 292 296 296 297 293 296 295 298 299 301 302 304 306 310 311 308 303 308 309 311 311 309 311 302 303 296 295
311 311 313 313 313 313 313 313 311 310 309 307 305 299 304 308 307 299 289 290 292 296 297 294 293 294 296 296 298 299 301 301 304 304 309 309 307 307 309 306 305 306 305 306 306 303 298
311 313 313 313 312 313 313 313 311 309 307 306 302 293 305 307 296 295 290 291 293 294 297 296 296 295 295 297 297 298 299 301 304 306 304 309 307 304 305 310 311 310 307 307 301 301 303
312 312 312 312 312 312 313 312 311 309 308 305 298 298 306 304 289 290 292 292 293 293 293 293 294 297 297 296 294 297 299 301 302 304 304 307 304 300 303 307 310 307 308 309 308 308 304
311 311 311 312 312 312 312 311 310 309 308 306 299 292 299 300 299 292 290 290 289 294 293 294 294 295 295 294 297 295 297 299 301 301 304 304 306 304 300 304 307 305 307 308 307 303 304
311 311 311 311 311 312 312 311 311 309 307 306 300 293 295 290 292 292 291 291 288 288 293 294 292 290 289 290 292 293 296 298 300 302 303 303 301 302 306 302 302 306 306 307 306 307 304
311 311 311 311 311 311 312 312 311 309 307 303 295 292 297 293 294 290 290 289 288 289 289 289 288 290 290 288 289 287 292 296 296 300 299 301 298 300 299 302 301 300 304 305 306 308 308
310 311 311 311 311 311 312 312 311 310 306 302 305 303 297 290 292 290 289 290 288 290 292 292 292 291 290 291 295 296 298 298 297 296 296 297 297 296 296 301 300 297 302 304 306 308 307
310 310 311 311 311 311 311 312 312 311 307 306 303 303 293 288 289 290 290 290 289 290 289 293 293 291 295 300 299 299 298 297 297 297 299 296 296 296 295 298 290 303 310 308 306 308 310
310 310 310 311 311 311 311 311 312 311 310 305 306 302 295 288 291 290 291 289 291 292 292 292 295 297 300 297 292 290 291 292 293 296 296 298 296 293 291 293 298 301 303 304 304 306 311
310 311 311 310 311 311 311 311 312 311 310 307 305 306 300 291 291 293 290 292 288 288 292 293 296 300 298 293 291 285 284 287 288 291 297 296 298 293 293 290 289 301 306 309 310 302 313
310 310 311 310 310 311 311 311 311 312 311 308 304 306 299 292 295 295 291 290 293 291 290 291 293 293 297 291 287 286 285 290 285 287 291 291 292 289 290 289 295 304 307 315 300 310 321
310 310 311 311 311 311 311 311 312 312 312 309 304 306 300 293 295 298 298 294 293 291 287 291 291 294 290 287 288 288 287 290 289 291 290 291 289 289 290 288 287 303 303 299 312 318 320
310 310 311 311 311 311 311 311 312 312 312 312 303 305 305 297 296 303 303 304 300 298 293 293 291 292 296 292 292 292 290 292 291 286 296 288 293 292 293 293 302 305 304 309 312 311 314

GFSGBSN_sfc_thetae_033.txt.gz
Theta_e
317 316 316 315 315 315 315 315 315 316 315 315 315 315 316 316 316 316 317 317 316 315 315 316 317 318 318 313 311 329 351 342 326 328 322 328 327 330 324 326 328 327 329 330 330 328 327
317 315 315 315 315 315 315 315 315 315 315 315 315 316 316 316 316 317 316 316 315 314 316 318 319 318 316 309 322 321 325 327 324 328 321 326 327 331 327 326 326 329 329 328 329 328 327
315 315 314 315 314 314 314 314 314 314 314 314 315 316 315 315 316 316 315 314 314 317 321 322 321 318 316 315 321 318 326 326 329 328 321 326 328 329 329 324 329 328 320 326 327 325 322
315 314 314 314 314 314 314 314 313 314 314 315 315 315 315 315 315 314 314 313 314 322 320 321 320 318 314 324 327 318 325 327 331 332 327 327 328 328 328 328 320 321 322 314 321 322 322
314 314 314 314 314 314 314 314 313 314 315 314 315 315 314 314 314 313 312 312 316 322 319 320 320 318 315 320 315 322 323 326 330 332 332 329 328 324 325 319 313 314 311 313 316 323 321
314 314 314 314 313 314 314 314 314 314 314 314 314 314 314 313 312 311 311 313 320 320 323 324 323 314 317 314 318 318 322 326 328 328 326 324 323 317 320 317 306 309 310 314 315 320 320
314 314 314 313 313 313 313 313 313 314 314 314 314 313 313 312 311 310 312 315 312 316 319 316 316 314 317 320 319 315 323 323 327 324 316 321 314 312 313 319 317 315 313 312 318 321 319
313 313 313 313 313 313 313 314 314 314 314 314 313 313 312 311 310 310 313 307 306 306 300 308 308 309 316 320 314 313 320 315 321 315 316 313 310 313 314 313 314 314 312 312 317 320 319
312 312 313 314 314 314 314 314 314 313 313 313 313 313 311 310 310 310 310 307 312 312 301 304 309 308 310 318 314 315 313 315 316 315 311 308 310 313 310 309 309 310 310 312 312 317 319
312 313 314 314 314 314 314 314 314 314 313 313 313 312 310 308 308 310 307 310 312 312 297 302 306 309 311 313 311 319 314 314 314 313 314 310 314 310 309 308 309 305 312 312 311 311 308
312 313 314 314 314 314 314 314 314 314 313 313 312 311 309 306 310 308 308 311 312 309 289 307 307 315 314 309 313 313 319 311 310 310 313 309 310 309 308 309 311 308 312 310 311 310 310
313 313 313 314 314 314 313 313 313 313 313 312 311 310 308 309 311 309 311 310 310 296 289 303 306 305 306 309 311 316 313 313 314 310 312 311 315 312 311 312 312 313 309 309 310 308 302
312 313 313 314 314 314 313 313 313 312 312 311 309 307 308 310 305 310 311 306 293 288 303 301 301 306 306 306 307 311 310 305 304 302 304 308 309 312 313 310 312 310 307 300 298 299 299
312 313 314 314 313 313 313 313 312 311 311 309 307 305 311 310 311 310 308 298 286 294 297 302 301 301 300 306 307 308 308 306 307 307 305 303 301 309 313 310 309 308 307 301 295 297 300
312 313 313 313 313 313 313 313 312 311 310 308 306 312 310 309 310 309 301 290 291 295 297 295 298 299 301 305 306 307 306 306 309 308 303 305 304 312 313 313 313 309 305 310 306 307 303
312 313 313 313 313 313 313 313 312 311 310 307 309 308 310 310 311 307 297 291 293 296 296 296 292 299 298 302 303 305 305 309 309 311 314 311 306 312 312 313 313 312 312 304 305 299 299
312 312 313 313 313 313 313 313 312 311 309 307 309 302 307 310 310 301 291 292 294 297 297 294 292 293 294 295 298 303 305 306 308 309 313 312 310 310 312 308 307 308 308 308 308 306 301
312 313 313 313 313 313 313 313 311 310 307 307 306 297 309 310 297 300 292 293 294 295 297 296 296 296 294 295 295 298 301 305 306 308 308 312 310 305 308 312 314 312 309 310 303 304 306
312 313 313 313 313 313 313 312 311 309 309 307 302 301 310 306 292 293 294 294 295 294 293 293 293 296 298 295 292 297 300 305 305 307 307 310 307 303 307 309 312 309 310 311 311 310 306
312 312 312 313 313 313 313 312 311 310 309 308 302 296 300 302 300 294 292 291 290 295 294 295 294 295 295 294 297 296 297 301 304 304 307 308 308 306 304 307 309 306 308 310 310 306 306
312 312 312 312 312 313 313 312 311 310 309 307 301 296 298 292 294 294 294 292 289 289 294 295 293 293 292 290 291 291 297 300 303 304 307 307 303 308 309 311 310 309 308 309 308 309 306
311 311 312 312 312 313 313 313 312 311 308 304 297 295 298 296 296 293 293 292 290 292 292 291 291 292 293 291 293 290 294 295 297 301 302 306 301 306 306 309 307 306 310 309 309 310 310
311 311 311 312 313 313 313 313 312 311 308 302 305 303 298 294 294 291 292 292 291 293 294 295 294 292 291 293 296 298 299 299 299 298 298 300 302 303 300 307 306 301 307 309 311 312 312
311 311 311 311 312 312 313 313 312 311 309 307 303 299 294 290 291 292 292 292 292 292 291 294 295 293 297 301 300 300 299 299 299 299 301 298 300 301 298 303 295 307 313 312 310 312 314
311 311 311 311 311 312 312 312 312 312 311 307 306 299 294 291 292 294 293 293 293 294 294 294 296 298 301 298 293 291 292 294 296 298 299 300 299 297 295 298 303 306 309 310 308 308 314
311 311 311 311 311 312 311 312 313 312 311 308 306 306 297 290 293 296 293 295 290 291 294 294 300 302 299 294 290 287 286 291 291 294 299 299 300 296 297 294 295 305 310 312 313 304 315
311 311 311 311 311 311 312 312 312 313 312 309 307 307 299 291 296 297 293 294 296 294 291 295 296 295 299 292 288 288 287 293 289 290 292 293 294 292 293 294 300 308 312 314 301 311 318
311 311 311 311 312 311 311 312 312 312 313 310 307 308 300 294 295 299 299 296 296 295 291 295 294 296 293 290 290 290 290 291 291 294 293 293 292 292 294 292 291 308 307 304 312 319 318
310 311 311 311 311 310 311 312 312 312 313 312 305 308 307 298 297 305 305 305 303 302 297 295 295 294 299 293 295 294 291 293 292 288 298 290 296 295 296 296 306 309 308 311 311 311 313

GFSGBSN_sfc_thetae_036.txt.gz
Theta_e
316 316 316 315 316 315 315 315 315 315 315 315 315 316 316 316 316 316 317 317 316 316 316 317 317 318 316 312 311 325 351 345 325 318 320 320 323 326 325 327 327 325 326 329 329 329 331
316 316 315 315 315 314 314 314 314 315 315 316 316 316 316 316 316 316 317 316 316 315 318 321 319 318 313 308 325 327 330 329 321 318 320 320 323 327 328 327 324 327 328 328 330 329 326
315 315 315 315 315 314 314 315 314 315 315 316 316 316 316 316 316 316 316 315 314 315 320 324 322 318 312 313 326 322 324 327 324 322 317 320 325 325 328 325 328 325 322 326 327 326 324
315 315 315 315 315 315 315 314 314 315 315 315 316 316 315 316 315 315 314 314 314 317 324 321 324 318 311 328 326 325 318 321 324 325 323 323 324 324 325 329 325 321 322 316 324 326 325
315 315 315 315 315 315 315 315 315 315 315 315 315 315 315 315 314 313 312 312 314 320 321 321 319 316 314 327 322 324 322 320 323 326 325 325 322 318 321 319 316 318 312 316 319 325 322
314 314 315 314 314 315 315 315 315 315 315 315 315 315 314 314 313 312 311 312 319 320 321 323 323 315 317 316 321 323 324 320 320 323 321 320 318 312 314 315 308 311 310 315 315 319 320
314 313 314 314 314 315 315 315 315 315 315 315 315 314 313 313 311 310 311 313 306 313 309 310 315 313 317 323 322 318 322 318 322 321 314 319 312 308 311 316 317 316 312 311 316 320 317
313 313 314 314 315 315 315 315 315 315 315 315 314 313 313 312 311 310 310 306 304 306 299 306 307 308 313 319 315 316 320 313 316 314 318 315 310 314 316 316 315 315 312 311 314 319 319
313 314 315 315 315 315 315 315 315 315 314 314 314 313 312 310 310 311 310 306 310 310 299 301 306 306 307 311 311 315 315 314 313 314 315 311 313 317 315 314 311 314 312 311 311 315 319
314 315 315 315 315 314 314 314 314 314 313 313 313 312 311 309 308 311 307 310 311 310 294 299 305 308 308 309 307 319 317 317 314 312 315 313 317 314 313 311 312 306 315 314 313 311 307
314 315 315 314 314 314 314 314 314 313 312 312 312 311 309 307 308 308 307 310 310 308 285 307 307 316 312 305 311 310 321 314 310 310 315 312 310 310 309 310 311 307 312 312 311 310 309
314 314 314 314 314 314 314 314 313 313 312 312 311 309 308 310 311 311 310 310 307 293 286 302 308 306 307 307 307 312 314 316 315 312 314 315 318 313 311 312 311 312 309 309 309 308 302
313 313 313 314 314 314 313 313 313 312 311 310 309 307 307 311 306 310 310 305 291 287 299 297 298 301 302 304 305 306 309 308 304 302 305 310 312 315 314 309 312 310 306 299 298 299 298
313 314 314 314 314 313 313 313 313 312 311 310 307 306 313 313 312 310 306 297 286 292 294 299 297 298 298 303 305 306 306 306 307 305 304 302 300 310 313 310 307 307 306 299 294 295 298
313 314 314 314 314 313 313 313 312 311 310 309 306 313 312 312 311 309 301 290 290 293 296 293 295 295 297 301 301 304 305 306 308 306 303 303 303 312 313 312 312 307 303 309 303 304 300
313 313 314 314 314 313 313 313 312 311 310 307 307 309 310 312 311 306 297 291 294 297 296 295 289 292 289 293 294 297 303 308 308 309 310 308 303 310 311 313 312 310 312 302 304 297 297
313 313 313 314 314 314 314 313 312 311 310 308 308 304 309 312 310 302 293 293 295 297 296 292 290 290 291 290 293 295 299 304 307 308 312 308 306 307 311 308 306 307 307 307 306 304 299
313 314 314 314 314 314 314 313 312 310 308 307 306 299 311 310 297 298 293 295 295 295 298 295 295 293 292 292 291 293 297 301 308 306 304 311 305 302 307 313 313 311 308 309 302 302 305
313 314 314 314 314 314 314 313 312 310 309 306 301 303 310 306 292 293 296 294 295 294 294 294 292 294 295 291 289 294 295 304 305 304 303 306 305 301 303 310 312 308 309 310 310 308 305
313 313 313 313 314 314 314 313 312 310 310 307 303 296 302 302 300 295 293 292 291 297 295 294 294 295 293 291 293 290 293 300 303 304 312 308 305 305 301 306 311 307 307 309 308 304 305
312 312 312 313 313 313 314 313 312 311 310 307 301 298 298 293 295 295 294 293 290 291 294 296 293 292 292 288 289 290 293 296 300 307 305 307 302 306 308 311 311 308 307 308 307 310 306
312 312 313 313 313 313 313 313 312 311 310 304 298 295 298 297 298 295 294 292 291 292 292 291 290 293 293 289 290 289 292 293 294 300 300 304 301 305 305 309 309 308 308 308 309 309 310
312 312 312 312 313 313 313 313 312 311 310 303 304 302 296 293 295 292 293 293 292 294 295 295 293 292 290 293 296 296 297 296 296 295 297 297 300 300 298 306 307 304 308 309 310 311 310
312 312 311 311 312 312 313 313 312 312 310 309 306 300 291 289 293 293 294 295 294 294 292 295 295 293 296 301 300 298 297 297 298 298 300 297 298 300 298 302 295 308 315 313 311 312 313
312 312 311 311 311 312 312 312 312 312 311 310 309 298 293 288 293 294 294 294 295 297 295 295 297 298 301 298 291 290 291 292 294 298 298 300 298 296 296 298 304 307 311 311 309 310 315
311 311 312 312 311 311 312 311 312 312 312 313 308 304 298 290 290 296 294 295 291 293 294 295 300 303 299 293 290 286 285 290 289 292 299 299 300 296 297 294 295 307 312 315 315 304 316
311 311 312 312 311 311 312 312 313 313 312 311 307 307 299 291 295 296 292 293 296 295 293 295 297 296 299 292 289 288 287 294 289 290 291 293 294 293 294 294 301 307 310 314 303 308 320
311 311 311 311 311 311 312 312 312 313 313 311 308 308 300 294 295 299 299 295 297 296 291 296 294 295 295 291 288 289 290 291 292 294 292 293 291 291 294 293 292 309 309 305 313 316 315
311 311 311 311 311 311 312 312 312 312 313 312 305 309 306 298 297 303 302 304 303 302 298 297 295 295 296 292 294 292 290 292 292 288 297 290 295 294 296 297 311 311 308 311 311 310 313

GFSGBSN_sfc_thetae_039.txt.gz
Theta_e
316 316 316 316 316 316 315 315 315 316 316 316 316 317 317 317 317 317 318 318 317 316 317 318 320 318 314 307 307 320 350 349 333 320 312 311 311 316 315 323 326 323 327 329 329 327 327
316 316 316 315 315 315 315 315 315 316 316 316 317 317 317 316 317 317 317 317 316 315 316 320 322 318 309 301 321 321 331 332 325 315 311 312 314 319 319 323 322 325 326 328 328 327 327
315 315 315 315 315 315 315 316 316 316 316 316 316 316 316 316 316 316 316 315 315 315 316 321 323 317 308 303 321 322 326 321 317 315 309 314 318 315 320 318 327 325 321 326 327 326 325
315 315 315 315 316 316 316 316 316 316 316 316 316 316 316 316 315 315 314 313 314 316 317 323 322 316 305 319 319 317 320 321 318 317 314 315 318 313 314 321 322 319 319 313 323 324 325
315 315 316 316 316 316 316 316 316 316 316 316 316 315 315 315 314 313 312 312 317 318 320 321 316 312 306 326 318 321 320 316 319 317 318 319 315 310 311 311 310 313 308 309 315 323 323
314 314 315 315 315 316 316 316 316 316 315 315 315 314 314 314 313 312 311 313 319 317 321 321 320 308 313 311 318 321 321 319 314 315 314 313 310 305 306 305 300 305 306 309 311 319 319
314 314 315 315 315 316 316 315 315 315 315 315 314 313 313 313 312 310 308 303 299 303 302 296 299 303 303 317 318 319 320 318 313 312 306 311 304 301 303 307 309 312 311 308 312 319 315
314 315 315 315 315 315 315 315 315 315 315 314 313 313 312 312 310 310 308 300 299 300 294 301 302 302 306 308 305 312 319 311 306 305 309 307 303 308 309 309 308 310 309 309 311 315 313
314 314 315 315 315 315 315 315 314 314 314 313 313 312 311 310 310 309 305 302 306 304 293 297 300 301 301 304 302 305 312 312 305 305 308 305 308 314 311 307 306 307 307 308 308 311 314
314 315 315 315 315 315 314 314 314 314 313 313 313 312 310 308 306 305 305 306 306 305 288 294 298 303 304 304 300 310 313 311 307 304 309 308 314 312 310 307 308 303 311 312 312 308 301
315 315 315 315 315 314 314 314 314 313 312 312 312 311 309 308 303 303 307 307 306 302 281 302 301 311 305 299 302 305 312 310 304 305 309 307 310 310 307 309 311 307 311 311 311 307 302
315 315 315 315 315 314 314 313 313 312 312 311 311 309 309 307 306 308 308 306 302 287 283 295 299 297 296 299 302 306 306 310 310 306 309 309 317 313 311 313 313 314 308 305 307 304 296
314 315 315 315 314 314 313 313 313 312 311 311 309 307 306 309 302 309 308 301 287 282 296 292 292 295 294 296 300 301 301 300 300 296 299 305 308 314 312 308 311 309 300 291 291 294 293
315 315 315 314 314 314 313 313 313 312 311 309 307 306 310 311 311 310 302 293 283 291 291 295 293 293 291 294 294 295 295 297 304 302 297 297 297 308 313 306 303 304 301 290 285 288 292
315 315 315 314 314 314 314 314 313 312 311 309 307 308 309 312 313 307 296 286 287 290 293 291 291 288 288 292 292 292 292 296 303 306 296 296 298 311 314 312 308 302 298 300 292 294 290
315 315 315 314 314 314 314 314 313 312 311 308 304 305 307 311 309 302 293 289 291 295 293 292 286 288 285 289 289 290 291 298 300 302 303 300 293 306 310 313 311 305 304 295 296 287 287
314 314 314 314 314 314 314 314 313 312 310 308 304 301 307 310 306 298 289 291 293 296 295 291 289 288 287 289 290 288 290 295 300 299 301 299 297 298 305 304 303 301 300 300 295 294 288
314 314 314 314 314 314 314 313 312 310 308 305 302 295 310 310 295 295 290 293 294 293 296 293 293 291 288 289 288 288 289 294 300 299 291 299 296 294 297 306 310 306 302 300 296 291 295
313 314 314 313 313 314 314 313 312 310 309 304 298 300 308 306 289 290 294 292 294 292 293 292 290 291 291 289 286 290 292 298 299 296 295 299 293 292 295 299 304 303 304 303 299 298 295
313 313 313 313 313 313 314 313 312 311 310 305 300 292 299 300 298 293 291 291 290 296 294 294 293 293 290 289 291 289 290 296 297 297 306 302 295 293 292 296 300 300 304 304 301 297 297
312 312 312 313 313 313 314 313 312 311 310 305 299 294 296 290 292 292 293 292 290 290 294 294 291 291 289 285 287 288 291 292 295 299 297 294 290 297 301 304 305 306 304 304 301 301 298
313 313 312 312 312 313 313 313 312 311 310 303 295 294 295 291 293 293 293 291 291 291 292 289 289 291 290 287 287 286 289 289 290 294 291 293 290 296 298 304 306 305 307 306 305 304 303
312 312 312 312 313 313 313 313 312 311 309 301 303 302 295 291 291 290 290 292 292 294 295 295 293 290 288 291 294 294 294 293 292 291 289 290 291 291 291 301 302 298 304 306 305 307 305
312 312 312 312 312 313 313 313 311 312 310 307 305 299 291 287 289 290 291 293 293 293 291 295 296 291 295 299 297 296 294 293 293 293 293 289 290 291 291 296 289 301 309 311 307 308 308
312 312 312 312 312 312 311 311 312 312 312 307 308 298 293 287 291 291 292 292 295 295 293 294 296 298 299 295 289 286 286 288 291 293 293 295 291 288 290 294 298 304 307 306 304 307 313
312 312 312 312 311 311 311 312 312 313 312 310 308 304 297 289 289 294 292 292 290 290 293 294 299 300 297 291 287 282 281 286 287 290 295 295 295 291 292 291 292 300 305 308 309 301 311
312 312 312 311 311 311 312 312 313 313 312 310 308 306 299 291 293 295 291 291 295 294 290 293 294 294 296 289 286 284 284 291 286 287 288 289 291 288 290 290 296 301 305 312 299 301 308
311 311 311 311 311 311 312 312 312 313 313 311 307 308 300 293 295 298 299 295 294 294 290 294 292 293 292 287 287 287 287 289 288 291 291 289 289 289 289 290 289 302 304 298 307 309 308
311 311 311 311 311 312 312 312 312 313 313 312 305 309 307 298 297 302 302 303 301 300 296 297 293 293 294 290 290 289 286 290 288 285 294 288 292 290 292 292 300 302 301 305 306 304 305

GFSGBSN_sfc_thetae_042.txt.gz
Theta_e
316 316 316 315 315 315 315 316 316 316 316 316 316 317 317 317 317 317 317 317 317 316 316 317 319 319 312 304 304 318 346 342 334 323 314 309 306 309 309 315 320 321 325 328 329 328 326
315 316 315 315 315 315 315 315 315 316 316 316 317 317 317 316 317 317 317 316 316 316 316 317 320 318 307 298 315 318 333 329 322 318 312 310 308 310 313 313 318 324 324 327 327 323 325
315 315 315 315 315 315 315 315 315 315 315 316 316 316 316 316 316 316 316 315 315 316 318 316 322 316 308 302 314 315 329 322 322 316 310 311 311 312 313 314 319 320 319 325 323 323 323
315 315 315 315 315 315 315 315 316 316 316 316 316 316 315 315 316 315 314 313 315 320 318 317 323 315 303 317 316 314 315 316 320 316 311 312 312 309 307 311 310 313 316 313 323 324 326
314 315 315 315 315 316 316 316 316 316 315 315 315 315 315 314 314 313 312 312 316 319 321 322 314 310 303 322 316 316 316 317 312 310 311 315 309 306 306 302 299 305 303 309 317 326 324
315 315 315 315 315 316 315 315 316 315 315 315 315 314 314 313 313 311 311 313 316 319 320 321 319 306 308 308 310 313 317 319 312 310 309 307 303 299 301 297 294 299 303 306 309 316 322
314 315 315 314 314 315 315 315 315 315 315 314 314 313 313 312 312 310 307 300 296 292 295 292 294 307 303 305 309 309 316 315 314 307 301 304 299 296 300 301 303 306 306 307 311 316 315
314 314 314 314 315 315 315 315 314 314 314 314 313 313 312 312 310 310 304 295 294 297 289 298 299 298 301 302 298 302 312 308 306 302 304 301 299 304 306 304 304 304 302 306 312 315 311
314 314 314 315 315 315 315 314 314 314 313 313 313 312 311 310 309 303 300 299 302 295 287 294 297 297 298 299 297 298 304 307 304 301 302 301 304 309 307 304 302 302 300 303 306 312 310
314 315 315 315 315 315 314 314 314 313 313 313 312 312 310 309 300 301 301 303 305 297 284 291 296 300 301 300 296 306 306 305 306 300 302 302 308 307 305 304 304 297 305 306 307 305 299
315 315 315 315 315 314 314 314 314 313 312 312 311 310 308 308 298 299 303 303 305 295 278 298 296 304 300 296 299 300 306 304 301 302 300 301 304 306 303 305 307 302 306 305 307 302 299
315 315 315 315 315 315 314 313 313 313 312 311 310 308 309 303 300 303 304 304 295 285 280 292 295 293 294 295 297 300 300 304 307 301 304 302 311 310 309 310 310 310 306 305 304 299 294
315 314 315 315 314 314 314 313 313 312 311 310 308 307 307 307 297 302 304 294 283 279 293 289 288 290 290 290 293 295 294 293 292 291 294 300 302 309 313 307 309 308 299 293 292 290 291
314 315 315 314 314 314 314 314 313 312 311 309 307 306 306 308 305 304 296 288 279 288 286 290 289 289 287 291 291 292 291 289 297 294 292 293 292 303 310 308 305 303 299 291 287 285 292
314 315 315 314 314 314 314 314 313 312 311 308 306 301 302 305 307 302 291 281 281 285 290 288 288 284 285 290 291 290 289 290 295 296 287 288 293 306 309 311 309 303 299 300 289 288 287
314 314 314 314 314 314 313 313 313 312 310 308 300 297 299 307 304 295 287 285 286 291 292 290 283 286 282 286 287 288 288 294 294 297 297 292 287 300 307 309 310 302 302 293 288 285 283
314 314 314 314 313 313 313 313 313 312 310 308 295 293 302 308 298 290 283 284 289 293 294 289 287 285 284 283 285 287 288 292 296 295 296 292 289 294 298 299 302 301 299 294 295 289 286
313 314 314 314 313 313 314 313 312 310 308 303 293 289 302 305 289 286 284 289 293 290 294 291 290 287 284 286 285 286 288 292 298 297 290 294 292 287 294 301 303 308 298 297 294 288 289
313 313 313 313 313 313 313 313 311 310 309 302 292 292 301 297 283 284 289 292 293 292 289 290 288 289 288 284 283 289 291 296 298 295 292 294 292 284 290 293 297 296 303 297 294 292 290
313 313 312 313 313 313 313 312 311 310 309 299 291 286 291 293 291 287 287 289 289 296 293 292 290 290 287 285 286 286 289 295 297 295 298 296 285 285 284 289 295 294 299 302 296 292 293
312 312 311 312 312 313 313 312 311 310 309 299 291 286 289 283 287 289 290 290 289 289 293 292 288 289 286 281 283 284 289 291 293 295 295 291 282 286 287 291 295 297 300 301 297 300 295
311 311 311 311 312 312 313 313 312 310 309 296 289 288 289 291 289 289 289 288 290 291 291 290 289 291 288 283 285 284 288 288 289 292 290 291 284 286 286 296 299 300 304 304 301 301 299
311 311 311 312 312 312 312 312 312 310 307 294 294 295 294 292 290 288 288 289 289 292 294 295 293 290 287 289 292 291 292 293 292 290 289 288 285 282 283 295 300 295 299 303 302 302 301
312 311 312 312 312 311 311 311 312 311 310 304 299 299 292 287 289 290 290 292 292 292 291 293 294 291 295 298 294 292 291 291 292 291 293 288 285 283 283 291 288 299 304 303 304 304 305
312 312 312 311 311 311 311 312 312 312 311 306 305 299 293 287 290 291 292 292 292 293 291 293 295 297 297 291 284 282 284 286 288 292 291 292 289 282 283 290 295 298 299 298 297 299 304
312 312 311 311 311 311 311 312 312 313 312 308 306 304 297 290 289 294 292 292 289 290 291 293 297 297 294 290 285 280 280 284 286 288 293 291 292 285 284 287 288 293 300 307 307 292 303
311 312 311 311 311 311 312 312 313 313 312 308 306 305 299 290 294 294 291 290 293 292 289 293 293 292 293 288 285 283 284 290 285 285 285 287 288 286 287 288 293 298 301 309 293 295 304
311 311 310 310 311 312 312 312 313 313 313 310 306 307 300 293 295 298 299 295 295 293 289 293 291 289 288 282 285 285 284 287 287 289 288 287 287 286 287 288 285 301 300 294 297 303 304
310 310 310 311 311 311 311 312 313 313 313 311 304 309 307 298 297 300 302 303 301 300 296 296 292 293 292 284 284 287 286 288 287 284 293 285 289 287 288 290 297 301 303 303 302 301 302

GFSGBSN_sfc_thetae_045.txt.gz
Theta_e
316 316 316 316 315 315 315 315 316 316 315 316 316 316 317 316 316 316 316 316 316 316 316 316 317 318 310 301 301 315 345 334 331 320 316 314 312 310 309 313 318 322 325 328 333 332 327
316 316 316 315 315 315 315 315 315 315 315 315 316 316 316 316 317 317 317 316 315 316 317 316 317 318 306 294 309 317 330 325 324 314 311 307 309 312 310 310 317 320 321 323 326 326 321
315 315 315 315 315 315 315 315 315 315 315 316 316 316 316 316 316 317 316 315 315 317 321 317 320 315 306 301 313 314 324 321 324 313 309 310 309 310 308 310 316 316 314 317 321 323 323
315 315 315 315 315 314 315 315 315 315 315 316 316 316 316 316 316 315 314 314 315 319 317 319 323 315 302 315 316 316 315 316 320 313 310 310 309 308 306 310 307 310 309 305 317 324 323
315 315 315 314 314 315 315 315 315 315 315 315 315 315 315 315 314 314 312 313 316 320 322 323 312 308 302 321 313 311 313 313 317 313 309 314 307 301 305 301 296 299 299 307 311 323 323
314 314 314 314 314 315 315 315 315 315 315 315 314 314 314 314 313 312 311 313 315 321 320 320 318 301 302 301 303 304 310 316 309 309 306 304 300 296 296 295 293 295 300 303 305 314 321
314 314 314 314 314 315 315 315 315 315 315 314 314 313 313 312 311 310 307 296 293 291 293 290 293 299 299 301 305 303 305 313 309 303 297 300 295 293 297 300 300 303 304 305 309 314 316
314 314 314 314 314 315 315 315 315 315 314 314 313 313 312 311 310 310 302 295 296 297 288 296 297 296 298 298 296 300 304 307 306 298 301 297 294 299 301 301 300 299 298 300 307 312 310
314 314 315 315 315 315 315 314 314 314 314 313 313 312 311 309 309 303 298 297 300 293 286 292 296 296 297 296 295 297 299 303 302 302 300 297 300 304 303 300 299 298 297 299 301 308 309
315 315 315 315 315 315 314 314 314 314 313 312 312 311 309 309 300 299 298 299 301 296 283 290 293 297 298 297 294 303 304 300 302 300 302 299 305 303 301 300 300 292 302 303 303 303 298
314 315 315 315 315 314 314 314 314 313 312 312 312 310 308 308 297 296 300 301 299 293 277 295 292 301 297 292 296 298 304 301 296 297 299 298 301 301 300 302 304 299 303 302 302 298 299
314 314 314 314 314 314 314 313 313 313 312 312 311 309 308 303 298 301 301 298 293 284 279 289 292 291 290 292 294 297 299 304 303 299 299 299 305 304 304 306 306 306 301 300 299 296 292
314 314 314 314 314 314 313 313 313 312 312 311 309 307 306 306 295 302 300 292 283 278 290 286 286 288 287 290 291 293 294 293 291 289 289 297 300 303 307 302 305 304 295 288 288 288 291
314 314 314 314 314 313 313 313 313 312 311 309 307 306 304 307 305 303 294 287 278 286 284 288 288 286 285 290 290 291 289 289 295 292 288 285 289 300 305 304 301 301 299 289 284 286 292
313 314 314 314 313 313 313 313 312 312 311 308 306 298 300 303 306 298 290 280 281 284 288 287 286 284 284 289 288 288 288 289 293 293 285 286 288 297 300 306 307 300 298 301 290 285 287
313 313 313 313 313 313 313 313 312 312 310 308 298 294 297 306 299 293 286 284 284 290 290 288 282 285 281 283 283 284 286 293 293 296 294 290 284 293 299 304 306 305 303 294 289 286 282
313 312 312 313 313 313 313 313 312 311 309 307 293 292 300 305 295 288 282 282 287 292 293 287 285 283 283 282 283 284 286 293 295 294 296 290 289 290 296 296 298 298 299 296 297 290 291
313 313 313 313 313 313 313 313 312 310 308 300 290 287 300 298 288 283 282 287 293 290 292 289 288 286 283 284 283 284 286 290 297 295 290 293 291 288 290 299 299 298 299 293 296 290 287
313 312 313 313 313 313 313 312 311 309 308 301 291 288 299 296 283 282 287 291 292 290 289 289 287 288 287 284 281 287 290 295 297 294 291 294 289 280 288 290 296 293 295 296 296 289 287
312 311 311 312 312 312 313 312 311 309 309 296 290 285 289 290 288 284 286 288 289 295 293 292 289 288 285 283 285 284 288 294 295 294 300 296 289 283 282 284 289 287 289 292 292 290 291
311 311 311 311 312 312 313 312 311 310 309 297 288 285 287 283 284 285 287 288 288 289 294 292 289 290 285 280 281 283 287 288 293 297 294 291 283 285 286 288 289 288 288 290 292 295 294
312 311 312 312 312 311 311 312 311 310 308 294 288 288 288 287 288 289 288 287 288 290 290 290 289 291 288 282 283 281 285 284 285 290 290 291 283 285 284 288 289 287 292 294 296 299 296
312 312 312 312 312 311 311 311 311 310 305 293 292 294 294 292 290 289 289 290 290 292 293 295 292 290 289 290 290 289 288 287 288 288 287 287 286 282 279 287 289 290 295 297 300 298 298
312 312 312 312 311 311 311 311 312 311 309 303 301 300 293 288 290 290 291 292 291 292 289 293 294 291 295 299 295 290 286 288 289 289 291 287 286 286 279 284 287 295 300 300 298 298 299
312 311 311 311 311 311 312 312 312 312 311 305 304 300 294 287 291 291 292 292 293 293 292 292 294 295 297 290 283 280 280 280 285 290 290 291 287 284 281 282 294 295 296 296 294 294 299
311 311 311 311 311 311 312 312 312 313 312 308 305 305 297 290 290 294 292 293 289 289 291 292 296 296 294 289 284 279 277 283 284 286 291 290 290 285 285 283 287 293 297 302 303 289 300
310 310 311 311 311 311 312 312 312 313 312 309 306 305 298 291 294 294 292 291 293 290 288 292 294 291 292 287 284 282 281 286 284 283 283 285 286 282 284 284 291 297 298 303 290 290 299
310 310 310 310 311 311 312 312 312 313 313 309 305 306 301 294 295 297 298 295 295 293 287 293 289 289 288 284 284 283 283 286 285 287 287 286 285 285 287 287 287 298 300 293 294 300 299
310 310 310 311 311 311 312 312 313 313 312 311 302 308 307 299 298 299 302 303 301 300 296 296 292 292 290 286 286 287 286 287 286 282 292 286 288 286 287 289 297 298 300 301 300 298 298

GFSGBSN_sfc_thetae_048.txt.gz
Theta_e
316 316 316 316 315 315 315 316 316 316 316 316 316 316 317 316 316 317 317 317 316 316 317 317 316 317 308 298 299 312 337 333 329 329 324 318 321 311 314 318 319 323 327 328 331 332 330
316 315 315 315 315 314 315 315 315 315 315 315 316 316 316 316 317 317 317 317 315 317 319 319 317 317 303 290 307 316 326 325 326 321 320 313 319 313 311 313 317 320 324 325 325 323 325
315 315 315 315 315 314 315 315 315 315 315 315 316 316 316 316 316 316 316 315 315 318 319 318 320 314 304 299 313 316 323 318 319 321 312 309 313 314 308 308 314 316 309 313 316 320 321
315 315 315 315 315 315 315 315 315 315 315 315 315 315 315 315 315 315 314 314 315 318 318 320 321 311 301 313 314 315 321 316 320 311 307 309 308 307 304 308 305 306 306 303 314 319 322
315 315 315 315 315 315 315 315 314 315 315 315 315 315 314 314 314 313 312 312 315 321 321 322 310 304 298 319 305 305 309 312 316 313 311 314 305 300 303 300 297 297 299 304 310 319 320
314 315 315 315 315 315 315 315 315 315 315 314 314 314 313 313 312 311 311 313 321 320 320 319 316 298 300 298 301 302 304 316 313 311 308 302 298 294 294 295 291 295 296 302 306 311 318
315 315 315 315 315 314 315 315 315 315 315 314 314 313 313 312 311 310 307 294 293 291 294 289 291 294 297 300 302 300 302 311 307 303 297 297 292 291 295 299 300 301 302 303 308 312 315
315 315 315 314 314 314 314 315 314 314 314 314 313 313 312 311 310 310 300 295 296 297 289 294 294 294 297 296 295 301 302 305 302 296 298 294 291 297 298 298 299 299 296 298 305 311 310
315 314 314 314 314 315 315 314 314 314 314 313 313 312 311 310 309 302 297 295 299 292 285 291 294 294 296 294 294 297 300 299 301 297 297 292 295 300 298 297 296 297 295 296 300 305 310
315 314 315 314 314 314 314 314 313 313 313 312 312 311 310 309 299 298 295 299 300 295 282 289 291 296 297 295 292 301 301 298 298 299 299 297 302 300 297 296 297 289 300 302 300 299 295
314 314 314 315 314 314 314 313 313 313 312 312 312 310 308 308 295 295 298 300 296 291 275 292 291 299 295 291 293 296 304 301 294 295 297 298 298 299 297 297 299 295 301 299 300 297 295
314 314 314 314 314 314 313 313 313 312 312 311 310 309 308 302 297 300 301 298 292 283 277 287 291 290 290 292 293 295 300 303 302 298 296 295 302 302 302 303 303 303 299 297 296 294 289
314 314 313 313 314 314 313 313 313 312 311 310 309 307 305 305 298 301 299 291 282 277 288 285 285 287 286 288 290 291 293 292 289 286 287 295 296 299 302 299 302 301 295 286 285 286 290
314 314 314 314 313 313 313 313 313 312 311 309 307 305 302 306 304 301 292 287 276 285 282 286 286 285 284 288 288 289 289 288 293 290 286 286 288 297 301 299 297 298 294 286 281 283 291
313 314 314 313 313 313 313 313 312 311 310 308 306 295 297 301 303 295 290 280 280 282 287 285 284 282 282 286 286 286 287 289 291 291 284 284 287 296 299 300 302 297 294 297 289 285 286
314 313 313 313 313 313 313 313 312 311 310 308 295 291 295 303 297 292 286 283 283 288 288 287 280 283 279 281 283 283 283 292 292 294 295 288 282 293 297 300 301 299 301 292 289 284 281
313 313 312 312 313 313 313 313 312 311 309 307 291 291 298 302 294 288 281 280 286 291 292 287 284 282 282 281 282 282 284 291 294 293 293 287 287 288 294 294 294 295 298 295 296 291 287
313 312 312 313 313 313 313 313 312 310 308 301 289 285 298 297 288 283 281 285 292 289 291 288 287 285 283 284 282 283 285 289 296 293 288 291 287 285 288 296 297 295 293 294 295 290 287
313 312 312 313 312 313 313 312 311 309 308 299 290 289 297 294 281 281 285 289 291 289 288 288 286 287 286 283 280 286 288 295 296 292 288 289 289 278 285 288 291 290 292 289 288 292 295
312 312 312 312 313 313 312 311 310 309 309 295 289 284 288 289 286 282 285 286 288 294 291 291 289 288 284 282 283 282 286 294 295 294 299 294 284 281 279 284 287 285 289 290 286 284 291
312 312 312 312 312 311 312 312 311 309 308 296 287 284 285 282 284 286 289 287 287 287 293 293 289 290 286 280 281 282 285 288 293 297 292 288 281 285 285 287 288 287 287 289 287 288 287
312 312 312 311 311 311 311 312 311 310 306 292 288 287 287 285 290 289 289 285 287 289 289 289 289 291 290 285 284 282 284 283 285 289 287 286 281 286 283 288 288 287 290 291 291 291 292
311 311 311 311 311 311 312 312 312 310 304 292 293 296 294 292 291 289 289 290 290 292 292 294 293 290 287 290 293 293 288 286 286 286 284 285 283 284 278 285 286 286 291 294 295 296 296
311 311 311 310 311 312 312 312 312 311 308 302 301 300 293 288 290 290 291 292 291 292 291 292 294 291 294 296 293 293 290 288 288 287 286 282 284 286 278 283 281 292 300 300 295 296 297
311 311 310 311 312 311 312 312 312 312 311 305 304 300 294 288 291 292 293 293 293 293 292 293 294 297 293 293 285 280 279 280 283 286 286 287 286 282 280 281 287 295 295 294 294 292 298
310 310 311 311 311 311 312 312 312 313 312 308 306 305 297 291 291 295 292 293 289 288 290 293 295 294 292 289 286 280 278 276 280 282 287 286 290 284 285 281 285 292 296 300 301 289 298
310 310 310 311 311 312 312 312 312 312 312 308 305 306 299 292 295 295 292 292 294 290 287 291 293 290 290 286 283 282 280 286 281 280 282 284 285 281 281 283 288 294 295 301 292 290 298
310 310 310 311 312 312 312 312 312 313 312 308 302 305 301 295 296 298 298 295 296 293 287 293 289 287 288 284 284 283 282 285 284 287 285 284 282 282 284 284 286 295 298 292 294 297 298
310 310 311 311 311 312 312 313 313 313 312 310 298 308 307 299 297 301 302 303 302 301 296 295 292 292 292 287 287 286 284 285 285 282 290 285 287 285 287 287 294 296 297 298 299 297 298

GFSGBSN_sfc_thetae_051.txt.gz
Theta_e
316 316 316 316 316 316 316 316 316 316 316 316 316 316 316 316 316 316 317 317 317 317 318 319 317 317 314 304 302 317 336 333 332 331 325 319 323 322 315 321 327 326 329 331 332 333 332
315 315 316 316 316 315 316 315 315 315 315 316 316 316 316 316 316 316 316 315 315 316 319 320 317 318 310 298 311 318 328 327 330 326 324 324 323 324 319 324 322 326 326 329 329 329 330
315 315 316 316 316 315 315 315 315 315 315 315 316 316 316 316 316 315 315 314 314 316 319 319 320 315 307 303 316 319 326 325 330 327 322 326 326 322 317 315 322 322 319 320 321 324 325
315 315 315 315 315 315 315 315 315 315 315 315 315 316 315 315 315 315 314 313 314 317 319 321 322 315 305 315 320 320 324 322 327 324 320 318 321 321 312 314 310 311 312 312 321 323 325
315 315 315 315 315 315 315 315 314 315 315 315 315 315 315 314 314 313 312 314 316 321 321 322 317 312 301 317 305 308 311 316 319 325 316 317 314 313 312 308 305 308 304 309 316 324 324
315 315 315 315 315 315 315 315 315 315 315 315 314 314 314 313 312 312 311 315 324 323 321 321 316 303 304 300 304 305 311 321 315 316 311 308 310 305 305 304 296 301 303 310 315 320 322
315 315 315 315 315 315 315 315 314 314 315 314 314 313 313 312 311 311 309 303 302 301 302 297 297 298 301 304 306 306 308 315 314 308 301 305 300 299 301 304 306 307 306 308 315 321 320
315 315 315 315 314 314 314 314 314 314 314 314 313 313 312 311 310 310 306 303 302 302 296 298 297 298 300 301 299 303 310 310 309 301 302 300 296 302 304 302 303 303 304 307 313 316 317
315 315 314 314 315 315 314 314 314 314 313 313 313 312 311 310 310 307 303 303 306 301 295 296 299 299 300 301 299 299 305 303 306 303 301 298 300 303 301 299 299 301 301 305 306 308 314
315 315 315 314 314 314 314 314 313 313 313 313 312 312 310 308 305 303 302 304 307 303 292 293 296 298 301 299 297 303 309 303 300 303 303 302 306 301 300 298 300 296 303 305 305 304 305
314 315 315 315 314 314 314 314 313 313 312 312 312 311 309 308 305 303 305 307 301 299 283 293 295 303 301 297 298 299 309 306 298 299 303 302 302 301 299 300 302 299 303 301 304 304 304
314 314 314 314 314 314 313 313 313 313 312 312 311 309 308 306 305 306 307 304 301 290 282 289 295 293 294 296 296 299 303 306 304 301 302 301 309 307 305 305 303 304 303 302 302 301 297
314 314 314 313 314 313 313 313 313 312 312 311 309 308 306 308 303 308 306 300 290 284 291 288 289 292 292 291 293 295 297 296 295 293 294 298 300 305 308 303 305 303 299 294 292 292 293
314 315 314 314 314 313 313 313 313 312 311 310 307 305 306 309 308 305 301 296 284 288 288 292 291 291 289 291 291 292 293 293 296 294 295 293 291 300 305 304 302 302 301 294 289 290 292
315 314 314 314 313 313 313 313 312 312 311 309 305 302 306 307 306 303 299 288 287 288 291 289 289 287 287 289 290 290 291 293 294 294 291 292 292 299 302 304 305 302 298 304 297 298 295
314 314 313 313 313 313 313 313 312 311 310 308 301 300 303 306 302 301 296 288 289 292 292 292 286 288 285 287 287 288 288 295 294 295 298 293 289 297 300 303 304 304 307 297 298 290 290
313 313 312 312 313 313 313 313 312 311 309 306 299 300 304 304 303 298 291 288 291 294 295 291 288 287 288 286 288 287 288 294 295 294 297 295 291 292 298 299 299 300 300 302 302 299 292
313 313 313 313 313 313 313 312 311 309 307 305 298 294 304 303 295 292 291 291 293 294 295 293 292 291 289 288 287 287 287 291 297 295 290 295 292 287 292 301 302 300 300 302 297 297 299
313 313 313 313 313 312 312 312 310 309 307 302 294 294 303 303 290 290 292 291 293 293 293 292 290 291 291 289 286 289 291 297 297 295 292 295 290 284 287 295 297 296 297 298 300 300 299
312 312 312 312 312 312 312 311 310 309 308 303 297 292 296 296 294 290 286 289 290 295 294 295 293 293 290 288 291 287 290 295 297 296 299 297 290 286 284 287 291 290 293 295 296 298 300
312 311 311 311 311 311 311 312 310 309 306 303 296 292 292 289 291 292 291 289 288 288 295 295 292 291 289 286 287 287 290 292 295 297 297 294 285 287 288 289 290 289 290 292 292 297 297
312 311 311 311 311 312 312 312 311 310 305 300 296 294 295 293 292 291 290 288 288 290 290 289 289 292 292 289 289 286 288 290 290 295 293 293 286 288 285 289 290 289 292 293 294 296 296
312 310 311 311 312 312 312 312 312 310 305 300 299 299 296 293 292 290 290 290 290 292 293 293 292 290 288 289 294 295 296 294 292 291 292 290 288 285 281 289 289 287 293 294 297 300 300
311 311 312 312 312 312 312 312 312 311 309 306 303 301 294 289 291 291 292 293 292 293 291 293 294 292 295 300 298 297 296 294 293 293 294 289 286 286 282 284 280 295 303 301 299 299 301
310 311 311 311 311 311 312 312 312 312 311 308 306 301 295 290 293 293 293 293 294 294 292 292 295 298 299 295 289 287 286 287 290 292 292 293 289 284 281 284 290 296 298 297 298 297 301
311 310 311 311 312 312 313 313 313 312 311 310 307 307 299 292 292 296 293 293 290 289 290 292 298 301 297 292 288 281 280 283 283 286 293 292 292 287 283 281 284 292 297 301 302 295 299
311 311 311 311 312 312 312 313 313 312 311 311 309 309 301 294 299 297 293 292 295 291 288 291 293 294 296 290 284 283 283 286 282 283 282 284 286 283 283 281 287 292 296 303 293 294 299
310 311 311 312 312 312 312 313 313 313 313 311 308 308 303 297 299 299 299 296 296 294 289 292 293 292 291 286 286 285 283 286 285 288 285 284 284 284 285 282 282 294 296 296 298 302 301
310 311 311 312 312 312 313 313 313 313 313 310 306 309 308 300 300 304 304 304 302 301 297 296 293 293 292 287 288 288 285 287 287 282 290 284 288 287 289 288 295 298 297 301 305 304 303

GFSGBSN_sfc_thetae_057.txt.gz
Theta_e
318 318 318 317 317 317 317 317 317 318 317 317 317 318 318 317 317 317 318 318 317 317 318 320 322 320 319 314 311 321 337 342 334 326 332 329 325 324 319 323 327 326 328 333 334 334 332
317 317 317 317 317 317 316 316 316 316 316 317 317 317 317 317 317 317 317 316 316 317 319 323 322 320 320 310 319 328 330 335 325 324 327 327 324 326 320 320 321 325 326 331 332 335 335
317 317 317 317 317 317 316 316 316 316 316 316 317 317 317 317 316 316 316 315 318 317 321 320 321 322 318 312 320 329 330 325 324 326 324 328 327 324 320 318 323 323 321 328 331 333 332
317 317 317 316 316 317 316 315 315 315 316 316 316 316 316 316 315 315 314 314 318 320 320 322 323 326 312 316 320 322 329 328 327 328 330 329 326 323 320 320 316 317 319 318 329 330 332
317 317 316 316 316 317 316 316 315 316 316 316 316 316 315 315 315 314 313 313 321 322 323 324 325 323 308 316 313 316 323 324 328 327 327 326 325 318 320 312 310 311 309 315 321 328 328
317 316 316 316 316 316 316 316 315 315 315 315 315 315 315 315 314 313 312 313 321 324 324 325 322 313 310 307 313 314 319 325 327 320 321 321 318 313 314 312 302 306 307 313 317 326 327
316 316 316 316 315 316 315 315 314 314 315 315 315 314 314 314 312 311 313 317 317 314 314 307 308 307 308 312 315 314 322 322 325 317 309 315 310 306 311 313 311 310 311 311 318 326 324
316 316 316 315 315 315 315 314 314 314 315 315 315 314 314 313 312 311 313 311 309 311 306 308 307 308 310 312 307 313 323 315 314 311 312 308 305 311 312 311 309 309 308 311 316 323 323
316 316 316 315 315 315 315 315 314 314 315 314 314 314 313 312 311 311 313 310 315 314 306 306 307 307 307 310 306 307 314 316 311 310 311 307 308 311 310 309 307 307 307 311 313 320 326
316 317 317 316 315 315 315 314 314 314 314 314 314 313 312 309 308 316 313 315 316 314 301 301 303 305 308 308 304 310 312 312 311 308 309 309 312 308 308 307 309 305 310 308 310 313 311
316 317 316 316 315 315 314 314 314 314 314 313 313 312 310 308 315 313 313 317 315 311 290 302 303 310 307 305 306 306 312 311 306 307 310 306 307 307 306 307 309 307 311 308 307 308 312
316 316 315 315 314 314 314 314 314 314 313 313 312 310 309 314 317 315 317 316 311 297 289 297 302 301 302 303 303 306 306 310 310 306 308 308 314 311 309 310 310 311 308 308 307 305 300
315 315 315 314 314 314 314 314 314 313 312 311 309 308 309 316 313 317 317 311 297 292 301 297 298 300 301 300 300 301 302 303 300 298 298 303 305 310 313 308 311 309 306 299 297 297 296
315 315 315 314 314 314 314 314 313 312 311 309 307 305 311 315 318 317 314 304 292 297 298 300 299 299 297 299 300 299 300 299 303 302 299 297 297 305 309 309 307 307 306 301 295 296 298
315 315 315 314 314 314 313 313 312 311 310 308 306 316 317 317 317 316 308 297 297 299 299 297 299 296 297 298 297 298 299 299 301 303 297 297 297 307 307 309 309 307 304 309 304 306 302
314 314 314 314 314 312 313 313 312 311 310 308 313 314 313 317 317 312 304 297 300 301 300 299 295 297 295 298 295 297 298 301 300 301 303 300 296 305 305 308 309 308 312 302 303 296 296
314 313 314 314 314 313 314 313 312 311 309 308 313 309 314 318 315 308 300 301 300 302 302 298 297 297 296 296 297 297 297 300 301 301 301 301 299 299 304 303 302 304 304 306 307 304 298
313 313 313 313 313 313 314 313 312 310 308 311 312 305 316 317 305 307 303 301 294 301 303 301 300 299 297 298 297 296 296 298 302 301 296 300 297 294 298 305 307 305 304 304 301 301 304
313 313 313 313 313 314 314 313 312 309 309 311 309 310 316 315 301 303 303 301 301 300 301 300 299 300 300 297 294 296 297 300 300 299 297 300 295 290 293 298 302 301 304 306 306 306 303
313 313 313 313 314 314 314 313 311 310 310 310 309 305 309 309 307 303 301 298 298 301 300 301 300 301 299 297 299 295 296 298 301 300 301 298 295 293 290 294 297 297 300 304 304 300 301
313 313 313 313 313 314 314 313 312 310 310 311 309 303 304 299 301 302 301 299 295 296 300 301 297 297 296 293 294 294 297 297 299 301 299 298 291 294 295 296 296 295 297 301 301 304 301
312 312 313 313 313 313 314 314 313 311 309 313 307 305 306 303 302 301 298 296 294 295 297 296 295 296 297 295 296 294 296 297 296 299 298 299 292 295 292 295 295 293 295 297 299 301 302
312 313 313 313 313 313 313 314 313 311 309 312 312 311 308 296 300 298 296 296 296 297 298 298 296 296 295 297 300 301 302 301 300 298 296 296 294 291 289 293 293 289 293 295 297 300 301
312 313 313 313 313 313 314 314 313 312 310 313 312 311 304 297 297 295 297 295 295 297 296 298 298 295 300 305 304 302 301 300 301 300 299 296 295 293 289 290 282 294 299 299 297 299 303
312 312 312 313 313 313 313 314 313 312 312 315 314 310 303 298 299 298 297 296 296 298 296 296 298 302 304 300 293 291 293 294 296 298 297 299 294 290 287 287 291 293 298 300 295 298 306
312 312 312 313 313 313 313 313 313 312 312 314 314 315 309 305 300 301 298 299 294 295 297 297 303 305 302 297 292 287 287 289 289 292 298 297 296 291 289 285 282 292 301 302 303 296 308
311 312 312 313 313 313 313 313 313 312 312 313 315 316 311 304 306 305 301 298 301 298 296 298 299 299 302 295 289 288 288 292 286 288 289 292 292 288 288 287 290 300 301 301 290 295 301
311 312 313 313 312 313 313 313 313 313 312 314 315 319 312 308 308 308 306 304 302 303 297 301 299 299 294 289 289 289 288 288 287 293 290 290 288 287 290 286 284 302 300 293 297 297 297
311 312 313 313 312 313 314 314 314 313 313 313 315 319 318 310 310 314 312 311 308 306 304 302 299 298 298 290 290 290 287 290 287 287 297 290 294 292 292 292 301 301 300 305 302 297 298

GFSGBSN_sfc_thetae_060.txt.gz
Theta_e
319 318 318 318 318 318 317 317 317 318 318 318 317 317 318 318 317 317 318 318 318 318 319 319 321 322 317 314 315 328 345 341 331 324 329 332 327 325 320 323 326 324 327 330 332 333 333
318 318 318 317 317 317 317 316 316 317 316 317 317 317 317 317 317 317 317 318 317 319 319 322 324 321 316 312 320 327 329 334 325 318 329 333 327 327 322 321 320 325 325 328 334 332 333
318 318 318 317 317 317 317 316 316 316 316 316 317 317 317 317 317 316 316 316 316 320 321 321 322 320 321 315 320 325 328 331 326 318 323 332 330 324 323 317 321 320 319 324 330 331 330
318 318 317 317 317 317 316 316 316 316 316 316 316 316 317 317 317 316 316 315 315 321 322 322 323 323 318 317 320 322 328 325 326 321 324 328 328 323 321 321 317 314 317 313 325 331 331
318 317 317 317 317 317 317 316 316 316 316 316 316 316 316 316 316 315 313 314 316 323 324 324 324 323 314 318 313 319 326 323 323 324 328 330 325 319 318 313 309 311 307 312 317 331 330
318 317 316 316 316 316 316 316 316 315 315 315 316 315 315 315 314 313 312 313 319 323 325 325 323 314 314 309 314 315 319 325 323 321 320 320 317 312 312 310 302 305 307 310 314 324 327
317 317 316 316 316 316 316 316 315 315 315 315 315 315 315 314 313 311 312 317 314 315 317 311 311 310 309 313 316 314 318 322 325 319 312 316 311 307 310 311 312 310 308 309 313 325 325
317 317 316 316 316 316 315 315 315 315 315 315 315 314 314 313 312 311 312 312 310 312 305 311 309 309 311 313 308 315 322 315 318 310 312 312 307 313 312 313 311 311 308 307 313 322 325
317 316 316 317 316 316 315 315 314 315 315 315 314 314 313 312 311 311 314 312 316 315 304 308 309 308 308 311 308 310 317 315 312 310 310 306 308 312 311 309 308 308 306 307 309 317 323
316 317 317 316 316 315 315 314 314 315 314 314 313 313 312 309 309 316 313 316 317 315 300 302 303 306 308 309 305 311 313 313 312 308 309 310 312 310 308 307 309 304 310 308 308 309 307
316 317 316 316 315 315 314 314 314 314 314 313 313 312 310 308 310 312 315 317 316 312 290 303 304 311 309 305 307 307 312 311 306 308 309 306 309 308 307 307 310 307 312 309 307 305 307
316 316 315 316 315 314 314 314 314 314 313 312 312 310 309 313 313 316 317 317 312 297 289 299 304 301 302 304 304 307 307 310 311 306 308 307 313 311 309 311 310 311 308 308 308 305 298
316 315 315 315 315 314 314 314 313 313 312 311 310 308 308 315 313 318 317 312 296 291 303 298 299 301 302 301 301 302 303 302 300 297 297 302 305 310 313 307 310 309 304 297 296 296 295
315 315 315 315 314 314 313 313 313 312 312 310 308 306 314 316 318 317 314 304 292 299 299 302 300 300 298 301 300 301 299 299 303 302 299 297 296 303 308 308 306 306 305 298 293 295 297
315 315 315 315 313 312 312 313 312 312 311 309 307 317 315 318 317 316 307 297 297 299 302 299 300 296 298 300 299 299 299 299 302 304 297 296 296 306 308 308 308 306 303 307 301 303 300
314 314 314 314 313 313 314 313 313 312 311 308 310 315 314 318 318 312 303 297 301 303 302 301 295 299 296 298 298 298 298 302 300 304 305 300 294 303 306 308 308 305 309 301 303 294 294
314 314 314 314 314 314 314 314 313 312 310 308 312 310 316 320 316 308 299 302 302 304 303 300 298 298 299 297 299 297 298 301 302 302 303 300 297 297 303 303 301 303 302 304 304 303 297
314 314 314 314 314 314 315 314 312 310 308 311 315 305 317 319 306 307 302 303 297 303 305 302 302 300 298 299 298 298 297 300 303 303 298 301 297 293 297 304 307 305 303 303 299 299 302
314 314 314 314 314 315 315 314 312 310 310 309 311 310 317 316 300 302 305 303 303 302 302 302 300 302 302 298 295 298 299 303 302 300 298 300 295 290 293 298 302 301 303 304 303 303 301
314 314 314 315 315 315 315 313 312 311 310 310 311 304 310 310 309 304 302 300 299 303 302 302 301 302 300 298 300 297 297 301 302 301 302 300 295 293 290 295 297 296 299 301 301 298 298
313 313 314 314 315 315 315 314 312 311 310 312 311 304 306 300 303 303 303 301 298 297 302 302 299 298 297 295 296 295 298 299 301 302 300 298 291 294 294 295 296 296 296 298 298 301 299
313 314 314 314 314 314 315 314 313 312 309 314 307 307 308 304 304 303 300 298 297 298 299 298 297 298 298 295 296 294 297 298 297 301 298 300 292 294 292 296 296 294 296 297 298 300 301
313 313 314 314 314 314 315 315 314 312 310 312 314 314 308 300 301 299 298 297 297 299 300 300 298 297 296 298 300 301 301 301 299 299 297 297 295 293 288 294 294 290 294 295 297 299 300
313 313 313 314 314 314 314 315 314 313 311 315 313 313 305 298 299 298 298 298 297 298 296 299 299 297 301 305 304 302 301 300 299 299 300 295 295 294 289 291 282 295 301 300 297 299 300
312 313 313 313 314 314 314 314 315 314 312 317 316 312 308 300 302 301 299 298 299 300 299 299 300 303 305 301 294 293 294 294 296 298 297 299 295 290 286 286 290 293 298 299 299 297 302
312 313 313 313 314 313 314 315 314 314 313 317 317 318 312 305 301 303 300 301 299 298 299 299 305 306 303 298 293 287 286 290 289 292 298 298 297 293 289 284 282 292 299 303 302 293 305
312 312 313 313 313 313 314 314 315 315 314 314 317 321 314 306 307 306 301 300 302 299 297 300 300 300 303 295 291 289 288 293 287 288 289 291 294 289 289 286 290 298 301 303 289 292 303
312 312 313 313 313 313 313 314 314 315 315 314 316 320 314 309 308 310 308 305 304 302 297 302 301 301 297 291 290 289 289 290 287 292 291 291 289 289 290 286 283 302 301 294 300 304 304
311 312 313 313 312 314 314 314 314 314 315 313 315 320 319 311 309 314 314 312 310 308 305 305 301 300 300 294 292 291 288 290 288 285 295 290 291 291 290 291 302 303 301 304 304 303 303

GFSGBSN_sfc_thetae_063.txt.gz
Theta_e
319 319 318 318 318 318 317 316 316 317 317 316 316 317 317 317 317 318 318 318 318 318 320 320 321 323 313 309 312 327 347 344 329 317 314 325 325 321 318 320 323 322 325 331 332 332 332
319 318 318 318 318 318 317 316 316 316 316 316 317 317 318 318 318 318 318 317 316 317 320 322 324 322 310 306 318 329 334 332 320 315 318 325 327 325 321 320 317 321 322 327 330 331 333
319 318 318 318 317 317 317 316 316 316 316 316 316 317 317 318 317 317 317 316 316 316 320 323 323 318 315 313 318 320 325 327 320 315 314 325 331 325 320 316 320 315 311 316 328 330 329
319 318 317 317 318 317 317 316 316 316 316 316 317 317 317 317 316 317 316 315 315 317 321 322 323 318 313 323 312 317 323 327 325 316 316 325 330 324 315 317 316 309 307 303 315 329 331
319 319 318 318 317 317 317 316 316 316 316 316 317 317 317 316 316 315 313 313 316 318 323 323 318 315 313 318 309 312 319 320 322 315 314 319 318 314 314 307 303 304 297 303 309 327 329
319 318 318 317 317 317 317 316 316 315 316 316 316 316 315 315 314 313 312 313 318 316 323 323 320 309 315 308 310 311 314 320 316 313 312 314 314 307 305 300 294 299 298 302 305 321 326
319 318 317 316 316 317 316 316 315 315 316 316 315 315 314 314 313 311 309 307 308 305 309 311 309 312 309 309 313 310 313 318 318 313 305 310 303 300 303 305 306 306 305 302 307 315 322
319 317 317 316 316 316 316 315 315 315 315 315 315 314 314 313 312 311 308 304 304 304 299 309 313 308 308 308 306 311 314 309 313 306 310 306 301 308 311 310 308 305 303 303 307 309 321
318 317 317 317 316 316 315 315 315 315 315 315 314 313 313 312 310 310 307 308 311 308 297 303 308 305 304 304 305 309 312 311 310 309 305 302 307 313 311 308 304 303 300 302 302 306 321
317 317 317 316 316 315 315 315 315 314 314 314 313 313 312 310 306 308 309 311 311 309 291 300 300 303 305 304 300 311 311 308 308 305 307 304 309 308 307 305 304 295 305 306 304 299 295
317 317 316 316 316 315 315 314 314 314 313 313 313 312 310 308 304 304 310 311 308 304 284 302 301 307 304 299 302 303 310 306 303 304 303 301 305 305 304 304 306 301 307 304 304 298 294
317 316 316 316 315 315 314 313 313 313 313 313 312 311 309 310 306 308 312 312 306 291 286 297 302 299 298 299 302 305 305 305 306 302 303 302 308 306 306 309 308 308 304 302 300 296 290
316 316 315 315 315 313 312 312 313 313 313 312 310 308 307 310 307 314 312 307 290 287 301 296 295 298 297 297 299 299 300 297 293 288 290 297 300 304 307 302 304 303 296 288 288 289 289
316 315 315 314 314 313 313 313 313 313 312 311 308 306 311 312 313 314 309 298 289 296 296 299 299 297 295 298 297 299 296 293 299 296 290 289 290 298 304 301 299 299 295 289 285 287 290
316 315 315 314 314 314 314 314 313 313 311 309 307 313 311 315 316 312 302 292 292 296 299 298 296 293 294 297 296 296 294 294 297 299 290 290 291 302 304 303 303 299 295 299 292 294 290
315 315 315 315 314 314 314 314 313 312 311 309 306 310 312 315 314 307 298 294 296 301 301 300 293 296 292 294 293 293 292 299 299 301 299 294 287 296 301 302 302 298 300 292 292 285 284
315 315 315 315 315 315 315 314 313 312 310 309 309 308 313 316 312 303 295 298 300 304 303 298 296 295 295 294 296 293 295 297 300 300 299 293 289 291 296 293 294 296 293 293 293 291 288
315 315 314 315 315 315 315 314 313 310 309 309 310 303 313 315 302 305 299 300 300 302 304 301 301 298 296 297 294 295 295 297 301 299 294 295 288 285 290 297 300 297 294 294 289 289 292
315 314 314 315 314 315 315 314 312 310 310 306 306 308 313 313 298 300 302 300 301 299 299 299 298 299 299 295 291 296 297 302 301 298 293 293 287 283 287 290 294 293 296 296 294 291 290
314 314 314 315 315 315 315 314 312 311 310 307 308 301 307 307 305 300 299 298 297 302 300 300 299 300 297 295 295 294 296 300 301 300 304 298 287 284 281 286 291 290 293 295 292 286 288
313 314 314 315 315 315 315 314 313 311 310 309 309 301 305 296 298 300 300 299 296 295 300 300 298 297 294 290 292 292 295 297 301 304 298 292 284 287 289 292 292 292 292 293 291 291 286
313 314 314 315 315 315 315 315 314 312 310 312 304 303 305 300 301 299 298 296 295 296 296 295 294 296 295 291 292 290 293 292 291 296 295 295 287 290 289 293 292 291 293 294 294 294 293
313 313 314 315 315 315 315 315 314 312 311 311 312 313 305 299 299 296 295 296 296 298 300 299 297 295 294 296 298 298 297 296 295 291 292 292 289 287 283 291 291 286 292 293 294 295 293
313 313 314 314 314 315 315 316 315 313 311 312 313 311 304 296 297 296 298 298 297 297 295 298 299 295 299 302 301 299 298 296 296 295 294 289 289 289 283 286 279 290 297 298 296 298 299
313 313 313 314 314 314 315 316 316 315 312 313 316 312 307 297 300 299 299 298 299 299 298 298 300 301 303 299 292 289 290 292 294 296 294 293 289 285 281 281 287 290 294 296 293 294 301
313 313 313 314 314 315 315 316 317 316 313 316 317 319 312 303 299 303 301 301 296 296 298 299 304 305 301 295 291 286 283 288 288 291 295 295 294 289 286 280 278 288 298 300 299 287 300
312 312 313 313 314 314 315 315 316 317 315 313 315 320 314 306 305 304 299 299 302 299 296 300 300 299 300 292 288 288 286 290 283 284 286 288 289 285 285 283 286 296 300 301 287 288 300
312 312 313 313 313 314 315 316 316 317 316 313 317 321 313 308 307 310 308 305 302 300 296 300 299 297 295 289 288 288 286 287 285 288 288 287 285 286 287 283 281 298 299 291 295 298 299
312 312 312 313 313 314 314 316 316 316 316 315 314 321 321 312 309 314 314 314 311 308 302 302 299 298 296 292 290 289 286 288 287 282 291 286 288 286 288 288 294 297 296 299 299 296 297

GFSGBSN_sfc_thetae_066.txt.gz
Theta_e
319 319 319 318 318 318 317 316 316 317 316 316 317 317 317 318 318 318 318 318 317 317 318 321 321 321 312 306 305 329 346 342 332 315 312 319 322 318 314 319 322 319 321 326 332 334 334
319 319 318 318 318 317 316 316 316 316 315 316 316 317 317 317 317 317 317 317 316 316 317 322 324 323 307 300 321 331 333 331 321 313 310 317 323 326 319 320 317 320 320 320 331 333 333
319 319 318 318 317 317 317 316 315 315 315 315 316 317 317 317 317 317 316 316 316 316 317 323 323 319 310 306 321 329 330 325 318 313 311 316 325 321 322 314 320 317 308 314 328 331 330
319 318 318 317 318 317 317 316 315 316 315 316 316 316 316 316 316 316 315 314 314 316 317 323 323 316 307 325 323 320 328 323 319 313 313 318 323 320 319 318 312 307 303 299 324 328 330
320 319 318 317 318 318 317 316 315 316 316 316 316 316 316 315 315 315 313 313 315 318 320 324 312 310 309 325 306 309 317 323 319 314 311 317 313 308 310 305 300 301 297 299 305 328 327
320 319 318 317 316 317 317 316 315 316 316 316 316 315 315 315 314 313 312 312 314 316 321 322 319 306 311 311 307 310 311 323 316 312 309 307 304 303 302 299 292 297 297 299 300 317 324
320 318 317 317 316 316 316 315 315 315 316 316 315 315 314 314 313 311 308 303 300 301 307 305 307 308 310 308 310 306 309 312 312 307 300 307 301 298 302 302 303 302 300 300 305 308 321
319 318 317 316 316 316 315 315 315 315 315 315 315 314 314 313 312 311 306 299 302 302 295 306 310 311 313 306 303 307 309 306 309 302 304 302 298 305 308 306 304 303 300 300 304 310 316
318 317 316 316 316 316 316 315 314 314 314 314 314 314 313 312 310 306 302 303 309 304 293 300 303 306 303 301 302 306 307 306 308 305 304 300 304 310 308 306 304 302 298 301 300 314 324
317 317 316 316 316 315 315 313 313 314 314 314 314 313 312 310 303 301 303 306 305 303 287 294 297 302 302 302 298 312 311 306 306 305 307 301 308 307 306 305 304 294 303 303 302 297 301
317 316 316 315 314 313 313 312 313 314 314 314 313 313 310 308 298 299 305 307 307 299 282 300 296 304 300 297 300 302 307 304 300 301 300 300 303 303 302 302 306 301 305 301 301 295 293
317 316 315 315 314 314 314 314 314 314 314 313 313 311 309 305 301 303 306 307 300 288 284 295 299 297 295 295 298 302 303 303 303 299 298 299 304 303 303 307 306 306 301 298 295 293 288
316 315 315 315 315 314 314 314 314 313 313 312 310 309 307 308 300 306 306 301 289 283 297 293 293 295 293 293 295 297 297 293 291 286 287 295 297 299 303 298 302 300 292 286 286 286 286
315 315 315 315 315 315 314 315 314 313 312 310 308 307 307 308 304 307 303 296 285 293 291 295 294 294 292 294 293 296 293 290 295 292 287 286 287 296 301 297 295 296 293 287 283 283 287
316 315 315 315 315 314 315 314 313 313 311 310 307 304 304 307 309 307 298 287 285 291 296 295 293 289 291 295 294 294 292 291 296 294 287 286 289 299 300 298 297 294 292 295 289 287 287
316 315 315 315 314 314 315 314 313 312 311 309 300 302 304 312 309 300 293 290 292 299 299 296 289 292 289 292 291 289 292 295 296 298 293 289 285 292 298 299 298 293 297 289 288 283 282
315 315 314 314 314 313 315 315 313 312 310 309 304 302 308 307 305 298 290 292 298 301 301 296 293 291 291 290 292 290 291 295 298 297 295 289 286 288 293 289 289 290 289 289 288 288 284
315 314 314 314 314 315 315 315 313 311 309 305 301 295 309 307 298 295 291 296 299 298 300 297 297 295 292 292 291 291 291 294 299 296 291 291 285 283 287 294 296 293 288 286 284 285 287
315 313 314 314 315 315 315 314 312 310 309 300 298 299 307 306 290 291 295 298 299 297 297 296 295 295 295 291 288 292 294 299 300 296 290 290 283 280 285 287 291 289 291 288 286 285 285
314 314 314 315 315 315 315 314 312 311 310 301 300 293 298 298 296 293 292 293 294 301 298 298 296 295 293 290 291 290 292 298 300 299 307 296 283 282 279 283 287 286 290 291 285 281 283
314 314 314 315 315 316 315 314 313 311 310 304 299 294 295 290 293 293 295 294 294 292 296 296 294 294 290 286 287 288 291 292 296 302 296 289 282 284 285 290 291 290 290 291 288 286 283
313 314 314 315 315 316 316 315 314 312 310 304 297 296 296 292 293 294 292 290 293 294 293 291 291 294 291 287 287 286 289 287 287 291 291 290 285 286 286 292 292 289 292 293 292 292 291
313 314 314 314 315 315 316 315 314 312 309 302 303 302 295 293 291 289 289 291 294 294 296 297 295 292 291 293 295 293 292 291 291 287 286 288 287 284 279 288 289 284 288 291 292 295 295
313 313 314 314 314 315 316 316 315 314 310 304 304 303 294 289 292 292 295 296 295 294 292 295 295 291 295 298 296 292 290 289 291 291 288 286 285 284 280 283 276 286 293 294 296 297 298
313 313 313 314 314 315 316 316 316 315 312 306 308 305 298 290 295 296 296 295 294 294 293 296 297 296 297 294 287 285 285 287 290 292 290 288 284 281 279 279 284 289 292 293 291 292 298
312 313 313 314 314 316 316 317 317 315 313 307 308 309 304 293 293 301 296 296 290 289 292 296 298 299 296 289 286 280 282 284 285 287 289 289 288 284 284 278 277 286 295 300 295 286 298
312 312 313 313 314 315 316 317 317 317 314 306 306 309 305 295 298 297 294 293 295 292 290 292 294 294 294 286 284 285 282 287 280 280 281 282 282 280 282 280 286 294 296 299 285 285 296
312 312 312 313 314 314 316 317 317 316 316 307 307 310 305 299 300 304 304 298 296 294 289 293 293 291 288 281 279 277 281 285 284 285 283 285 285 283 285 280 279 296 296 290 293 295 295
312 312 312 313 314 314 315 315 316 315 315 312 304 310 311 303 302 307 308 307 305 302 296 295 292 291 290 283 285 279 284 286 281 274 287 284 286 283 285 288 295 295 293 297 295 293 293

GFSGBSN_sfc_thetae_069.txt.gz
Theta_e
320 319 319 318 318 317 317 316 316 315 315 316 317 317 317 318 318 318 318 318 317 317 317 318 322 321 311 304 303 327 338 344 335 316 310 314 317 316 313 318 321 320 322 322 324 333 333
320 319 319 318 318 317 316 316 315 315 315 316 316 317 317 317 317 317 317 317 316 316 317 318 323 322 304 294 313 335 327 329 320 311 308 320 319 322 317 316 317 320 320 319 318 331 332
321 320 319 318 317 317 316 315 315 315 315 316 316 316 316 316 316 316 316 315 315 315 316 319 323 318 308 301 322 331 327 319 316 311 306 312 323 320 320 316 319 319 313 311 328 329 330
321 320 319 318 317 316 316 315 314 315 315 315 316 316 316 315 315 315 315 314 314 316 317 319 324 313 305 321 321 326 326 318 317 309 311 312 321 316 316 320 311 305 302 298 325 329 330
321 320 318 317 316 316 315 314 315 315 316 316 315 315 315 315 315 315 313 313 315 317 319 323 311 308 308 325 313 314 326 320 313 310 310 319 317 308 307 303 299 300 296 298 315 327 328
320 318 317 316 316 315 315 315 315 315 315 315 315 315 315 315 314 313 312 312 317 319 321 320 319 305 307 307 306 309 321 322 315 309 307 305 303 300 300 298 293 296 296 296 299 320 323
317 317 316 316 316 315 315 314 314 314 315 315 315 314 314 314 313 312 308 301 297 298 307 300 301 304 309 310 307 305 311 317 309 304 298 301 299 297 301 302 303 300 298 298 302 308 319
317 317 316 316 315 315 315 313 313 313 314 314 314 314 314 313 312 311 305 297 299 299 294 304 309 309 312 309 301 305 310 308 305 299 303 300 297 304 306 305 303 301 298 298 303 310 310
317 316 316 315 315 313 313 313 313 314 314 314 314 314 313 312 311 305 299 300 305 301 292 298 302 303 304 305 300 302 306 305 305 302 301 297 302 308 306 303 301 298 296 298 299 309 320
316 316 316 315 314 314 315 315 315 314 314 314 314 314 312 310 301 299 300 303 305 300 286 291 295 302 301 301 296 309 309 307 306 303 303 301 306 307 304 302 302 294 303 304 301 295 291
316 316 315 315 315 315 315 315 314 314 314 314 313 313 311 308 298 300 303 304 303 298 281 297 295 302 297 296 299 300 305 303 299 301 304 302 301 301 300 302 304 301 305 301 300 294 298
316 315 315 315 315 315 315 314 314 314 314 313 313 311 309 304 299 303 305 302 299 288 285 293 297 295 294 294 297 300 301 302 301 298 296 298 302 302 302 305 304 306 299 295 292 290 286
315 315 315 315 315 314 314 314 314 314 313 312 311 309 307 307 299 302 306 301 287 282 295 292 291 293 292 291 294 295 296 292 290 287 287 293 295 297 299 295 299 297 291 285 285 285 285
315 315 315 314 314 313 314 314 314 314 313 311 308 307 307 307 302 304 302 293 284 291 290 295 292 293 291 291 291 294 291 288 295 290 286 286 286 294 298 294 291 293 291 286 282 282 287
315 315 313 313 313 313 314 314 314 313 312 310 307 303 303 305 308 302 297 285 285 289 295 293 292 290 290 293 291 292 290 290 293 291 286 285 287 296 298 297 295 291 289 291 286 284 286
315 314 313 313 313 313 315 314 314 313 312 309 301 302 303 308 306 299 295 289 290 297 297 294 288 290 287 291 291 288 289 293 293 295 291 287 284 290 296 297 296 292 293 287 287 282 281
315 314 313 314 314 315 315 315 314 312 310 308 303 299 305 304 303 297 291 292 296 300 299 294 290 290 289 289 290 289 290 294 296 295 293 286 285 287 291 289 288 288 286 285 285 285 282
314 315 314 314 315 315 315 315 313 311 308 303 300 294 310 304 295 291 289 294 298 298 298 295 295 292 290 290 288 288 290 292 298 295 289 289 283 282 285 292 294 291 286 283 281 281 284
314 315 315 315 315 316 315 314 312 310 309 301 298 297 306 303 290 289 293 296 298 296 295 294 293 294 293 288 287 290 292 298 300 295 290 290 283 280 281 286 289 287 288 285 283 281 280
314 314 315 315 315 316 315 314 312 311 309 302 297 292 295 296 292 291 289 291 293 299 296 296 294 293 290 288 289 288 290 295 297 300 305 295 282 283 281 281 285 285 289 288 284 280 282
313 314 314 315 316 316 316 315 313 311 309 302 296 293 292 288 291 291 292 293 292 290 295 295 293 292 289 285 286 286 290 290 294 298 294 288 281 284 285 290 290 289 289 290 286 285 283
313 314 314 315 315 316 316 315 314 311 309 302 296 295 293 289 290 291 290 289 292 293 291 290 290 292 290 286 286 284 286 285 285 291 288 289 284 284 285 290 290 287 290 290 291 290 289
313 314 314 315 315 316 316 316 314 311 308 301 301 299 294 291 289 287 288 289 292 293 295 295 294 290 289 291 293 292 291 290 287 285 285 287 285 282 278 286 286 282 288 289 292 295 293
313 314 314 314 315 316 316 316 315 313 308 304 302 299 293 288 290 290 294 294 294 292 291 293 293 290 294 296 294 292 289 287 289 286 286 285 284 281 278 282 275 284 291 294 295 295 296
313 313 313 314 314 316 317 317 316 314 312 307 305 302 294 289 293 294 294 293 293 293 292 294 296 295 295 292 286 283 285 286 288 289 288 285 284 279 278 278 282 288 291 291 289 291 297
312 313 313 313 314 315 317 317 317 315 312 306 305 305 299 292 292 299 294 294 289 287 291 294 297 295 295 288 284 279 279 281 283 285 287 287 285 282 280 276 277 284 294 298 295 286 296
311 312 313 313 314 314 315 316 316 316 313 306 306 305 302 294 296 295 292 292 294 290 288 290 292 292 291 283 278 275 278 285 276 279 280 279 282 278 279 277 283 292 294 297 283 284 294
311 312 312 312 313 314 314 316 316 316 315 306 306 307 303 297 299 302 302 297 295 292 288 292 291 289 286 280 277 275 274 276 279 282 281 280 281 277 284 279 277 294 293 288 291 291 293
311 312 312 312 313 314 314 316 315 315 315 309 302 306 307 302 300 305 307 306 304 301 294 292 290 289 288 282 280 277 284 286 280 274 286 280 284 280 284 283 291 293 291 293 294 292 291

GFSGBSN_sfc_thetae_072.txt.gz
Theta_e
320 320 319 318 318 318 317 316 316 315 315 316 317 317 317 317 317 318 318 317 317 317 317 318 319 321 309 300 303 328 335 339 336 320 312 314 316 315 313 317 321 322 323 323 323 332 333
322 321 319 318 318 317 316 316 315 315 316 316 316 316 316 316 317 317 317 316 316 316 316 317 320 321 302 291 309 331 332 330 324 311 307 316 317 319 316 315 315 320 320 319 317 326 330
322 321 319 318 317 316 316 315 315 316 316 316 315 316 316 316 316 316 316 315 315 315 316 317 322 317 304 298 321 325 328 317 313 310 305 315 323 319 318 315 319 316 309 311 327 328 327
322 319 318 317 316 316 316 316 316 315 315 315 315 315 315 315 315 315 315 314 314 316 316 318 323 312 304 317 323 324 319 316 312 308 309 311 321 316 313 318 309 303 301 297 323 327 329
319 318 317 317 316 316 315 315 315 314 314 314 314 315 315 315 314 314 313 313 317 318 318 323 311 305 306 325 316 321 321 313 310 307 309 315 317 311 306 302 298 300 295 296 312 328 327
317 317 316 316 316 315 314 314 314 313 314 315 315 315 315 315 314 312 311 312 320 320 320 320 318 303 306 308 306 316 322 315 311 306 305 305 303 298 299 298 294 296 295 295 297 320 323
317 317 316 315 315 314 313 313 313 313 314 315 315 315 314 313 313 311 307 301 295 296 306 299 298 301 306 310 306 308 321 313 308 303 295 299 296 294 298 302 302 300 298 297 300 310 318
317 316 315 315 314 314 314 315 315 315 315 315 315 315 314 312 311 310 305 297 300 299 294 304 308 307 309 309 301 302 320 307 304 296 300 299 296 302 305 304 302 300 297 296 302 304 308
316 316 314 315 315 314 316 315 315 315 315 315 315 314 312 311 310 304 297 298 302 300 292 296 302 302 302 306 301 300 311 307 302 300 299 297 302 307 305 302 300 297 296 297 300 301 319
316 316 314 314 314 315 315 315 315 315 315 315 314 313 312 309 299 298 299 302 303 300 285 290 294 300 300 299 295 306 307 307 305 300 301 300 305 305 302 301 301 291 302 303 303 295 291
316 316 314 315 315 314 314 315 315 315 314 314 314 313 310 308 298 300 303 302 301 298 280 295 295 301 296 295 298 299 304 304 301 303 302 300 302 301 300 301 303 300 303 302 301 293 298
316 316 314 314 315 314 313 314 314 314 314 314 313 311 309 303 298 302 303 301 298 289 283 292 296 294 294 294 295 299 300 301 301 297 297 300 300 302 302 304 305 304 297 293 292 289 286
316 315 314 314 314 314 313 314 314 314 313 312 311 309 306 305 298 300 302 299 287 282 294 292 291 293 292 292 294 295 293 292 290 288 287 292 293 296 297 294 297 296 291 284 284 284 285
316 314 314 314 314 313 314 315 314 314 313 311 308 307 307 307 303 303 300 292 284 291 290 294 292 292 290 293 292 293 290 289 293 289 286 286 286 292 296 292 292 292 291 285 281 282 286
316 314 313 314 314 314 315 315 314 313 312 310 307 302 302 305 307 300 296 286 287 290 295 293 291 289 290 293 292 291 288 289 291 289 286 285 286 295 296 295 293 291 288 290 285 283 285
315 314 314 314 315 315 315 315 314 313 312 309 302 301 301 305 304 299 295 289 292 296 296 293 288 290 287 289 289 288 288 292 292 293 289 286 284 289 294 295 294 291 291 287 287 282 281
315 314 315 315 315 315 315 315 314 313 311 308 301 297 303 303 302 296 289 290 296 299 299 293 290 290 290 289 289 287 289 293 295 294 291 286 285 286 290 287 285 287 285 284 285 284 282
315 314 314 315 315 315 316 315 314 312 309 304 298 293 305 302 293 289 287 294 297 297 298 296 294 292 290 290 289 289 290 293 299 294 288 287 283 281 283 290 291 288 285 282 284 282 282
314 314 314 314 315 316 316 315 313 311 309 300 297 295 302 301 288 287 291 294 296 294 293 293 293 293 292 288 286 290 293 297 297 297 290 289 282 278 280 285 288 287 287 283 281 281 280
314 314 314 315 316 316 316 314 313 311 309 302 295 290 294 294 290 289 288 290 291 298 295 295 293 292 289 287 288 287 289 295 296 299 304 295 284 281 279 281 284 285 289 288 282 281 281
313 314 314 315 316 316 316 315 313 310 309 300 294 290 290 287 289 290 290 291 291 290 293 294 292 291 288 284 285 286 288 290 294 297 293 287 283 285 286 289 289 288 288 289 285 285 282
313 314 313 315 315 316 316 315 313 311 308 301 296 292 290 288 288 289 289 288 290 291 291 289 289 291 290 286 285 283 286 286 285 290 288 288 284 284 284 289 288 287 289 290 289 290 288
312 313 314 314 315 316 317 316 314 311 307 301 299 296 293 291 287 286 286 288 291 291 294 294 292 290 289 290 291 290 289 288 286 284 285 285 284 281 278 285 285 282 286 288 292 295 293
312 313 314 314 315 316 317 316 315 312 308 303 300 295 292 288 289 289 292 293 292 292 290 292 293 289 293 294 293 290 289 288 289 287 284 284 281 280 279 280 275 282 290 292 294 295 296
312 312 313 314 314 315 317 317 316 314 311 305 302 299 293 288 291 292 293 292 292 292 291 293 295 294 292 291 285 283 284 284 287 287 286 284 282 279 278 276 281 287 292 292 290 290 296
312 312 313 313 314 314 316 317 316 315 312 305 302 301 296 292 291 297 293 292 288 286 289 292 295 294 292 286 283 278 278 281 282 284 285 285 284 281 278 277 276 284 293 296 295 284 296
311 311 312 313 313 314 315 316 316 316 313 306 305 303 298 293 295 295 291 290 291 288 287 288 290 290 289 282 277 274 277 283 275 279 279 279 279 279 279 276 282 291 294 296 283 284 294
311 311 312 312 313 314 314 315 315 315 315 307 305 304 302 295 297 300 300 295 293 291 288 290 289 288 284 278 277 277 273 280 276 280 279 279 276 277 280 277 277 294 293 288 290 292 294
310 311 311 312 312 313 314 315 315 315 315 307 301 303 305 301 298 302 304 304 303 299 293 290 289 287 286 281 280 276 275 281 279 272 284 278 283 280 282 282 290 293 291 293 294 292 293

GFSGBSN_sfc_thetae_075.txt.gz
Theta_e
323 323 320 318 318 317 316 316 316 316 316 316 316 316 316 317 317 318 318 317 317 317 317 317 318 320 316 306 304 332 335 344 332 326 319 320 319 324 322 326 325 325 327 327 329 334 334
322 320 318 317 317 317 316 316 316 316 315 315 315 315 315 316 316 317 317 316 316 316 316 317 318 321 309 298 318 330 327 339 327 319 319 322 319 326 325 322 321 322 323 321 322 327 335
320 318 317 317 317 316 316 315 315 315 315 314 314 315 315 315 316 316 316 315 315 315 316 316 319 318 308 303 327 329 330 331 328 316 316 324 327 325 324 321 324 321 314 322 329 329 330
317 318 317 316 316 315 315 315 314 314 313 313 314 315 315 315 315 314 313 313 314 317 317 318 322 318 309 320 328 327 322 319 319 317 315 320 328 325 321 322 314 310 310 307 327 330 331
317 317 316 316 316 315 315 314 314 314 314 315 315 315 315 315 314 313 312 312 320 319 319 323 318 315 309 326 321 323 321 315 316 314 315 318 324 321 315 313 309 308 307 305 321 331 330
317 317 316 316 315 315 314 314 315 315 315 315 316 315 315 314 313 312 311 312 319 322 322 322 319 310 313 311 318 320 324 317 312 311 310 310 312 313 312 310 305 306 305 305 312 327 328
317 316 316 315 315 315 315 314 315 315 314 315 316 315 313 313 312 310 309 312 304 306 314 304 304 306 305 313 320 318 319 315 311 309 303 307 307 306 312 312 308 307 306 305 307 323 321
317 315 315 315 314 315 315 314 315 315 315 316 315 314 313 312 311 310 308 304 305 305 301 306 309 309 311 312 305 316 320 311 305 301 305 303 303 310 312 309 308 307 305 305 307 313 313
317 316 315 315 316 315 315 314 315 315 315 315 315 314 313 311 310 308 302 305 308 307 301 301 306 306 307 311 304 311 318 312 304 302 303 302 308 312 309 307 307 306 306 305 305 307 325
317 316 314 316 315 314 314 313 315 315 315 315 314 313 312 310 303 305 305 308 308 307 295 295 300 305 307 308 302 313 321 313 307 301 304 306 310 312 308 307 309 306 309 307 306 305 302
317 316 315 315 315 313 313 314 315 315 315 314 313 312 310 308 305 307 308 309 307 303 284 297 300 308 304 303 304 306 316 310 307 306 307 305 307 310 307 308 310 307 309 308 307 304 306
317 316 315 315 315 314 314 314 315 315 314 314 312 311 309 306 306 308 308 308 304 294 286 295 300 300 300 301 301 305 306 308 310 308 308 306 309 310 309 310 311 310 305 303 302 302 298
316 315 315 315 315 314 314 315 315 314 313 312 310 309 307 308 307 308 310 306 293 288 298 294 294 298 298 297 298 302 300 300 301 300 301 300 299 301 302 304 308 307 303 296 295 295 297
317 316 315 315 314 315 315 315 315 314 313 311 308 307 309 310 312 311 307 301 289 294 294 299 296 298 295 297 297 298 297 296 299 298 299 299 294 298 301 300 303 305 304 298 292 292 296
317 315 315 315 315 315 315 315 314 314 312 310 307 311 311 311 311 308 305 293 291 293 296 296 296 294 294 296 298 297 295 295 296 297 298 295 293 299 299 300 300 300 300 301 297 295 297
316 315 314 314 315 315 315 315 314 314 312 310 311 310 310 309 311 309 301 293 295 299 298 297 292 295 292 294 295 296 295 297 296 298 298 296 292 296 298 300 301 301 300 298 299 293 292
316 314 314 314 315 315 316 315 314 313 311 309 309 308 311 309 309 304 294 295 297 300 300 297 294 293 293 294 294 293 293 297 299 298 299 296 296 294 297 294 293 298 297 296 299 296 295
316 315 314 314 315 316 316 315 314 311 309 308 307 302 311 309 302 298 295 297 297 298 299 298 298 296 294 293 293 293 293 295 300 299 295 296 295 290 291 295 296 296 293 294 298 295 295
315 314 315 314 315 316 316 315 313 310 309 310 305 303 311 308 296 295 298 297 298 297 296 296 294 296 296 293 291 294 295 298 300 300 297 297 292 289 290 294 296 294 295 294 293 296 293
315 314 314 314 316 316 316 315 313 311 309 308 304 298 303 302 298 297 295 295 295 299 297 297 296 297 295 294 295 292 293 297 298 302 303 299 293 292 291 291 294 292 293 294 294 295 292
314 313 314 315 316 316 316 315 313 311 309 309 302 297 297 294 296 297 297 295 293 293 297 298 295 294 294 293 293 292 294 295 298 299 299 298 292 294 293 294 294 293 292 293 292 293 293
314 313 314 315 315 316 317 316 314 311 308 308 304 300 299 296 295 296 295 294 293 294 295 293 293 295 296 293 293 292 294 294 293 297 296 297 291 293 290 292 292 291 293 293 293 293 294
313 313 314 314 315 316 317 316 314 311 310 310 307 302 302 294 295 295 294 294 294 296 297 297 296 295 294 295 298 298 298 297 296 294 294 295 293 291 287 291 291 287 292 293 294 298 297
313 312 313 314 315 315 317 317 315 313 310 313 309 304 302 295 296 295 296 297 296 296 295 297 299 296 297 300 300 300 298 298 298 295 295 293 293 292 288 288 282 291 297 295 296 299 301
313 312 313 314 314 315 316 317 316 314 311 313 311 307 303 297 298 297 297 297 298 299 298 298 299 300 301 298 294 292 292 293 293 294 294 295 294 289 287 286 288 291 294 295 294 294 301
312 312 312 313 314 314 315 317 316 315 311 314 311 309 306 301 298 301 298 298 297 296 297 298 301 301 300 297 294 288 287 289 288 290 295 295 295 293 289 284 282 291 297 300 300 290 299
311 311 312 313 313 314 315 316 316 316 313 314 312 311 308 304 303 302 300 298 298 297 297 298 299 298 298 294 290 290 287 289 287 288 289 291 292 289 289 287 289 295 298 301 288 292 299
312 311 311 312 313 313 314 315 315 315 315 314 311 311 311 306 305 304 304 301 299 300 297 298 297 296 294 291 292 289 289 287 287 290 290 290 289 288 289 287 284 299 297 293 297 299 299
311 311 311 312 312 313 314 314 315 315 314 310 310 310 312 310 306 309 310 309 308 306 302 299 297 296 296 292 290 291 288 287 287 286 292 287 293 292 292 292 298 300 298 300 299 297 298

GFSGBSN_sfc_thetae_078.txt.gz
Theta_e
321 319 318 318 317 317 317 316 316 316 316 316 316 315 315 316 317 317 318 318 317 317 317 318 319 320 320 311 307 331 335 336 338 331 326 322 323 323 323 327 328 329 329 328 328 334 334
318 318 318 318 317 316 316 316 316 316 315 315 314 315 316 316 316 317 317 316 315 315 316 317 319 321 314 304 324 329 324 325 330 325 321 321 320 324 324 328 328 329 329 324 324 330 335
318 318 318 317 317 316 316 316 316 315 315 315 315 315 315 315 316 316 315 315 314 315 316 317 320 321 311 308 328 325 332 328 326 322 318 322 322 323 326 324 330 328 321 324 327 327 330
318 317 317 317 316 316 316 315 316 316 316 315 316 315 315 315 315 315 314 313 315 320 318 318 321 321 311 324 331 324 330 329 324 324 322 326 328 325 325 329 325 322 320 314 327 329 332
317 317 317 316 316 316 316 316 316 315 316 315 315 315 315 315 314 314 312 313 321 320 319 321 321 319 309 328 324 324 327 322 321 320 322 325 325 322 324 319 317 320 315 313 323 332 332
317 316 316 316 316 316 316 316 316 315 315 315 316 316 315 314 313 312 311 312 321 323 323 324 322 312 316 313 323 321 322 322 317 315 313 316 319 315 318 316 308 315 314 312 319 329 331
317 316 316 316 316 316 316 316 315 315 316 316 316 315 315 314 312 311 313 319 313 315 314 308 308 309 314 320 325 320 322 317 316 313 306 311 310 307 311 317 316 319 316 314 318 330 326
317 317 316 315 316 315 315 315 315 316 315 316 316 315 314 313 311 310 315 311 310 310 305 312 310 310 313 319 313 317 323 314 310 306 309 306 305 310 314 318 314 315 313 312 313 319 317
317 316 315 316 316 316 315 315 315 315 316 316 315 315 313 311 311 312 313 311 315 314 305 306 310 309 311 313 311 314 319 316 309 306 306 304 307 312 314 315 312 314 314 312 311 313 321
318 317 316 316 316 315 315 315 315 316 316 315 315 314 312 310 308 316 312 314 317 314 300 301 303 307 310 313 307 319 320 316 309 305 307 306 313 311 313 312 314 310 316 312 310 309 309
318 317 316 315 315 315 315 315 315 316 315 315 314 312 310 308 315 313 313 317 316 311 289 300 303 313 313 308 310 313 320 317 308 306 307 306 310 311 310 312 315 311 316 313 311 310 308
318 317 316 315 315 316 315 315 315 315 315 314 312 311 310 312 316 315 316 317 311 298 289 298 304 304 305 306 308 314 315 315 316 309 309 310 316 317 314 315 315 315 312 312 312 310 302
319 317 315 315 315 315 315 315 315 315 314 313 311 309 311 316 314 319 319 312 298 292 302 297 298 303 302 302 304 307 308 306 306 302 303 308 310 312 313 313 315 313 308 302 301 300 301
319 317 316 315 315 315 315 315 315 315 314 312 309 307 312 317 319 318 316 305 292 297 297 302 299 301 298 303 304 305 305 303 306 307 304 301 298 307 306 310 309 310 308 302 296 297 301
319 317 315 314 315 315 315 315 315 314 313 310 307 321 319 317 319 319 309 298 296 297 300 298 299 297 298 301 303 304 303 302 302 305 303 303 298 303 304 306 307 309 305 311 304 306 303
318 316 315 315 315 315 315 315 315 314 312 310 321 319 317 318 320 314 307 296 299 302 300 301 295 298 297 299 301 302 301 302 301 303 306 305 297 302 302 305 306 309 312 303 304 298 297
319 316 315 315 315 315 316 316 315 313 311 309 318 311 316 318 317 312 303 300 300 304 303 300 297 298 298 298 301 299 298 301 303 303 305 305 303 299 302 301 302 304 305 306 307 305 300
318 316 315 315 315 316 316 316 314 311 309 309 315 307 317 318 308 310 303 302 299 301 305 303 302 299 299 299 298 298 297 299 304 304 301 303 304 298 299 301 302 303 303 306 302 301 304
318 315 315 316 315 316 316 315 313 311 309 318 312 310 317 316 303 302 303 301 302 302 300 300 299 301 301 298 295 299 298 301 305 304 303 303 302 295 296 299 301 302 302 304 304 306 303
318 315 314 316 316 317 316 315 313 311 310 315 311 303 309 311 310 304 302 300 299 302 301 302 300 302 301 298 301 296 298 300 303 304 304 305 302 299 296 298 302 298 299 301 303 302 303
318 314 314 315 316 317 316 315 313 311 310 315 310 303 304 301 302 303 303 300 297 297 301 303 300 300 300 297 298 297 298 299 302 303 303 305 298 300 299 299 299 298 297 298 300 302 301
317 313 314 315 316 316 316 316 314 312 309 315 308 307 307 303 302 301 299 299 297 298 299 297 298 301 302 299 301 298 301 302 299 301 301 302 298 300 296 297 297 296 297 297 297 298 301
316 313 313 315 315 316 316 316 315 312 312 314 315 311 308 298 300 301 299 298 297 300 300 300 299 300 299 299 303 303 304 304 303 302 300 300 298 296 293 295 295 292 297 298 299 300 301
315 313 313 314 315 316 317 317 315 313 311 320 316 313 309 299 303 300 300 300 299 300 298 300 301 300 301 306 305 305 304 303 302 301 303 300 299 298 296 294 286 297 301 300 299 302 303
314 312 312 314 314 315 316 317 316 314 311 320 321 314 310 302 302 301 301 300 302 303 301 301 302 304 306 303 299 296 297 297 297 299 300 303 299 295 292 291 294 294 298 298 299 299 304
313 312 312 313 314 315 315 317 317 315 312 321 319 320 314 308 303 304 302 303 301 300 301 301 306 307 305 302 300 293 293 295 293 295 301 299 302 296 293 289 287 297 301 304 303 296 305
313 312 311 313 313 314 315 316 316 316 314 318 319 321 315 310 308 307 305 304 306 303 302 302 302 302 304 301 298 297 295 296 293 292 293 295 296 293 293 291 294 300 302 304 291 297 305
312 311 311 312 313 313 315 315 315 315 315 316 318 321 317 311 310 309 308 306 306 306 304 303 301 300 300 298 299 298 298 296 294 297 296 295 294 294 295 292 289 304 302 297 304 306 305
311 310 311 312 312 313 314 315 315 315 315 313 316 320 320 314 312 316 315 314 312 311 309 306 302 300 302 301 302 300 295 294 294 292 298 293 298 299 297 299 304 306 305 307 305 303 304

GFSGBSN_sfc_thetae_081.txt.gz
Theta_e
319 319 318 318 318 318 317 317 317 317 316 316 315 316 316 317 317 317 318 318 317 317 317 318 319 320 321 313 312 335 336 336 328 336 330 323 326 329 326 329 332 331 329 329 334 333 337
319 319 318 318 318 317 317 316 316 316 317 316 316 316 316 316 317 317 317 316 316 316 317 318 319 320 317 307 323 331 326 322 324 330 327 325 326 330 326 329 326 332 332 327 330 328 337
319 318 318 318 318 317 317 317 317 317 317 316 316 316 316 316 317 316 316 315 315 317 318 318 319 321 315 311 326 326 323 321 327 328 324 324 325 324 327 327 335 332 325 326 328 332 333
319 317 317 317 317 317 317 317 317 317 316 316 316 316 316 317 317 316 316 314 316 321 321 319 321 320 315 319 328 324 324 323 329 328 324 325 325 323 325 330 329 327 327 318 326 330 333
319 318 317 318 317 317 317 317 316 316 316 316 316 317 317 316 316 315 313 313 316 320 321 320 321 320 311 327 324 325 329 323 324 324 324 324 325 320 324 321 320 324 317 317 322 331 332
319 318 317 317 317 317 317 317 316 316 317 317 317 317 317 316 315 314 313 312 318 321 322 324 322 312 316 313 322 325 328 326 319 319 318 319 319 315 318 318 310 315 316 317 319 328 328
319 318 317 316 316 317 317 316 316 316 317 317 317 317 316 316 314 312 313 320 317 318 318 314 312 311 313 318 325 321 324 322 319 315 309 313 311 308 313 316 319 318 317 316 322 328 327
318 318 317 316 317 317 317 317 316 316 316 316 317 316 315 313 313 312 315 315 313 314 307 315 313 312 317 322 315 318 322 315 313 308 311 309 307 314 316 317 318 318 317 314 321 326 326
319 318 317 317 317 317 316 316 316 316 316 317 316 316 314 313 312 313 317 314 319 318 307 310 313 310 313 319 314 315 319 316 311 308 309 307 309 314 312 313 315 318 317 315 314 320 322
320 319 317 317 316 316 316 316 316 316 316 316 315 314 313 311 307 320 315 318 320 318 302 304 307 310 313 314 310 320 321 316 312 308 310 309 313 311 310 311 316 313 319 316 315 314 310
320 319 317 316 316 316 316 316 316 316 316 316 315 314 311 309 319 314 316 320 320 315 291 303 306 316 314 310 312 314 321 317 310 308 310 307 309 309 309 313 317 312 319 317 315 313 314
321 319 317 316 316 316 316 316 316 316 315 315 314 312 311 316 319 317 319 320 316 299 291 301 306 305 307 309 310 315 314 319 317 309 311 310 314 315 313 316 316 317 316 316 315 312 305
321 319 317 316 316 316 315 316 316 315 315 314 312 310 311 321 317 323 321 315 300 295 305 299 301 305 306 305 307 310 308 309 307 303 303 308 310 316 317 313 316 315 312 305 303 303 302
321 319 317 316 316 316 315 316 316 315 314 312 309 308 314 321 324 322 318 307 295 300 300 305 303 304 302 304 305 308 308 306 310 309 304 303 302 313 317 314 312 312 311 305 298 300 302
321 319 316 316 316 316 316 316 315 315 313 311 308 321 322 325 323 322 312 298 298 301 302 300 301 299 300 303 305 306 307 305 309 312 304 304 303 312 315 317 313 311 308 313 307 309 304
321 319 316 316 316 315 316 316 315 314 313 310 321 320 320 323 323 318 307 299 302 305 305 302 296 301 298 301 302 303 303 305 306 309 311 307 302 308 308 310 313 311 315 306 307 300 299
321 318 316 316 316 316 316 316 315 314 311 309 319 313 320 325 321 313 300 303 303 307 306 301 299 300 299 300 302 301 303 305 306 308 311 309 307 304 307 306 307 308 308 310 310 308 302
320 318 316 316 316 316 316 316 314 312 309 307 317 307 319 322 308 310 304 306 301 305 306 304 303 303 300 302 299 299 301 304 307 308 307 309 307 301 303 308 309 309 310 310 304 304 307
320 318 315 316 316 317 317 316 314 311 310 318 313 311 319 317 302 305 307 304 305 304 304 304 302 302 305 303 298 301 302 304 307 307 307 308 304 299 300 303 307 305 308 310 311 310 306
320 317 315 316 317 317 316 315 313 312 311 315 312 306 311 316 312 307 304 304 302 305 304 305 304 303 303 301 305 301 300 303 306 306 308 309 306 303 298 302 305 303 304 307 308 304 306
320 317 314 315 316 317 317 315 314 312 311 318 313 305 308 304 305 306 307 303 300 300 304 306 304 304 301 299 300 300 303 303 305 309 307 308 302 304 303 303 305 305 304 304 305 307 304
319 316 314 315 316 317 317 316 314 312 310 317 311 310 309 306 306 303 300 301 299 301 303 301 303 303 305 301 303 300 303 303 302 305 306 306 302 304 300 301 302 300 301 302 304 304 306
318 314 313 315 316 317 317 316 315 312 313 316 319 315 311 301 304 304 302 302 300 302 302 303 303 304 304 303 307 309 309 308 308 306 302 303 304 300 297 300 299 296 300 302 303 304 307
318 314 313 314 315 316 317 317 316 314 312 321 318 316 310 303 305 303 302 302 302 303 300 302 304 303 305 309 309 309 308 307 307 307 308 303 303 302 296 300 290 301 305 304 303 304 308
317 313 312 314 315 315 317 317 317 315 313 322 321 317 312 305 305 304 303 302 304 304 303 303 304 307 309 307 303 299 300 300 301 303 304 306 304 297 294 294 298 299 301 301 302 303 307
317 312 311 313 314 315 316 317 317 315 313 322 321 324 316 310 305 306 304 305 304 303 303 303 307 311 308 305 303 296 294 297 297 298 303 302 305 300 297 293 290 300 304 307 306 299 308
315 311 311 313 314 314 316 316 316 316 314 317 320 325 319 312 310 309 307 307 309 306 304 305 304 305 308 304 301 299 299 301 297 295 296 298 299 296 296 294 298 305 305 306 294 301 309
312 311 311 312 313 314 315 316 316 316 316 316 320 322 318 312 313 311 310 309 307 308 305 306 303 304 303 301 303 302 300 301 299 301 299 299 297 297 298 295 292 307 304 299 308 311 310
311 310 311 312 313 313 314 315 316 316 315 314 318 324 323 317 315 317 316 317 314 313 311 308 306 303 304 305 305 305 301 301 299 297 303 297 302 302 300 302 309 309 309 312 312 309 308

GFSGBSN_sfc_thetae_084.txt.gz
Theta_e
320 319 319 318 318 318 318 317 317 318 317 318 317 317 317 317 317 318 318 318 318 318 318 318 319 320 319 314 311 332 343 337 319 325 332 327 324 329 326 329 333 330 330 334 337 335 334
319 319 318 318 318 317 317 317 317 317 317 317 317 317 317 316 317 318 317 317 316 317 318 319 319 320 315 306 323 333 325 317 318 325 332 327 323 330 327 328 330 331 331 328 332 334 335
320 318 318 318 317 318 317 317 317 318 317 317 316 316 317 317 317 318 317 316 316 316 319 320 320 319 313 311 322 328 324 318 320 325 328 327 326 328 327 325 334 331 326 325 329 335 334
320 319 318 318 318 318 318 317 317 317 317 317 317 317 317 317 317 316 317 316 315 317 323 323 321 319 310 323 322 323 323 319 321 325 328 328 326 323 324 328 332 327 326 316 325 333 334
320 319 318 317 318 318 317 317 317 317 317 317 317 317 318 317 317 316 315 314 315 321 322 322 317 318 311 328 316 323 322 317 322 326 326 325 322 317 319 317 319 324 316 317 320 331 331
320 319 318 317 317 317 317 317 317 317 317 317 317 317 317 317 316 315 314 313 319 320 321 320 321 314 314 317 317 321 327 323 321 321 318 317 315 313 313 315 309 314 315 317 319 327 329
321 319 318 317 318 317 318 317 317 317 317 317 317 317 317 316 314 313 313 319 316 316 320 314 313 314 314 320 322 320 325 322 320 317 310 314 309 307 310 315 319 318 317 315 320 323 327
322 320 318 317 317 317 318 317 317 317 317 317 317 316 315 315 314 313 313 316 313 314 306 318 317 314 317 318 314 318 324 316 312 308 312 310 306 311 313 315 315 316 314 316 320 324 325
323 321 319 318 317 317 317 317 317 317 316 317 316 315 315 314 313 311 316 315 318 318 306 308 312 313 313 318 314 314 318 316 310 308 308 306 308 312 312 311 312 313 313 315 316 318 318
323 321 319 318 317 317 317 317 316 316 316 316 315 315 314 312 308 319 316 318 320 318 301 304 307 311 312 315 312 319 319 315 311 307 308 308 312 310 311 309 312 309 318 317 319 317 311
323 321 319 318 317 317 317 316 316 316 316 315 315 314 312 310 315 314 317 319 319 315 290 305 307 316 313 309 312 314 321 315 309 308 309 306 308 308 307 309 312 312 319 317 316 313 312
323 322 320 318 317 317 316 316 316 316 316 316 314 313 311 316 316 318 319 319 316 299 291 302 306 305 305 308 309 313 315 317 315 311 310 309 314 312 310 313 313 318 316 317 316 312 304
322 322 320 317 316 316 316 316 316 315 315 314 313 311 311 320 316 323 321 314 300 294 306 301 302 304 303 304 306 309 309 308 306 302 302 307 308 311 314 310 315 315 311 304 303 303 301
322 322 319 317 316 316 316 316 316 315 314 313 310 309 315 318 324 323 318 307 295 301 300 307 304 304 300 304 305 306 307 304 309 308 303 301 299 308 314 311 310 311 310 304 298 299 302
321 321 319 316 316 316 316 316 315 315 314 311 309 319 320 323 325 321 311 300 298 300 305 302 303 299 300 303 304 305 305 305 307 310 303 301 302 312 313 315 315 310 307 314 307 308 303
321 321 319 316 316 316 316 316 315 315 313 311 317 318 320 325 323 318 307 296 301 307 306 304 298 300 297 300 300 303 304 307 307 309 312 307 301 310 313 316 317 312 314 305 307 299 298
320 321 319 316 316 316 316 316 315 314 312 310 316 313 321 324 319 311 299 300 305 307 307 303 300 300 301 299 302 302 302 308 309 308 312 309 307 307 312 309 308 309 307 309 309 307 300
320 320 318 316 316 317 317 316 315 312 310 309 317 309 321 320 306 309 306 305 301 305 306 305 305 302 302 303 301 300 300 302 309 308 305 310 308 301 304 310 313 312 310 310 304 304 307
319 320 318 316 316 317 317 316 314 311 311 315 314 311 318 316 303 303 306 305 306 304 305 304 302 303 305 303 299 302 303 309 308 307 306 307 305 299 301 305 309 306 308 310 310 310 305
319 320 318 316 317 317 317 315 314 312 312 315 313 305 311 314 311 306 305 304 303 306 304 306 304 304 301 301 304 300 300 304 307 307 313 312 305 300 296 301 305 303 306 309 308 303 305
319 320 316 316 317 317 316 315 314 312 312 317 314 305 308 303 305 306 306 304 301 301 305 307 304 302 300 299 301 300 302 303 306 312 308 307 301 304 304 305 306 305 305 305 305 307 305
318 318 315 315 317 317 317 316 315 313 310 319 308 309 310 306 306 304 300 302 301 301 303 301 302 305 304 300 302 300 302 303 304 305 306 307 301 305 301 303 304 303 305 306 306 307 308
318 318 314 315 316 317 317 316 315 313 313 316 316 316 312 302 305 304 302 302 301 303 302 305 306 306 305 304 308 308 309 308 307 306 305 304 302 301 298 301 300 298 302 302 304 307 312
317 317 314 313 315 316 317 317 316 314 312 320 318 319 311 303 305 303 303 304 303 304 301 303 305 305 307 310 310 309 308 307 307 306 307 304 303 301 297 300 291 302 307 306 304 306 313
317 316 313 313 315 315 317 318 317 315 313 318 321 319 313 304 305 304 303 303 304 305 303 303 304 308 310 307 303 300 300 301 302 305 304 306 304 298 294 295 299 300 303 302 302 302 313
317 315 312 313 315 315 316 318 318 316 314 317 321 323 319 310 305 306 305 306 305 303 303 305 308 310 308 305 301 295 294 298 297 299 304 304 306 300 297 292 290 300 305 308 306 299 310
315 312 311 312 314 315 316 317 317 317 315 315 321 324 320 312 310 310 308 307 308 306 304 305 305 305 309 304 300 299 299 303 297 296 297 297 299 296 296 294 298 306 306 307 295 301 311
313 311 311 312 314 315 315 316 317 317 316 315 321 324 317 314 313 311 310 308 307 309 305 306 304 305 304 301 301 301 300 303 300 303 300 298 296 296 296 294 292 308 304 299 309 312 311
314 311 311 312 313 314 315 316 317 317 316 315 319 324 323 317 315 316 316 316 315 313 310 308 306 305 305 304 304 303 301 301 299 296 304 298 302 301 301 302 309 311 310 313 312 311 311

GFSGBSN_sfc_thetae_087.txt.gz
Theta_e
320 320 319 318 318 318 317 317 317 317 317 317 317 317 317 317 317 318 318 318 317 317 318 319 319 320 316 309 308 329 346 343 326 317 316 325 323 321 322 326 330 322 328 334 335 333 332
320 320 319 318 318 317 317 317 317 317 317 316 316 316 316 317 317 317 317 317 316 317 317 319 320 320 312 299 326 329 320 316 312 313 318 327 325 323 326 325 329 332 331 333 332 331 332
321 320 319 317 318 317 317 317 317 318 317 317 317 317 316 316 317 317 317 316 316 316 317 320 321 318 310 306 324 328 318 309 310 313 324 329 330 318 325 321 331 331 325 328 332 331 330
321 321 319 318 317 316 317 318 318 318 318 317 317 317 316 317 318 318 317 316 316 316 319 324 322 314 305 316 318 321 319 313 311 315 326 329 326 317 315 321 325 324 324 318 327 331 332
322 321 320 318 318 317 318 318 317 318 318 318 317 316 316 318 317 317 315 315 316 318 323 323 314 311 306 324 314 315 318 313 311 315 319 326 320 312 312 307 309 319 312 316 320 332 330
323 322 320 318 317 318 318 318 318 318 318 316 316 316 317 317 315 314 314 314 316 316 319 319 315 307 313 313 315 315 317 316 312 315 314 316 308 303 303 300 298 309 312 316 316 327 328
325 322 320 318 318 318 318 318 318 318 317 316 317 316 315 315 315 314 311 313 309 308 315 307 306 313 314 316 317 314 318 314 315 314 305 308 299 297 303 306 308 312 312 314 320 326 326
325 324 321 319 318 318 317 318 317 317 317 316 316 316 315 315 314 313 309 309 313 307 300 313 314 314 316 314 309 314 319 311 310 304 307 302 298 306 310 310 309 308 310 313 321 325 322
324 323 320 319 318 317 317 317 317 317 317 316 315 315 314 314 313 308 308 312 318 311 300 305 308 313 312 310 310 311 314 313 307 304 305 301 305 311 309 306 306 306 307 310 315 320 319
323 323 320 319 317 317 317 317 317 316 317 316 315 314 313 312 308 312 311 316 318 312 293 300 302 307 311 310 308 318 317 313 308 302 305 303 309 308 306 304 305 299 309 312 314 313 306
322 322 320 319 317 317 317 316 316 316 316 316 316 315 312 311 307 308 312 312 312 307 285 304 304 314 309 304 307 312 317 312 305 304 303 301 304 304 303 305 308 304 312 315 316 311 311
322 322 321 319 317 316 316 316 316 316 316 316 315 314 312 310 310 312 316 316 310 294 288 302 305 303 302 303 305 309 311 312 311 306 305 304 309 306 305 309 309 311 307 313 312 310 300
322 322 322 319 316 316 316 316 316 315 315 314 313 311 310 315 310 317 319 309 294 289 305 301 301 304 300 299 302 303 306 304 300 293 296 303 304 307 309 303 306 305 299 297 297 299 297
321 321 321 319 316 315 316 316 315 315 314 313 310 309 310 315 317 318 316 301 292 300 299 305 304 304 299 299 300 302 303 300 305 303 297 296 293 303 308 303 301 301 301 296 294 294 296
321 321 321 319 316 316 316 316 315 315 314 311 309 313 313 317 319 317 307 296 296 300 304 301 300 296 297 299 300 300 301 301 304 304 296 294 296 306 308 309 306 302 300 305 297 301 295
320 321 321 319 316 316 316 316 315 314 313 311 309 312 313 321 322 315 304 294 301 306 306 303 295 299 295 298 299 300 301 304 304 307 304 301 295 303 307 309 310 305 307 298 296 292 290
319 320 320 319 316 316 316 316 315 314 312 309 312 308 317 320 320 310 298 300 303 308 307 301 299 298 298 298 299 299 301 305 307 307 306 304 299 300 305 301 302 303 301 301 299 299 292
319 319 320 318 315 316 317 316 314 312 310 310 311 305 319 318 305 306 300 304 304 304 304 304 303 301 301 301 300 300 300 302 308 307 300 306 297 295 300 308 310 306 303 301 294 294 299
319 319 320 317 315 316 317 315 313 311 311 311 308 311 315 311 300 302 305 305 307 304 303 303 301 302 304 301 297 300 303 307 308 305 299 304 296 293 295 302 304 299 302 301 300 298 297
319 319 320 316 316 317 317 315 313 312 312 310 310 305 308 310 309 304 302 303 303 305 304 305 303 303 300 300 302 299 301 305 306 307 317 309 298 298 293 295 298 297 302 302 298 293 300
318 319 319 316 316 317 317 315 314 312 312 310 314 303 305 298 301 301 302 302 300 300 305 305 304 303 299 295 298 298 301 301 304 312 307 303 296 298 301 303 303 301 301 303 298 306 304
318 318 319 316 315 317 317 316 315 313 310 318 306 304 308 301 305 304 300 299 299 299 300 300 301 303 301 297 298 298 300 298 299 304 302 302 296 300 299 303 301 299 303 304 302 310 309
318 318 319 316 315 317 317 316 315 313 311 317 317 316 313 306 303 300 299 300 300 303 302 302 303 305 301 302 304 304 303 302 301 299 299 300 298 296 291 299 298 295 300 300 302 312 311
317 317 318 315 315 316 317 317 316 314 312 313 319 315 310 303 301 301 301 302 301 302 301 303 304 303 304 308 307 304 303 301 303 298 299 298 299 297 292 295 288 296 301 303 302 313 313
317 317 316 314 315 316 317 317 317 315 313 312 319 315 313 306 303 303 302 303 303 303 301 302 303 304 306 303 298 296 295 295 299 301 298 299 297 294 289 288 296 298 300 300 303 308 315
317 316 313 313 314 315 317 317 317 316 314 314 319 321 317 311 301 306 305 307 302 300 301 302 306 305 304 299 297 292 290 297 295 298 299 297 299 295 292 287 286 295 302 304 303 302 315
316 313 313 313 314 315 316 317 318 318 315 313 316 324 318 311 308 310 305 304 307 305 301 302 303 302 303 299 295 294 294 302 294 295 292 292 294 291 291 290 296 302 303 303 292 298 311
317 314 313 313 314 314 315 316 317 318 316 314 317 325 317 311 311 312 311 309 308 306 301 304 301 302 300 297 297 296 294 298 295 298 296 294 290 291 292 290 288 308 306 300 303 305 309
316 315 312 313 314 314 315 316 317 317 316 315 319 323 324 316 314 316 315 315 314 311 306 305 301 303 301 301 301 300 295 296 294 290 300 293 297 295 298 296 304 307 306 308 308 306 306

GFSGBSN_sfc_thetae_090.txt.gz
Theta_e
321 320 319 318 318 317 317 317 317 317 317 317 317 316 316 316 316 317 317 317 317 317 317 318 318 320 314 305 305 322 350 342 338 317 311 311 317 319 315 323 331 329 330 334 334 333 333
321 321 320 318 317 317 317 317 317 317 316 317 317 317 316 316 316 317 317 317 316 316 317 317 319 320 308 295 314 333 329 323 316 312 310 316 323 324 318 322 326 330 332 333 332 330 330
322 321 320 319 318 318 316 318 317 318 318 318 317 317 317 316 317 317 317 316 317 317 317 318 320 318 309 302 319 323 314 308 306 310 314 314 324 322 319 314 333 330 324 328 329 330 328
323 322 320 319 319 318 318 318 318 318 318 318 316 316 316 316 317 316 315 316 316 317 318 321 323 313 301 315 313 314 315 308 307 308 312 323 326 320 315 314 314 323 326 316 326 329 330
325 323 321 320 319 318 318 318 318 318 318 316 316 316 316 316 316 314 313 315 316 318 320 323 308 306 302 322 312 313 316 310 304 306 311 319 317 312 310 304 301 312 311 315 321 330 328
325 324 321 320 318 318 318 318 318 318 318 316 316 316 315 314 314 314 313 314 314 315 318 320 315 304 310 310 310 312 315 314 307 307 310 309 307 303 300 298 293 299 308 314 316 326 327
325 324 322 320 319 318 317 318 318 318 318 316 316 315 315 314 314 313 308 307 306 305 308 301 302 308 313 313 316 310 313 311 307 307 301 306 298 295 299 301 303 303 303 306 320 326 318
324 324 323 320 319 318 317 317 318 317 317 317 316 315 314 314 312 312 305 303 309 304 296 312 310 310 314 312 308 310 313 305 304 301 305 300 296 302 306 306 305 304 304 312 321 320 319
322 323 322 320 319 318 317 317 317 317 317 317 317 315 314 313 311 306 304 306 312 309 296 301 309 309 310 309 307 307 310 309 305 303 302 297 301 307 307 304 303 301 303 305 316 317 318
321 322 322 320 319 317 317 317 317 316 316 316 316 315 314 311 306 307 306 310 311 308 289 296 297 304 306 308 303 314 314 311 306 302 302 300 307 306 304 303 303 293 306 306 317 312 305
321 321 321 320 319 317 316 316 316 316 316 316 316 315 313 311 303 304 308 308 311 302 282 304 299 308 305 302 305 308 315 310 305 302 300 298 303 303 301 304 305 300 307 306 316 311 308
321 321 321 321 319 317 316 316 316 316 315 315 315 313 312 307 305 308 311 311 303 291 285 301 303 303 299 299 302 304 308 310 309 303 302 301 306 303 303 306 305 307 305 309 313 309 301
321 321 321 321 319 316 315 316 316 315 315 314 313 311 309 312 304 310 309 303 291 286 302 299 299 301 297 296 298 299 301 300 297 292 291 299 301 305 305 299 302 301 297 292 293 296 297
320 320 320 320 318 316 316 316 316 315 314 312 310 309 307 311 309 310 307 298 289 297 296 301 301 298 295 297 296 298 298 297 300 298 293 292 292 300 304 301 298 297 298 293 289 292 299
319 320 320 320 318 316 316 316 315 314 313 311 308 303 305 310 311 309 302 291 292 295 302 300 298 293 294 299 300 299 298 297 301 300 294 291 293 304 305 304 303 297 295 301 296 301 293
319 319 320 319 319 315 316 316 315 314 313 310 303 304 305 314 315 308 297 292 295 304 304 301 291 296 292 295 296 297 299 304 302 304 301 297 292 300 305 303 304 301 303 295 293 291 288
318 319 319 320 318 315 316 316 315 313 312 309 306 300 308 313 313 301 293 293 301 305 305 298 294 295 294 295 296 295 299 304 305 303 302 298 295 297 302 296 297 299 297 297 297 294 292
318 318 319 319 315 315 317 316 314 312 310 309 303 298 311 312 300 297 293 300 303 304 305 301 299 299 297 300 295 298 300 303 308 304 297 299 293 291 297 305 305 302 300 298 293 292 296
318 318 319 319 316 316 317 315 313 311 310 305 301 301 311 309 294 294 299 303 305 303 301 299 297 298 301 297 292 300 302 308 308 302 296 297 293 288 293 298 301 297 299 296 296 295 294
319 318 319 319 316 316 316 315 313 312 311 305 301 298 299 300 300 297 296 300 300 307 303 303 301 298 297 295 298 296 299 306 307 305 316 306 293 291 288 292 297 297 299 298 294 291 300
319 319 319 319 317 316 316 315 314 312 310 306 303 297 296 291 293 294 297 299 298 296 299 301 299 301 298 292 295 296 300 300 303 313 305 298 292 293 295 299 301 299 299 299 296 300 299
318 318 318 319 316 316 317 316 315 313 310 309 302 301 303 297 294 295 294 291 295 295 294 295 300 301 298 295 294 293 295 297 297 299 299 298 293 295 294 300 299 296 299 300 306 310 309
318 318 318 318 315 316 317 316 315 313 309 307 310 308 305 300 293 293 292 295 298 300 298 301 302 302 297 299 302 299 298 298 299 298 297 297 293 295 290 296 294 290 295 299 308 312 312
317 318 318 315 315 316 317 317 316 314 311 304 308 306 303 299 294 294 297 299 298 298 296 298 300 297 303 304 302 300 297 297 300 296 298 295 293 292 291 293 286 293 301 309 312 313 313
317 317 314 314 315 316 317 317 317 315 313 305 306 306 304 299 298 297 298 297 298 296 296 298 299 299 299 297 293 292 291 293 296 297 293 298 295 291 290 288 291 296 299 298 303 306 316
317 316 313 314 315 316 317 318 318 316 314 306 306 311 307 301 295 304 299 300 295 293 295 297 299 301 299 294 293 286 288 293 293 296 293 293 294 294 291 288 286 294 301 303 308 300 313
316 317 313 313 314 314 316 317 317 317 315 308 306 310 308 303 302 299 298 296 299 297 293 294 295 297 298 293 290 288 288 298 291 292 291 288 288 287 290 287 295 303 306 307 293 296 309
315 317 314 312 314 315 315 316 317 317 316 310 309 313 307 302 305 305 307 302 301 298 294 297 298 297 294 292 292 290 288 290 289 296 292 290 287 287 289 287 285 305 305 299 301 304 308
315 316 315 312 313 314 315 316 316 316 316 314 309 316 316 307 307 308 307 308 307 304 300 298 295 294 294 292 293 293 289 291 289 285 297 290 293 292 294 293 300 302 302 305 305 305 304

GFSGBSN_sfc_thetae_093.txt.gz
Theta_e
321 321 320 319 317 317 316 316 316 317 317 316 317 317 316 316 316 316 316 317 316 316 316 317 317 319 312 301 302 312 346 340 336 324 312 308 314 316 314 317 331 327 329 334 334 334 334
323 321 320 320 318 318 317 317 317 317 318 317 317 316 317 316 316 316 317 317 316 315 316 317 317 319 306 291 305 329 328 330 325 312 308 311 317 320 318 317 326 331 330 331 332 332 332
325 323 321 320 319 318 317 318 318 317 318 317 317 316 316 316 316 316 316 315 315 316 316 316 318 317 307 298 317 325 322 314 310 310 305 310 320 322 319 315 327 332 326 328 328 328 329
326 325 322 321 319 318 318 318 318 317 318 317 317 316 316 316 315 315 314 314 314 316 317 318 321 311 298 310 312 315 312 306 306 305 310 314 316 320 318 318 311 325 325 317 327 329 329
326 325 323 320 320 319 318 318 318 318 317 316 316 316 316 315 314 314 314 314 316 317 318 322 308 303 298 319 311 309 314 308 302 303 307 317 318 312 310 302 300 312 313 315 320 329 327
325 325 324 321 321 319 318 318 318 318 318 317 316 316 315 314 314 313 313 313 314 315 318 320 315 302 308 308 309 310 312 310 304 304 306 307 305 302 298 297 293 299 308 315 316 324 325
322 324 323 321 320 319 318 318 318 317 317 317 317 315 314 314 313 311 307 305 304 301 306 299 300 306 310 313 314 308 312 309 306 305 298 304 299 296 299 300 302 302 303 310 321 324 320
322 322 323 322 319 319 317 317 317 317 317 317 317 316 314 313 312 310 306 300 304 305 297 307 309 308 311 311 307 307 311 304 301 297 303 300 296 302 303 303 303 303 303 315 319 322 321
322 322 322 321 319 319 317 317 317 317 317 317 317 316 314 313 312 306 302 303 308 305 296 300 308 307 307 309 306 306 308 304 300 299 301 297 300 305 304 302 301 298 302 312 313 317 320
321 321 321 321 319 319 317 316 317 317 316 316 316 316 314 311 304 305 304 305 307 305 289 295 296 302 307 307 302 310 311 308 304 299 301 300 305 304 301 301 301 294 305 306 315 310 305
321 321 321 321 319 319 316 316 316 316 316 316 316 315 312 310 303 303 309 309 307 301 283 303 299 306 300 300 302 306 312 308 303 301 300 298 300 300 300 301 303 300 308 304 315 307 306
320 321 321 321 319 319 316 315 316 315 315 315 315 313 312 307 306 308 311 308 302 290 286 300 303 302 297 298 300 303 307 309 308 303 300 301 304 303 302 304 305 306 304 307 309 305 296
320 320 320 320 319 318 316 315 316 315 315 314 312 311 309 311 304 308 307 302 291 285 300 297 298 300 296 296 297 298 299 298 297 291 290 297 299 301 303 297 299 298 294 291 293 294 295
320 319 319 319 319 318 315 316 316 315 314 312 309 308 307 310 308 309 305 297 287 296 294 299 300 296 295 298 297 298 296 294 298 296 291 291 290 299 302 300 296 294 294 291 289 290 295
319 319 319 319 318 317 315 316 315 314 313 311 307 302 304 306 309 306 301 290 291 294 300 299 296 293 294 297 298 299 297 294 298 296 292 289 292 302 303 302 301 294 292 298 295 293 293
319 319 319 319 318 315 315 316 315 314 313 310 302 303 303 311 311 304 296 291 294 302 301 299 290 294 290 295 294 296 297 302 299 302 297 294 290 297 304 302 300 298 300 294 291 289 288
319 318 319 319 318 316 316 316 315 313 312 309 302 302 307 310 308 300 292 291 299 303 304 297 293 293 294 293 295 293 296 302 303 301 301 295 293 294 299 295 294 296 295 294 294 293 290
319 318 318 318 318 316 316 316 314 312 310 306 300 298 308 308 299 294 292 298 302 301 303 299 299 297 296 298 294 294 297 300 305 302 296 296 291 290 294 302 303 299 297 296 292 290 295
318 318 318 317 318 317 316 315 313 311 310 303 298 299 309 305 292 292 295 301 302 301 300 297 295 297 298 296 291 297 299 306 307 300 295 297 291 288 291 295 299 296 296 294 293 293 298
318 319 319 318 318 316 316 315 313 312 310 305 300 293 297 299 296 295 294 297 297 304 300 300 298 296 296 293 295 293 296 304 306 306 315 305 291 290 287 290 294 294 298 297 291 290 294
318 318 318 319 318 316 316 315 314 312 310 304 298 294 295 290 291 294 294 297 295 293 297 299 298 298 297 290 293 293 296 296 302 314 302 299 291 292 293 296 297 297 298 296 293 294 297
318 318 318 319 316 316 317 316 315 312 309 305 300 299 301 296 293 292 291 290 293 293 294 295 297 299 298 293 294 292 294 293 294 299 298 296 292 294 293 299 297 294 296 297 305 309 307
317 318 319 316 315 316 317 317 315 313 308 304 306 304 302 296 290 292 291 293 296 296 296 299 301 299 296 299 301 299 298 296 296 297 294 293 292 291 288 296 294 289 294 294 304 310 309
317 318 315 314 315 316 317 317 316 314 310 302 304 305 300 296 292 292 295 297 297 296 294 296 297 295 300 302 302 298 295 294 297 295 296 292 291 291 289 291 286 291 300 302 311 312 312
317 317 316 314 314 316 317 318 317 316 313 303 302 304 302 297 298 295 297 296 296 296 295 296 297 298 297 297 294 291 293 294 297 294 292 294 292 290 289 288 293 296 298 298 296 308 314
316 316 317 314 314 315 316 317 318 316 314 304 303 308 306 295 295 301 298 297 294 291 294 296 298 299 298 293 292 286 289 292 292 295 291 292 293 291 292 288 286 294 302 306 307 302 316
315 316 317 314 313 314 315 316 317 317 315 307 306 309 306 299 300 297 297 296 298 294 292 293 297 296 297 291 290 286 288 296 289 290 290 288 287 287 292 289 295 302 304 305 291 297 312
315 315 316 315 313 314 314 315 316 316 316 310 309 311 305 301 302 304 305 300 299 296 292 295 296 295 293 290 290 288 287 289 288 295 290 289 286 288 286 287 287 304 304 296 298 302 311
314 315 315 314 313 314 314 315 315 315 315 313 306 312 313 305 305 307 304 306 305 303 299 295 295 294 294 291 291 290 287 288 287 286 296 289 292 291 291 292 300 302 299 304 306 304 305

GFSGBSN_sfc_thetae_096.txt.gz
Theta_e
324 323 321 319 318 318 318 318 317 317 317 317 317 317 317 316 316 316 317 317 316 316 315 316 318 319 311 297 300 312 347 336 333 328 309 310 312 319 315 318 325 326 328 333 334 332 332
326 325 323 320 318 318 318 317 317 317 317 317 317 316 316 316 316 316 316 316 316 315 315 316 317 319 304 291 304 328 329 329 326 315 308 309 318 322 317 317 324 330 330 332 334 331 333
326 326 324 320 319 318 318 317 317 317 317 317 317 316 316 316 315 315 315 314 313 313 315 316 316 316 304 297 312 324 323 317 316 310 305 308 322 319 319 314 320 331 324 328 329 331 329
325 325 324 321 320 319 318 317 317 317 317 317 316 316 316 315 316 315 314 314 314 314 316 317 318 309 294 306 310 315 310 305 309 305 309 309 311 317 316 317 309 323 324 316 326 328 329
323 323 323 322 319 320 318 318 318 317 317 316 316 316 315 315 314 314 312 313 315 317 316 320 306 301 296 318 310 309 310 305 303 303 305 315 311 312 310 301 298 308 310 315 320 329 326
321 322 323 323 320 320 318 318 318 318 317 316 317 316 315 314 313 312 311 313 317 317 318 319 315 301 307 307 309 307 311 304 301 302 304 304 303 302 299 297 294 299 308 315 316 324 325
322 323 323 323 320 319 318 318 317 317 317 317 316 315 315 314 313 311 306 305 300 297 306 299 298 303 306 311 311 306 311 308 305 301 296 301 299 297 300 300 302 302 305 312 319 324 321
322 322 322 322 321 318 318 317 317 317 317 317 317 315 315 313 312 311 306 299 302 303 297 305 307 306 308 308 304 304 311 303 300 295 300 298 296 302 303 302 302 301 310 315 319 323 319
322 321 321 321 321 318 319 317 317 317 317 317 317 316 314 313 312 306 301 302 307 303 294 299 305 305 304 307 303 305 307 302 298 298 298 297 300 306 302 300 300 297 300 314 314 317 319
321 321 321 321 321 318 318 316 316 316 316 316 316 316 314 311 304 304 304 307 307 305 289 295 296 301 306 305 300 310 309 306 300 297 301 299 304 303 301 300 300 295 307 316 314 309 301
320 320 320 320 320 318 318 316 316 316 316 316 316 315 312 310 303 303 307 309 307 299 283 302 299 304 299 298 300 303 310 306 300 299 300 298 300 299 298 300 302 300 308 313 314 306 303
320 319 319 320 319 318 317 315 315 316 315 315 314 313 311 305 304 307 310 306 300 290 286 299 302 301 296 297 299 303 306 307 306 301 299 301 302 301 302 303 304 305 305 308 308 302 296
319 319 319 319 319 317 316 315 315 315 314 314 312 310 308 309 301 308 307 302 290 286 299 297 296 297 295 297 296 297 300 297 296 292 291 296 297 299 302 296 298 298 299 293 296 295 294
319 318 319 319 318 317 315 315 316 315 314 312 309 307 306 308 306 306 305 297 286 295 293 299 299 296 295 297 297 298 294 292 297 295 291 290 289 298 301 298 295 293 295 291 288 290 294
319 318 318 319 318 318 316 315 315 314 313 311 307 300 301 305 308 305 299 288 289 293 299 298 296 293 293 297 296 296 294 293 296 295 291 289 291 300 301 300 299 292 290 296 292 292 294
320 318 318 318 317 318 316 315 315 314 313 310 301 301 302 309 308 302 295 290 293 300 300 297 290 293 290 294 293 294 294 299 298 300 296 293 289 295 302 301 298 297 298 292 290 287 288
319 319 318 318 318 317 316 316 315 314 312 310 300 300 304 308 305 299 291 290 297 302 302 295 292 292 292 292 294 292 294 299 301 300 299 295 292 294 297 293 293 295 292 292 292 292 289
318 318 318 318 318 317 316 316 314 312 310 305 298 297 306 306 298 292 291 296 300 300 301 298 297 296 294 296 293 293 295 298 303 300 294 295 291 289 294 298 301 297 293 293 290 289 292
318 318 318 318 318 317 316 315 313 311 310 301 298 297 306 304 292 290 294 299 301 299 297 295 294 296 298 294 290 295 298 304 305 300 296 297 290 287 290 294 297 295 295 293 291 295 296
318 318 319 318 318 316 316 315 313 312 310 303 299 293 297 298 294 293 292 294 296 302 297 298 297 295 295 293 294 293 293 302 303 302 314 302 290 290 286 289 293 293 296 296 291 290 292
317 318 319 319 316 316 317 316 314 312 310 302 296 293 294 291 291 292 292 292 293 292 295 298 295 296 294 288 291 291 294 295 302 309 299 297 291 293 292 295 296 295 294 295 291 292 295
317 318 318 315 316 316 317 316 315 313 309 303 299 298 298 294 291 290 291 290 291 292 293 293 295 299 294 291 292 291 292 292 294 296 295 294 291 294 293 297 296 293 295 298 298 305 305
317 318 317 315 315 316 317 317 316 313 307 302 303 302 297 295 289 290 290 291 294 295 295 296 297 298 294 296 300 296 297 295 295 293 293 292 293 291 288 294 293 288 294 295 296 307 307
316 317 318 317 314 316 317 317 316 314 309 301 302 303 295 291 290 291 293 295 295 295 292 295 294 294 298 299 298 295 295 293 295 292 295 291 290 291 289 290 284 291 299 301 305 311 311
315 316 317 317 314 315 316 317 317 315 313 302 301 303 300 295 296 294 295 294 294 294 293 295 295 296 296 295 294 293 290 290 295 294 292 293 292 289 287 286 291 295 298 299 296 305 313
314 316 316 316 314 315 315 317 317 316 313 303 302 306 302 295 294 301 296 296 293 291 293 294 296 296 297 292 291 286 286 290 292 295 293 292 293 291 289 288 286 293 302 306 306 298 315
314 315 316 316 315 313 315 316 316 317 314 306 306 307 304 296 298 297 296 295 296 292 291 292 295 295 296 291 289 285 288 295 288 289 290 288 286 287 289 288 292 301 302 305 292 294 312
314 314 315 316 315 313 314 315 315 315 316 308 308 309 305 298 299 302 303 298 297 294 291 294 294 294 292 290 289 286 285 287 289 294 292 289 285 286 286 284 287 303 303 299 300 303 310
314 314 315 315 314 313 313 314 315 315 315 312 306 310 310 303 302 306 303 304 304 303 298 294 294 293 294 291 289 288 285 287 286 285 296 290 291 290 290 290 299 303 301 304 306 306 307

GFSGBSN_sfc_thetae_099.txt.gz
Theta_e
327 326 323 320 319 318 317 317 317 317 317 317 317 317 316 316 316 316 316 316 316 316 315 316 316 318 315 304 303 313 346 335 343 320 318 314 317 323 322 322 323 326 329 331 331 331 332
326 326 325 321 318 318 318 317 317 317 317 317 317 317 316 316 316 315 315 315 314 314 315 316 317 319 311 299 313 332 328 331 332 318 314 318 321 327 322 321 323 330 331 332 333 331 332
324 325 325 321 319 319 318 317 317 317 317 317 317 316 316 315 315 315 314 313 313 314 314 316 317 317 308 305 314 331 326 322 327 317 312 316 326 323 324 319 324 332 326 329 329 331 328
322 323 324 323 319 319 318 317 317 317 317 317 317 316 316 315 315 314 313 312 313 314 315 316 318 316 301 309 316 325 317 316 315 315 314 316 320 324 322 323 316 327 326 318 327 330 330
322 322 323 323 320 319 319 318 318 317 317 316 316 316 315 315 314 313 312 312 314 315 316 318 314 310 302 320 313 318 316 312 317 313 312 316 313 318 317 311 309 320 315 317 322 330 328
322 323 323 323 320 319 319 318 318 318 317 316 316 316 315 314 313 312 311 313 318 320 320 319 316 307 311 309 313 316 315 312 309 309 309 310 312 314 312 309 305 310 313 318 317 324 323
322 323 323 323 322 318 319 318 317 317 317 317 316 316 315 314 313 311 309 314 308 306 313 306 306 305 308 314 313 310 313 309 308 307 304 308 309 310 313 309 309 309 311 316 322 325 322
322 322 322 322 322 319 318 318 317 317 317 317 317 316 314 314 312 311 308 306 309 311 304 308 309 308 311 312 306 309 315 307 304 300 306 306 305 312 311 308 307 313 316 316 321 324 322
321 321 321 321 321 319 318 318 316 317 317 317 316 316 314 312 312 308 307 308 312 311 303 304 308 308 309 311 307 307 312 308 303 303 304 302 307 311 306 305 305 306 308 316 316 319 320
320 318 319 319 320 319 318 317 316 316 316 316 316 316 313 311 307 309 308 311 312 311 299 303 303 307 311 310 306 313 314 309 305 302 306 307 308 309 305 303 305 301 309 320 317 314 307
320 319 319 319 319 319 317 316 316 316 316 316 316 314 311 309 309 308 311 314 312 306 289 305 305 310 309 305 308 307 313 311 304 305 306 304 306 306 304 305 307 304 310 317 318 313 312
319 319 319 320 319 318 317 315 316 316 315 315 314 312 310 308 309 312 313 311 306 296 289 300 305 303 302 305 304 309 309 313 311 306 307 306 308 309 309 307 309 311 314 316 313 312 304
319 318 318 319 318 317 317 315 315 315 314 314 312 309 308 311 308 312 312 308 297 292 302 299 300 301 302 300 302 304 304 304 303 300 300 303 304 306 308 305 306 306 305 300 298 300 300
320 318 318 318 317 317 317 316 315 315 314 312 309 307 309 311 313 312 313 305 292 297 298 304 301 301 299 302 303 302 303 302 303 305 301 298 295 304 307 305 303 304 303 302 295 297 301
319 319 318 317 317 317 317 316 315 314 313 311 307 309 309 312 312 311 309 296 296 299 303 301 300 298 298 301 302 302 300 301 304 305 301 299 298 305 306 307 307 301 300 307 303 304 304
319 318 318 318 317 317 317 316 315 314 313 310 310 310 310 313 313 311 304 295 299 303 304 302 297 299 296 299 299 301 300 304 303 305 306 303 297 303 306 308 305 305 307 299 301 296 296
318 318 318 318 318 317 317 316 315 314 312 309 309 309 311 314 313 309 300 299 301 306 306 301 299 298 299 298 300 299 300 304 305 304 306 304 302 301 305 304 303 303 301 303 303 302 298
318 318 318 318 318 317 316 316 314 312 310 308 308 307 313 312 307 302 302 302 301 305 306 304 304 302 301 301 300 299 299 303 307 305 303 304 303 298 301 305 306 307 304 305 299 298 302
318 318 318 319 318 316 316 316 314 311 310 310 308 308 313 310 302 301 302 304 305 304 302 301 300 303 304 301 298 300 302 307 308 306 303 305 301 296 298 303 305 303 304 304 302 306 303
318 318 319 316 315 316 316 315 313 312 310 310 307 303 306 307 303 303 302 301 300 304 302 303 302 303 302 301 303 300 300 305 305 307 312 309 302 300 295 298 302 301 301 302 302 300 301
317 318 319 317 316 316 316 316 314 312 310 309 306 303 301 303 301 301 302 298 297 297 301 304 302 302 300 298 299 299 300 302 307 309 306 306 300 301 301 301 301 300 298 302 300 304 302
317 317 318 318 316 316 316 316 315 313 309 312 309 308 304 301 298 300 297 299 297 299 300 298 298 301 301 299 301 299 300 301 301 305 305 304 300 301 299 301 301 298 300 303 305 303 303
315 316 317 316 317 315 316 316 316 313 309 311 311 311 306 298 298 300 299 299 299 300 301 301 300 300 301 301 303 304 304 303 303 302 302 303 303 300 296 299 299 296 299 301 305 308 310
314 315 317 315 317 315 316 316 316 314 312 309 312 313 304 298 299 299 299 300 299 300 299 301 301 301 305 305 304 304 304 303 302 301 303 302 302 302 299 298 291 299 306 307 308 314 316
314 315 316 316 316 315 316 317 317 315 313 310 310 312 307 301 301 300 301 300 301 302 301 301 302 304 305 304 303 300 300 300 302 301 302 303 303 299 297 295 297 299 303 302 302 307 317
315 315 315 316 315 315 315 316 317 316 314 310 313 314 310 305 303 304 302 302 303 301 302 302 305 305 306 304 301 295 294 297 297 299 302 303 305 301 299 293 291 299 305 308 308 305 317
315 315 315 316 315 315 314 315 316 316 314 313 316 314 312 306 307 306 305 304 304 301 302 301 303 303 306 303 300 298 297 300 296 295 297 297 298 297 298 296 299 304 307 308 299 302 318
314 315 315 315 315 315 313 314 315 315 315 314 317 317 314 308 308 309 308 306 305 305 302 303 303 302 303 300 300 299 299 299 298 299 298 296 295 297 295 294 291 308 308 302 306 312 316
314 314 314 315 316 314 312 314 315 315 315 314 316 316 316 313 310 313 311 310 310 310 308 304 303 302 305 302 301 300 299 297 296 296 301 297 299 300 299 299 306 309 307 310 311 312 315

GFSGBSN_sfc_thetae_102.txt.gz
Theta_e
326 326 324 321 320 319 318 317 318 317 317 318 318 317 317 316 316 316 316 316 316 316 316 316 317 318 320 312 309 321 342 335 326 328 322 319 322 329 328 329 328 329 332 331 332 334 335
323 325 324 322 319 320 318 318 318 318 317 317 317 317 317 316 316 316 315 315 314 314 314 316 317 318 315 306 318 332 327 326 326 323 319 319 321 334 332 327 326 331 333 331 330 332 334
322 323 324 323 320 320 319 317 317 317 317 317 317 317 317 316 316 315 315 314 313 314 314 316 317 319 312 310 319 331 326 327 325 323 319 321 324 332 330 323 326 332 328 330 330 333 327
323 323 323 323 320 319 319 319 318 318 317 317 317 317 316 316 315 315 313 312 312 314 315 317 319 319 308 314 326 323 323 326 328 322 321 323 329 333 328 327 322 327 329 321 328 332 329
323 323 323 323 321 319 319 318 318 318 317 317 316 316 316 315 314 314 312 312 314 315 317 319 319 313 307 319 316 319 318 317 321 318 318 321 323 328 326 318 319 326 319 319 322 329 325
323 323 323 323 323 319 318 320 318 318 318 318 317 317 315 315 314 313 312 313 317 319 321 322 318 312 315 312 316 317 318 318 315 314 312 314 317 321 322 317 309 317 317 319 320 323 319
322 322 322 322 322 320 318 320 318 317 318 318 317 317 316 315 314 312 314 320 317 315 317 312 310 309 312 317 321 317 318 314 313 310 307 310 309 315 322 320 315 318 318 317 321 323 317
321 321 321 321 321 320 319 319 318 317 317 317 317 317 315 313 312 312 314 314 314 315 308 313 313 312 314 315 310 316 317 310 308 304 309 307 305 319 322 317 313 320 319 318 321 324 323
321 320 320 320 320 320 318 318 317 317 317 317 317 316 314 312 312 312 316 315 319 318 309 308 311 311 313 314 310 312 315 311 306 304 306 305 306 318 318 315 311 314 315 319 318 321 323
320 319 319 320 320 319 319 317 317 317 317 316 316 315 313 311 309 318 315 318 319 317 304 304 306 310 313 314 309 316 317 312 306 304 306 307 311 313 315 311 310 308 316 319 321 316 309
320 319 319 320 319 318 318 317 316 316 316 316 316 313 311 309 317 314 317 320 320 314 293 306 306 314 314 310 312 311 318 313 306 305 308 305 308 311 310 312 312 307 314 315 317 316 314
320 319 319 319 319 318 317 317 316 316 315 315 314 311 310 313 317 318 320 319 316 301 292 302 307 306 306 308 309 312 312 315 313 307 308 308 314 314 314 313 313 317 317 315 314 312 306
321 319 319 318 318 317 317 317 316 315 315 314 311 309 311 318 315 320 319 315 301 297 305 301 302 306 305 304 307 309 307 307 306 301 301 306 308 313 314 311 312 313 307 303 302 303 304
320 319 318 318 317 317 317 317 316 315 314 312 308 308 311 318 320 320 319 309 295 300 301 306 305 305 302 305 305 307 306 304 309 308 304 300 299 308 311 311 310 311 307 301 299 299 304
319 318 318 318 318 317 317 316 315 315 314 310 307 319 320 322 321 319 313 303 300 302 305 303 304 301 302 304 305 305 306 305 308 310 304 302 300 308 310 311 311 309 307 313 305 310 305
319 318 318 319 318 318 317 316 315 315 313 310 322 321 319 321 322 319 309 298 303 307 307 306 300 303 299 302 302 303 304 307 306 309 313 307 301 307 308 311 311 309 311 305 307 300 299
318 318 319 319 318 316 316 316 315 314 312 310 320 314 320 323 322 315 303 303 305 309 309 305 302 302 302 302 303 302 303 307 308 308 311 310 306 305 308 305 305 306 305 306 307 306 300
317 318 318 317 315 316 317 316 315 312 310 311 319 310 323 320 310 313 306 307 302 308 310 307 307 304 304 303 303 303 303 307 310 310 306 310 307 302 304 310 311 310 307 307 301 301 305
317 318 319 317 315 316 316 316 314 312 310 321 319 316 323 318 304 305 308 307 308 306 306 305 304 306 306 304 301 303 304 310 310 310 308 311 304 299 301 306 309 306 308 309 309 308 304
317 318 319 318 317 316 316 315 314 312 310 318 316 308 314 319 316 308 306 304 303 306 307 307 306 307 305 303 307 303 303 307 309 310 311 310 306 303 299 302 307 304 306 309 307 302 303
316 317 318 317 318 316 316 316 314 312 310 317 317 309 310 306 306 307 307 304 301 301 305 307 306 304 304 302 303 303 304 306 309 312 311 310 304 306 305 305 305 306 305 306 306 307 303
316 316 317 316 317 317 316 316 315 313 310 322 316 314 314 309 307 306 301 303 300 302 302 300 300 303 306 303 305 302 305 307 306 310 309 309 305 306 302 305 306 303 305 306 308 308 307
315 316 317 317 317 317 316 316 316 313 312 321 322 321 314 302 306 305 304 303 302 303 304 304 302 301 304 306 308 309 309 309 310 308 306 306 305 303 298 304 304 301 305 305 307 312 311
315 315 316 317 316 317 316 316 316 314 312 320 320 321 310 303 307 305 303 303 302 304 302 304 303 302 309 312 311 310 310 309 309 309 310 305 306 305 299 303 293 305 311 310 308 312 318
316 316 316 317 316 316 316 316 317 315 313 322 324 320 314 306 306 305 304 305 306 307 304 304 307 309 312 310 306 303 303 304 305 307 309 310 306 301 298 298 301 303 307 307 306 310 319
316 316 315 316 317 315 316 316 317 316 314 321 324 324 318 309 307 308 307 306 306 308 305 306 311 313 313 309 305 299 295 300 299 302 309 307 310 302 301 295 293 303 308 312 311 305 318
315 315 316 315 316 316 316 315 316 316 314 320 324 325 320 313 313 312 309 307 311 309 306 308 308 308 312 308 303 300 301 305 298 296 299 302 303 299 297 297 301 310 310 312 301 304 318
315 315 315 315 315 316 316 314 315 315 316 317 324 326 322 315 313 314 313 311 312 311 305 310 307 308 307 302 303 306 303 307 302 304 302 301 299 299 301 297 294 313 312 306 313 316 319
314 315 315 315 315 316 315 314 315 315 315 315 322 326 327 319 315 318 316 316 315 314 311 312 309 306 310 307 307 308 305 304 302 298 307 301 305 304 304 304 312 315 314 318 319 315 319

GFSGBSN_sfc_thetae_105.txt.gz
Theta_e
324 324 325 323 320 320 319 319 319 319 318 319 318 318 318 318 317 317 316 316 317 317 317 317 318 319 321 316 314 333 336 332 324 331 326 323 324 331 326 329 331 330 332 332 333 334 334
323 324 324 324 320 320 319 318 318 318 318 318 318 318 318 317 317 317 316 316 315 315 316 316 318 319 318 311 320 330 328 319 319 327 325 323 324 331 331 330 329 332 333 333 334 335 334
323 324 324 324 321 320 320 319 319 319 319 318 318 318 318 317 317 316 316 315 314 315 315 317 319 321 316 314 322 330 324 318 321 325 321 323 323 330 334 329 332 333 328 330 329 332 330
323 323 324 324 322 319 319 320 319 319 318 318 318 317 317 317 316 316 315 314 314 315 316 317 320 322 314 319 327 326 327 324 325 327 323 323 324 327 333 331 328 329 326 319 327 331 332
324 324 324 324 323 319 318 320 319 319 318 318 318 317 317 317 316 315 314 313 315 317 318 319 322 321 310 316 321 323 325 322 322 323 323 323 324 329 332 324 319 323 317 318 322 328 327
322 323 323 323 323 320 319 320 319 318 318 319 319 318 317 316 315 314 313 314 317 318 321 324 322 314 315 313 321 319 320 322 320 317 315 315 318 325 326 321 308 312 315 320 318 321 323
321 321 321 321 322 321 319 319 319 318 318 318 318 318 317 316 314 314 314 323 321 319 322 315 312 313 314 319 322 318 320 317 317 314 308 311 310 315 322 322 319 320 319 318 320 322 319
321 321 321 321 321 320 320 319 318 318 318 318 318 318 317 314 314 313 316 318 316 317 311 315 314 314 317 319 314 317 321 312 310 306 311 308 306 315 323 324 318 317 320 317 319 321 320
321 320 320 320 320 320 319 319 318 317 317 317 317 317 315 313 313 313 320 318 323 321 312 309 313 313 315 316 312 313 316 314 309 306 308 307 309 314 322 321 316 318 316 316 314 320 321
321 320 320 320 320 318 318 319 318 317 317 317 317 316 313 312 310 321 317 323 323 322 307 305 309 313 315 316 310 319 318 314 309 306 308 309 313 310 318 318 318 310 324 321 315 317 307
322 320 319 319 319 319 318 318 318 317 316 316 316 314 312 309 318 315 321 323 324 320 294 307 308 319 317 312 313 312 319 314 308 306 308 306 308 308 311 316 319 312 318 320 318 316 312
321 320 319 319 319 319 318 317 317 316 316 316 315 312 311 315 319 321 324 323 321 303 294 304 309 308 309 311 312 314 313 317 316 309 309 309 314 313 314 316 318 319 317 317 318 314 306
320 319 319 319 319 318 317 317 316 316 315 314 312 310 311 322 318 324 323 318 304 297 307 303 304 308 307 305 308 310 309 308 307 303 303 307 309 314 316 312 316 318 316 307 305 305 304
319 318 318 318 319 318 317 317 316 316 315 313 309 308 313 323 324 323 323 312 298 302 304 307 306 306 304 306 307 309 308 306 311 309 305 301 301 310 314 315 311 314 314 308 300 301 306
319 318 319 319 319 318 316 316 316 315 314 311 308 321 322 325 325 323 315 304 302 304 306 305 306 303 303 305 306 306 307 306 309 312 305 303 303 312 313 314 316 311 310 316 310 307 305
318 318 319 319 316 316 317 316 316 315 313 310 324 321 321 325 327 322 312 299 305 309 309 308 301 304 300 303 303 304 305 309 308 311 314 310 303 309 310 312 313 312 315 307 309 300 300
318 318 319 318 317 316 317 317 316 314 312 309 322 316 322 327 326 317 306 305 307 310 311 307 304 302 304 302 304 304 304 308 309 310 312 312 308 306 309 307 306 307 307 309 310 308 302
317 318 318 318 318 316 317 316 315 313 310 311 321 313 323 325 312 314 307 308 303 309 310 308 308 307 305 305 304 303 303 308 312 311 307 311 308 304 306 311 311 311 308 308 303 303 307
316 317 318 318 317 317 316 316 314 312 311 321 318 315 323 321 308 307 309 308 309 308 307 307 306 308 308 306 302 305 306 312 312 310 309 311 305 301 303 308 310 307 310 310 309 308 305
316 316 318 318 317 318 316 315 314 313 312 318 317 310 315 316 315 310 308 307 306 308 308 309 307 308 307 305 308 305 306 309 311 311 317 314 307 304 297 303 307 306 307 309 309 304 305
316 317 317 318 317 318 316 315 314 313 312 319 317 313 314 309 308 309 309 306 303 303 307 308 308 305 305 303 304 305 306 308 310 312 311 310 304 305 306 307 308 307 307 307 307 308 305
316 316 317 318 318 317 317 316 315 313 311 322 316 314 313 310 307 308 302 305 302 303 304 303 302 303 306 306 307 304 307 308 307 312 310 311 304 307 305 306 307 305 308 308 308 308 308
316 316 317 317 317 317 317 316 316 314 312 323 326 322 315 304 308 307 306 305 304 304 306 305 304 303 304 308 310 312 312 312 312 310 309 308 305 304 300 304 305 301 306 307 308 310 310
316 317 317 317 318 317 317 316 316 315 313 325 325 323 312 307 309 306 305 305 304 306 304 306 306 303 312 315 314 313 312 311 311 310 312 307 307 305 301 302 295 306 313 313 309 312 313
316 316 316 317 317 316 317 317 317 316 314 323 329 323 315 309 308 306 305 306 308 309 307 306 308 311 314 311 307 304 304 306 307 309 309 311 309 302 300 298 300 305 309 309 308 309 320
314 316 316 316 317 317 317 317 316 316 314 320 330 328 321 312 308 310 308 308 307 310 308 308 313 315 313 309 305 301 299 300 300 302 310 309 310 306 303 297 294 304 310 314 313 304 317
314 315 316 316 316 316 317 317 315 317 315 317 327 331 323 312 314 312 311 308 311 309 307 309 310 309 312 307 303 301 301 302 298 301 302 302 304 301 299 299 302 310 312 313 302 307 318
314 315 315 315 316 316 317 317 315 316 316 316 328 331 325 316 316 315 314 312 314 312 307 312 308 310 307 303 303 303 303 306 303 305 303 294 297 301 302 297 294 315 313 308 315 319 320
314 314 315 315 316 316 317 317 315 316 316 315 324 328 330 322 317 319 318 318 317 314 312 314 310 311 309 307 308 306 306 305 304 298 309 300 307 303 302 305 314 318 317 320 320 317 321

GFSGBSN_sfc_thetae_108.txt.gz
Theta_e
324 325 325 324 321 320 321 319 319 319 319 319 319 318 318 318 318 318 318 318 317 317 317 318 318 320 319 316 315 331 345 338 318 315 326 325 325 331 325 328 330 328 332 332 334 336 333
324 324 324 324 321 320 321 320 320 320 320 319 319 318 319 318 318 318 318 317 316 316 317 317 319 319 315 310 322 336 326 319 315 319 324 325 323 331 329 330 327 332 332 332 333 333 333
324 324 324 325 321 320 319 321 320 320 320 319 319 319 318 318 318 318 317 317 316 316 316 318 319 320 316 315 322 327 325 314 316 321 323 326 326 325 330 328 334 334 329 330 331 334 332
324 324 324 324 322 320 319 320 320 319 320 319 319 319 318 318 318 318 316 315 315 316 317 318 319 319 315 322 324 327 325 318 317 322 325 326 324 320 322 332 329 329 328 320 327 331 332
323 322 322 323 323 320 319 320 320 319 319 319 319 319 318 318 317 316 316 314 316 318 319 320 320 318 313 318 315 325 325 319 322 323 324 323 320 318 323 322 320 325 313 318 320 328 327
322 322 322 322 322 321 320 320 320 319 319 319 320 319 318 318 317 315 315 315 321 318 321 323 322 315 317 312 318 322 325 324 319 319 317 316 315 313 319 320 309 313 311 313 317 323 324
322 322 322 322 322 321 321 320 319 318 319 319 319 318 318 318 315 314 314 320 320 317 322 317 314 314 314 319 322 317 319 320 320 315 308 312 308 308 319 323 321 318 316 315 318 322 320
321 321 321 321 321 319 319 319 319 318 318 318 318 318 318 316 314 313 314 316 316 317 311 320 313 314 318 318 313 316 319 312 312 307 310 308 303 311 320 322 320 321 316 315 317 322 320
322 321 320 320 320 319 318 318 319 318 318 318 318 317 316 314 313 313 316 319 323 321 312 310 313 312 313 316 313 313 316 313 308 305 307 305 308 311 312 317 318 317 314 314 313 319 320
322 320 319 320 319 319 318 318 318 318 318 317 317 317 314 312 310 319 317 322 322 322 306 305 308 313 315 315 310 319 318 313 310 306 306 307 312 310 309 313 318 313 321 319 316 314 307
321 320 319 319 319 319 318 318 318 318 317 317 317 315 313 311 315 316 321 322 322 319 294 308 309 319 316 312 313 313 318 314 308 307 307 305 307 309 307 315 319 314 322 319 318 314 312
320 319 319 319 320 319 318 317 317 317 316 316 315 313 311 314 316 318 322 322 319 303 293 305 309 309 308 311 312 313 313 316 315 310 308 307 313 311 310 315 318 321 319 317 314 313 305
319 319 319 320 319 318 317 317 317 316 316 315 312 311 311 321 319 322 322 317 304 297 309 303 305 307 308 305 309 310 307 307 305 302 302 306 308 312 314 311 317 316 314 306 303 304 303
319 318 319 319 317 316 316 317 317 316 315 313 310 309 315 319 325 323 321 312 299 305 303 307 306 307 304 306 307 308 307 304 309 308 304 301 299 308 313 312 310 311 311 305 298 300 302
318 318 319 319 318 316 316 317 316 315 314 311 308 320 322 324 323 323 315 303 302 305 307 305 305 302 304 306 306 305 306 305 308 310 304 304 301 311 313 314 315 311 308 315 307 307 304
317 318 318 319 318 317 316 316 316 315 314 311 319 323 320 324 325 322 312 302 305 309 308 308 302 306 301 303 302 303 305 309 308 312 313 309 304 309 311 313 313 312 315 306 307 300 299
317 317 318 319 317 317 317 316 315 314 312 310 318 317 319 325 325 317 307 305 306 310 311 307 304 304 305 303 305 304 304 309 311 311 313 311 307 306 309 307 305 306 306 309 309 306 300
317 316 317 318 317 317 317 316 315 313 310 312 318 312 320 326 313 313 307 308 305 309 310 309 308 307 306 306 303 303 304 308 312 311 307 311 307 302 306 311 312 310 307 308 303 303 306
317 317 317 318 317 317 317 316 314 312 311 318 316 317 321 321 306 308 309 308 310 309 308 308 307 308 309 306 303 306 307 312 312 309 309 311 306 300 303 308 310 306 308 308 307 307 305
317 317 317 317 318 318 317 316 313 313 312 316 318 310 315 316 315 310 308 307 306 309 308 309 308 309 307 306 308 305 306 309 311 309 322 314 307 304 298 302 308 306 305 308 308 301 303
317 317 317 317 318 318 317 316 314 313 312 317 317 312 315 308 309 309 310 307 304 304 308 308 307 306 305 303 306 306 308 307 310 314 311 308 303 305 306 308 308 307 307 308 305 307 304
317 317 317 317 318 318 317 316 315 313 311 321 317 315 315 310 309 309 303 305 303 305 304 304 303 305 304 304 307 305 308 308 308 311 308 309 303 306 304 307 307 305 307 309 308 307 308
316 317 317 317 317 318 317 316 315 313 313 325 323 322 315 306 308 307 307 306 305 305 307 306 304 303 302 308 311 312 312 311 312 310 309 309 305 303 299 305 304 300 306 307 309 311 309
315 316 316 318 317 317 317 317 317 315 313 319 326 323 316 307 307 307 306 305 305 307 305 307 307 303 310 316 314 311 311 311 311 310 312 308 308 306 300 303 294 306 313 312 309 310 315
314 315 315 317 318 318 318 318 318 315 315 317 325 323 317 310 309 307 306 306 308 309 308 306 309 312 313 310 304 304 304 306 307 310 310 309 308 302 298 298 302 307 309 309 307 310 318
314 314 315 316 317 317 317 318 318 315 315 317 326 330 322 313 308 311 307 309 306 308 309 310 313 314 312 307 304 300 298 302 298 301 310 310 311 306 303 296 294 306 311 314 313 304 319
313 313 315 316 316 317 317 318 318 316 315 315 320 331 323 314 315 313 310 310 311 309 307 311 311 309 312 305 303 302 300 304 297 295 296 300 304 301 301 299 304 310 313 313 299 306 318
313 313 315 315 316 316 317 317 318 316 316 315 320 331 324 319 318 315 314 311 313 311 307 312 309 311 307 303 302 303 303 305 302 301 296 299 298 298 302 296 296 312 314 306 314 318 318
314 314 314 315 315 315 316 317 318 315 316 315 317 329 328 321 318 320 318 317 315 314 311 312 310 311 311 306 307 306 303 305 303 298 309 301 304 300 302 303 312 317 316 319 318 318 320

GFSGBSN_sfc_thetae_111.txt.gz
Theta_e
325 325 325 324 322 321 321 321 321 321 320 320 320 319 319 319 319 319 319 319 318 318 318 318 318 319 316 310 311 325 346 341 323 310 308 321 321 325 325 326 329 327 325 326 327 329 331
325 325 325 325 321 321 320 320 321 320 320 320 320 320 319 319 319 319 319 319 318 317 317 318 319 320 312 303 326 330 331 324 311 307 310 320 321 326 328 327 327 331 329 328 331 332 334
324 324 324 324 321 320 320 320 321 320 320 320 320 320 320 319 319 319 319 318 317 317 317 318 320 318 311 310 321 332 319 312 308 309 312 321 323 318 325 327 333 331 327 330 330 333 329
323 322 323 323 323 320 320 320 320 320 320 320 320 320 320 319 319 318 317 317 316 317 318 319 320 315 307 321 320 320 318 310 310 313 317 322 323 316 314 332 331 328 326 317 326 331 329
322 322 322 323 322 320 321 321 320 320 320 320 320 320 320 319 318 317 316 316 317 320 321 320 315 310 309 322 312 316 320 313 308 310 315 323 317 309 311 314 317 319 311 311 317 328 323
321 321 321 322 321 320 320 320 320 319 319 319 319 319 319 318 318 316 314 314 318 319 320 320 319 309 316 313 312 314 320 318 311 313 314 313 308 302 305 308 305 311 311 312 312 322 324
322 320 320 321 319 319 318 319 320 320 319 319 319 318 318 318 316 314 312 312 313 312 314 312 312 313 314 316 319 314 318 317 315 310 303 307 300 298 303 311 321 317 315 314 318 324 321
320 320 320 320 319 318 318 318 319 319 319 319 318 317 317 317 315 313 310 308 313 310 304 317 318 311 315 314 310 312 314 308 310 302 305 301 297 304 309 322 320 318 314 311 318 322 320
321 318 318 318 318 318 318 318 318 318 318 318 317 317 316 314 313 309 310 312 318 315 304 311 315 309 309 309 309 309 311 308 306 303 302 299 302 307 306 319 318 316 313 313 313 317 319
319 318 318 318 319 318 318 318 318 318 317 317 317 316 314 312 309 315 313 318 318 316 299 303 303 309 311 310 306 316 314 310 306 300 302 300 307 307 304 307 317 311 320 318 314 311 305
318 317 318 320 319 319 318 317 317 317 317 317 316 314 312 312 307 310 316 316 314 311 291 309 306 315 313 305 308 310 315 310 304 303 301 299 302 302 303 310 320 313 318 318 315 310 311
318 317 319 320 318 317 316 316 316 316 316 316 314 313 311 311 310 313 315 315 312 297 293 305 307 305 305 307 309 311 310 310 310 305 305 302 307 305 305 318 319 323 319 316 314 310 301
319 319 319 319 318 317 316 316 316 316 315 314 313 311 309 315 315 320 316 313 299 294 308 303 302 305 304 303 306 306 305 301 298 293 295 301 302 306 309 312 319 317 310 299 299 300 299
318 318 318 318 317 317 317 316 315 315 315 313 310 309 311 314 317 317 316 306 296 304 303 305 303 303 303 305 304 306 302 297 304 301 297 293 292 303 308 307 311 312 309 301 294 297 301
317 317 318 318 317 317 317 316 315 314 314 311 309 315 314 319 318 315 309 300 299 302 305 304 303 301 301 305 303 303 302 300 303 303 295 297 298 306 309 309 308 304 303 309 303 305 298
317 317 317 318 318 317 317 316 315 314 313 311 314 315 317 325 322 315 307 301 301 306 307 307 300 303 299 301 300 299 302 307 306 309 307 302 297 306 307 309 308 308 308 297 299 296 295
317 317 317 317 317 317 317 316 315 313 312 310 317 311 319 322 320 312 303 303 306 307 308 304 302 302 302 302 302 301 302 308 310 308 307 304 301 302 305 299 299 300 298 299 299 298 296
317 317 317 317 317 317 317 316 314 312 311 313 318 309 317 320 309 310 303 304 304 305 307 306 305 304 304 304 301 302 302 307 310 307 302 306 300 294 300 307 307 303 299 299 294 294 298
317 317 317 317 317 318 317 316 314 311 311 310 312 312 322 316 301 304 305 306 308 306 305 305 305 305 305 301 298 304 306 310 311 305 303 303 299 293 297 302 307 299 301 300 298 295 293
317 317 318 317 317 318 317 315 313 312 312 310 314 309 313 313 310 306 305 307 305 308 307 306 306 305 304 302 305 303 303 309 310 307 322 309 299 298 291 297 304 301 305 304 298 291 293
317 317 317 318 317 317 317 316 314 312 312 312 316 310 314 306 305 306 305 306 303 303 307 307 304 305 300 297 301 302 305 306 309 313 306 302 294 300 300 304 306 303 304 305 301 300 295
316 316 317 318 318 317 317 316 315 313 311 317 312 312 315 309 308 306 302 304 302 303 303 301 301 302 301 296 303 302 304 302 302 306 305 304 296 298 298 304 305 303 306 306 305 306 302
316 315 315 317 318 318 317 317 316 313 312 317 325 325 318 308 307 303 305 304 303 306 307 306 305 302 300 306 309 306 302 304 303 303 303 302 301 299 293 301 302 296 305 306 306 311 311
316 314 315 315 317 317 318 317 317 315 313 313 319 320 315 308 310 305 305 305 305 306 304 306 307 303 307 309 307 305 304 303 308 307 306 301 301 299 294 297 289 303 309 310 311 314 315
315 314 314 314 316 317 318 318 318 317 314 312 316 320 318 310 312 310 306 307 307 306 305 306 308 308 308 305 299 297 299 302 305 306 305 304 301 297 293 292 298 305 307 306 306 308 315
315 315 314 314 315 316 316 318 318 317 314 313 315 322 321 312 309 313 307 310 304 304 305 309 311 310 307 302 299 295 294 299 298 299 304 304 303 298 297 292 291 302 309 312 309 301 317
315 315 313 314 314 315 316 317 318 318 315 312 313 320 321 313 314 315 309 308 309 306 305 310 311 309 307 299 296 296 296 302 295 295 296 297 298 294 296 293 300 307 312 313 294 300 316
315 314 314 313 314 315 315 316 317 318 316 313 312 317 322 317 317 319 316 311 311 309 304 308 307 308 306 300 298 300 300 301 296 299 297 296 295 294 295 293 291 310 311 304 307 312 318
314 314 314 313 313 315 316 316 317 318 316 315 311 322 322 320 318 321 318 317 317 313 308 308 307 308 308 302 303 303 300 298 298 295 303 297 300 297 300 298 308 312 311 312 313 317 318

GFSGBSN_sfc_thetae_114.txt.gz
Theta_e
325 325 325 322 320 320 320 321 321 321 321 321 320 320 320 320 320 319 320 319 319 318 318 318 319 320 313 306 309 323 348 344 323 310 306 313 319 319 323 325 329 323 326 326 329 328 329
323 324 324 324 320 319 320 320 320 321 320 320 320 320 320 320 320 319 319 319 318 318 318 318 319 320 308 299 319 330 327 321 313 305 304 308 319 321 325 327 325 329 327 326 327 329 333
321 321 323 323 321 320 320 321 320 320 320 320 320 320 320 320 319 319 318 317 317 317 318 318 319 318 308 304 323 330 323 315 306 305 306 310 314 315 317 328 334 329 323 326 328 330 330
322 322 322 322 322 320 321 320 320 320 319 320 320 320 320 319 319 318 317 316 316 318 318 319 320 312 302 317 317 316 316 306 307 305 308 314 316 313 310 331 329 321 325 317 325 328 330
322 321 321 321 320 319 318 320 320 320 319 319 319 319 319 318 318 317 315 315 316 319 323 320 310 307 306 325 311 314 314 308 303 304 308 317 313 309 307 315 318 318 311 312 316 328 325
321 321 320 320 319 318 318 318 319 320 319 319 318 318 318 318 317 315 314 315 315 317 320 319 318 306 311 313 309 311 312 313 305 304 306 306 305 300 300 303 304 310 310 312 312 322 324
319 319 318 319 318 318 318 318 317 319 319 319 318 317 317 317 316 313 308 307 307 306 310 308 309 310 313 314 315 310 312 313 307 306 300 304 298 296 299 305 317 317 315 314 317 323 321
319 318 318 319 319 319 318 318 317 318 318 318 318 317 317 315 313 312 307 302 308 310 301 312 315 315 317 312 308 311 313 307 306 300 303 299 296 302 308 320 319 318 313 311 317 323 321
318 318 318 318 319 318 318 318 317 317 317 317 317 316 314 313 312 307 305 308 312 310 299 307 313 312 310 306 306 307 308 305 305 301 300 296 300 306 315 318 314 316 313 312 313 316 319
317 318 318 319 319 318 317 317 317 317 317 317 317 315 312 311 308 308 308 312 312 310 295 302 299 306 307 307 303 312 310 307 303 301 301 297 304 304 303 316 316 310 319 317 314 310 302
319 318 319 319 319 318 317 317 316 317 316 316 316 315 311 311 303 304 311 306 308 308 288 308 302 312 308 302 304 307 312 307 301 301 297 296 299 299 299 316 316 310 320 316 314 311 308
318 319 319 319 318 318 317 316 316 316 315 315 315 313 311 306 303 307 310 309 306 295 291 304 304 302 301 303 305 308 308 307 307 302 301 301 304 301 302 319 317 319 317 316 313 310 300
318 318 318 318 318 317 316 316 316 315 314 314 312 311 308 312 309 312 310 307 296 290 304 302 300 299 299 300 304 303 303 299 296 292 292 299 300 307 321 313 319 317 307 300 298 299 298
318 317 317 317 317 317 317 316 316 314 314 312 310 308 307 311 308 310 307 302 292 302 300 304 299 301 298 301 302 303 299 297 299 296 293 291 291 305 312 315 311 311 305 301 295 297 301
318 317 317 317 317 317 317 316 315 314 313 311 308 304 306 310 312 309 303 294 293 295 301 302 300 297 298 301 301 301 297 296 301 299 293 292 295 306 310 313 317 309 304 310 300 303 299
318 317 317 317 317 317 317 316 315 314 312 310 307 307 307 315 315 307 300 296 296 301 303 302 295 299 294 298 298 298 298 304 304 305 300 298 293 301 307 307 315 309 309 297 297 294 293
318 317 317 317 317 317 317 316 315 313 312 310 309 303 311 315 312 304 296 298 301 303 305 299 297 297 300 298 298 296 299 306 306 304 304 297 296 298 301 296 297 298 296 295 297 300 294
318 317 317 317 317 317 317 316 314 312 310 309 307 300 315 312 301 299 296 299 303 302 303 302 302 301 299 300 298 299 300 304 310 302 299 299 295 292 296 303 306 299 295 295 292 292 295
317 317 317 317 317 317 317 316 314 311 310 304 301 303 311 309 295 294 299 301 304 300 300 301 300 300 300 299 295 300 303 309 310 305 298 299 297 290 294 298 303 300 301 298 294 291 290
317 317 317 317 317 318 317 315 314 312 311 304 304 299 306 304 299 300 296 299 299 305 303 302 300 301 297 298 298 299 301 308 308 306 320 307 294 295 289 294 299 298 302 301 293 288 289
317 316 315 316 317 318 317 316 314 313 311 306 306 300 305 300 299 298 297 299 299 299 301 300 298 298 293 289 296 299 302 303 306 312 304 299 291 297 302 301 304 303 301 303 297 298 293
317 316 315 315 315 317 317 316 315 313 310 309 302 307 309 305 299 298 297 294 298 298 298 296 296 298 296 294 297 295 296 294 296 303 302 301 295 295 294 302 302 302 305 310 310 309 311
317 316 315 316 315 315 317 317 316 313 309 305 311 314 310 304 304 301 296 297 301 301 303 303 301 296 296 300 301 300 298 297 299 299 298 297 296 294 290 300 298 296 305 309 310 314 312
317 316 315 315 315 315 315 316 317 315 311 305 307 310 307 302 307 305 307 304 302 301 298 300 301 296 301 302 300 298 298 304 305 302 300 297 294 293 291 293 288 298 309 313 311 313 314
318 316 315 315 314 315 315 315 317 316 314 304 306 308 309 303 308 308 307 303 302 299 299 301 303 303 303 299 294 292 295 297 301 303 301 300 296 292 289 289 296 303 304 304 306 308 316
318 316 315 315 314 314 315 315 315 317 315 305 306 309 310 304 304 311 308 305 297 297 300 303 305 302 302 295 294 289 290 294 294 299 299 300 298 295 293 290 288 298 307 312 309 299 315
317 316 315 315 314 314 314 315 315 317 315 308 305 307 311 306 309 310 307 302 302 298 298 301 304 302 301 292 290 291 292 299 292 293 292 292 294 292 294 293 298 307 308 311 295 298 314
316 316 315 314 314 314 314 316 315 317 317 310 306 309 310 309 311 314 314 304 304 302 297 300 300 300 299 294 292 294 293 295 294 296 295 291 289 289 295 292 290 309 309 303 305 308 316
316 315 314 314 314 313 314 316 317 316 317 313 303 313 312 312 312 316 315 314 309 307 301 299 299 301 300 297 296 296 296 293 291 289 299 292 295 293 296 296 303 307 307 311 311 314 312

GFSGBSN_sfc_thetae_117.txt.gz
Theta_e
322 322 323 322 320 319 319 320 320 320 320 320 320 320 320 320 320 320 320 319 319 318 318 318 319 320 311 302 305 321 351 341 331 310 306 313 319 319 315 324 328 325 325 326 328 329 328
321 322 322 322 321 319 320 320 320 320 320 320 320 320 320 319 319 319 319 318 318 317 318 318 319 320 307 293 313 328 331 322 312 304 302 313 319 320 316 322 326 328 327 326 327 327 329
321 321 322 320 321 320 319 319 320 320 319 319 319 319 319 319 319 319 318 317 317 317 318 318 319 317 306 299 322 324 317 310 306 304 301 307 313 314 313 320 332 329 323 324 326 328 326
321 321 320 320 319 318 318 317 318 319 319 319 319 319 318 318 318 318 317 316 316 317 319 319 319 311 301 312 316 313 321 307 305 302 304 313 312 311 309 328 326 322 322 314 323 325 327
319 320 320 320 319 318 318 318 317 318 319 319 319 318 318 318 317 316 315 314 316 318 321 319 309 306 305 324 313 314 318 305 301 301 306 313 311 307 308 315 313 317 310 311 316 322 325
318 319 318 318 320 319 318 318 318 318 319 318 318 318 318 317 315 313 312 314 319 317 319 319 317 303 307 310 309 311 312 308 302 301 303 303 302 298 298 300 300 308 310 312 312 318 323
318 318 318 318 319 319 319 319 318 318 318 318 318 317 316 314 313 311 308 304 303 302 310 304 303 307 312 313 311 307 309 309 305 303 297 303 297 294 297 302 314 316 314 313 316 321 320
318 318 320 320 319 318 318 318 318 317 317 317 317 316 314 313 312 311 307 299 303 306 300 309 313 313 315 313 306 308 312 305 303 297 301 298 294 301 304 311 318 315 313 311 317 322 319
317 318 320 319 319 318 318 317 317 317 317 317 317 316 314 312 311 306 302 304 308 307 298 304 310 310 310 307 304 304 308 305 302 299 298 295 300 305 318 317 315 313 312 311 312 316 318
319 319 319 319 319 318 318 317 317 316 316 316 316 316 314 311 307 306 305 311 307 306 294 301 299 307 304 305 301 310 308 305 301 300 300 297 303 303 316 313 313 309 318 315 313 309 303
318 318 318 318 318 318 317 317 317 316 316 315 316 314 312 310 301 301 306 306 306 305 285 304 303 309 303 301 302 305 309 305 299 299 296 296 297 298 298 314 314 308 318 315 313 309 306
318 318 318 318 318 317 317 316 316 316 315 315 314 313 311 305 302 306 310 307 305 295 289 302 303 300 299 301 302 305 306 306 305 300 298 299 303 299 300 310 316 320 314 313 312 306 298
318 318 318 318 317 317 316 316 316 315 314 313 312 310 308 310 306 308 307 307 295 290 302 300 299 297 297 298 301 301 301 297 295 291 291 297 298 315 319 314 318 316 308 298 297 298 297
318 318 317 317 317 316 316 317 316 314 313 312 309 308 307 310 305 308 306 301 290 299 299 302 299 298 297 300 300 301 298 296 298 297 292 290 294 311 317 312 310 309 305 299 293 296 300
318 317 317 317 317 316 317 316 315 314 313 311 307 304 304 308 309 306 303 293 291 294 299 299 299 296 296 299 298 299 296 294 299 297 292 291 293 303 317 317 315 308 301 306 302 298 298
318 318 317 317 317 316 316 316 315 314 312 310 306 305 305 311 310 306 299 295 297 299 301 300 293 296 292 296 297 297 296 302 302 302 299 295 291 300 306 317 317 309 310 299 299 292 291
318 318 317 317 317 317 317 316 315 313 311 309 306 303 308 311 310 302 295 295 302 301 302 298 296 296 296 296 295 295 300 303 305 303 302 296 294 296 299 297 306 297 296 295 297 297 292
318 317 317 317 317 317 317 316 314 312 309 306 302 296 310 308 300 295 295 300 302 299 301 301 300 297 295 298 296 297 299 303 308 304 298 298 293 291 295 301 302 301 294 293 291 290 292
318 317 316 315 316 317 317 316 314 312 310 303 299 300 309 307 296 293 296 301 301 298 297 298 298 299 299 296 294 299 301 307 308 303 297 297 294 291 293 296 301 300 299 295 290 289 287
318 317 316 315 315 315 317 316 314 312 311 304 301 297 303 302 297 296 294 298 297 303 300 299 296 296 295 293 297 297 299 306 307 307 317 305 294 294 292 292 296 298 300 299 292 291 290
318 317 317 316 315 315 315 316 314 313 310 305 303 299 303 299 302 297 293 297 298 296 299 297 295 295 292 291 294 296 298 299 303 310 305 297 291 293 299 300 299 300 305 307 301 299 293
318 318 317 316 316 315 315 315 315 313 310 308 301 306 308 304 301 300 294 292 296 296 296 295 294 296 297 294 296 293 294 291 294 300 299 298 292 295 296 302 303 305 308 308 309 310 310
319 318 317 317 316 315 315 314 315 313 307 301 304 309 308 302 302 299 298 296 298 301 301 300 299 295 295 298 299 296 297 298 298 297 297 296 294 292 289 297 301 296 303 307 308 312 309
319 318 318 317 316 315 315 315 315 315 309 302 302 304 304 301 305 304 306 306 301 299 298 298 298 294 299 301 299 300 301 301 303 300 298 295 293 291 289 293 288 300 308 313 310 311 313
318 319 318 317 316 315 315 315 315 315 314 302 302 304 306 302 307 306 307 302 301 299 299 300 301 301 300 297 292 291 293 294 298 301 300 297 293 290 288 287 294 302 304 304 302 308 313
316 318 318 316 316 315 315 315 315 315 314 303 302 306 306 304 300 311 308 305 297 296 301 303 304 301 300 294 293 287 287 292 293 296 294 297 296 293 290 288 287 297 307 310 309 301 313
315 317 317 316 315 315 315 314 316 315 315 307 304 306 307 307 308 308 305 303 300 298 299 299 301 301 298 290 289 290 291 297 290 289 289 291 292 290 290 288 295 306 308 311 295 296 312
316 317 317 315 314 314 314 314 316 316 317 308 303 308 305 306 308 312 314 305 303 301 297 299 299 299 296 293 291 293 292 294 291 293 292 290 289 288 290 287 287 307 307 300 304 309 315
316 316 316 314 314 314 314 314 315 316 316 312 300 308 309 303 307 314 317 317 311 307 300 298 298 298 299 295 293 295 294 292 291 288 295 290 293 292 293 293 302 306 307 308 310 313 314

GFSGBSN_sfc_thetae_120.txt.gz
Theta_e
321 321 322 322 320 319 320 319 320 320 320 320 320 320 320 320 320 320 320 319 319 317 317 318 319 320 309 297 303 319 348 342 326 312 307 316 319 319 315 322 327 325 325 327 329 329 328
320 320 321 320 320 318 318 318 318 319 320 319 319 319 319 319 319 319 319 319 318 317 317 318 319 320 305 291 310 329 328 322 311 304 302 318 321 322 315 314 324 327 326 325 327 327 329
320 321 320 319 319 318 318 317 317 318 319 319 319 319 319 319 319 319 318 317 317 317 318 318 319 317 302 298 319 322 318 313 305 303 300 305 318 314 311 321 332 327 321 324 326 327 325
319 319 319 319 319 318 318 318 318 317 318 319 319 318 318 318 318 316 314 313 314 317 318 319 319 309 301 308 314 314 317 308 305 301 303 310 312 309 308 328 325 323 321 314 322 324 327
318 319 318 318 318 318 318 318 319 319 318 318 318 318 317 316 315 313 312 313 317 318 320 320 308 304 301 322 313 313 318 303 300 300 303 312 311 305 316 315 310 315 308 311 315 323 323
318 319 319 320 319 318 318 319 318 318 318 318 318 317 315 314 313 312 312 315 320 319 319 319 316 301 306 308 309 310 312 304 300 300 303 302 300 297 297 300 295 306 308 310 310 318 322
318 318 320 319 319 319 318 318 318 318 318 318 318 317 316 313 312 311 307 303 301 301 307 302 302 305 309 313 310 305 310 309 304 302 299 300 297 294 297 300 310 314 314 310 316 320 319
318 319 319 319 319 318 318 318 318 317 317 317 317 317 315 314 312 311 304 299 302 305 298 307 310 310 313 313 305 306 310 304 302 296 300 297 293 300 302 306 317 315 312 311 317 321 319
318 318 318 318 318 318 318 318 317 317 317 317 316 316 313 312 312 306 303 303 306 304 296 303 307 308 307 310 303 304 308 305 300 297 296 295 298 303 316 315 314 314 312 311 312 317 318
318 318 318 318 318 318 318 317 317 317 316 316 316 315 312 310 306 305 303 309 305 304 293 299 298 305 305 303 300 308 307 303 300 298 298 296 300 307 314 313 313 309 315 316 313 308 304
318 318 318 318 318 317 317 317 317 316 316 315 315 313 311 309 300 299 304 306 304 303 285 303 303 307 301 299 300 303 307 304 298 298 297 296 296 297 311 312 314 309 318 314 312 308 306
318 318 318 318 318 317 316 316 316 316 315 315 314 312 311 305 301 305 308 303 303 294 287 300 304 299 298 300 301 303 304 305 303 298 296 298 300 299 301 311 316 318 312 311 309 305 297
318 318 318 317 317 317 316 316 316 315 314 313 311 309 307 308 304 307 305 306 292 288 300 298 296 297 295 296 299 299 298 296 294 290 290 296 298 313 318 312 316 311 303 295 293 297 298
318 318 317 317 317 316 316 316 315 315 314 312 309 307 307 309 305 306 306 297 287 295 296 300 297 297 295 299 299 298 296 294 296 294 290 289 291 310 315 312 309 306 301 296 292 295 298
318 317 317 317 317 316 317 316 315 314 313 310 307 303 304 307 308 305 302 291 289 292 297 298 297 295 295 298 296 297 294 293 296 296 290 289 292 304 315 316 314 307 300 305 298 302 298
319 317 317 316 317 316 317 316 315 314 312 310 305 303 305 309 308 305 298 293 296 299 298 298 292 295 291 295 294 295 294 301 300 300 296 294 290 298 311 316 314 308 311 298 298 293 292
318 317 316 316 315 316 317 316 315 314 311 309 304 302 307 309 307 301 295 294 300 302 300 296 295 294 294 293 294 293 296 301 304 302 300 295 294 295 299 301 304 301 302 295 299 298 294
319 317 316 316 315 315 315 316 314 312 310 305 299 298 307 306 299 293 294 297 301 298 300 299 298 295 294 296 295 295 297 301 306 304 297 297 292 290 295 299 300 301 295 294 293 291 292
319 318 318 317 316 316 315 314 314 312 311 303 298 299 309 305 295 293 294 298 300 297 296 297 295 298 298 295 293 297 299 305 305 302 298 298 293 290 293 297 298 297 298 293 289 289 288
319 319 319 318 316 316 315 313 313 312 311 303 299 297 303 302 295 295 293 295 295 300 297 297 294 294 292 294 295 294 296 303 303 306 314 305 295 294 289 293 295 295 299 297 291 288 289
319 320 319 317 318 317 315 314 313 312 310 303 300 297 301 299 300 297 295 294 297 294 297 296 293 295 292 292 294 293 296 296 300 305 303 296 292 295 296 300 299 298 304 307 301 299 292
318 319 319 318 318 317 316 314 313 313 310 307 304 304 306 302 301 299 293 291 295 295 296 293 293 296 295 293 295 293 293 290 291 299 298 299 292 294 295 300 304 304 306 307 309 310 309
317 317 319 319 318 317 316 315 314 312 306 298 300 304 306 301 301 298 299 300 297 298 299 298 297 296 295 297 299 294 297 297 296 295 296 295 294 293 287 296 301 296 302 306 307 310 307
316 317 319 319 318 317 316 316 314 313 309 300 299 302 304 300 303 303 305 306 301 298 298 298 297 294 297 303 303 301 300 299 301 298 295 293 291 290 290 290 286 296 309 311 309 310 310
314 315 317 319 318 317 316 316 315 314 314 307 300 302 304 301 305 305 305 302 300 297 297 298 300 299 300 297 292 292 292 294 296 299 298 295 291 289 287 286 293 301 305 305 306 307 313
315 315 316 318 318 316 316 315 316 315 314 308 300 303 304 303 300 309 306 306 297 296 299 301 304 298 299 294 293 286 286 290 292 295 292 295 294 291 289 286 287 297 306 310 311 299 314
316 315 316 317 318 316 316 315 315 316 314 312 305 305 303 305 308 307 304 302 299 298 298 299 300 300 297 290 289 289 289 295 288 288 287 289 289 289 289 287 293 303 307 310 298 298 314
315 315 316 317 317 315 315 314 315 315 316 312 305 307 303 304 304 312 312 304 302 300 297 298 299 299 295 292 290 291 290 293 290 291 291 289 287 287 289 287 287 306 307 300 302 310 317
315 315 316 316 315 315 314 315 315 315 316 312 301 307 308 300 302 311 315 316 313 310 299 297 298 298 298 294 292 293 292 291 289 287 293 289 292 290 292 292 299 304 304 309 310 312 315